     2.11           OBSERVATION DATA    G (GPS)             RINEX VERSION / TYPE
teqc 2010Oct21 OPUS Account 20111026 16:30:14UTC            PGM / RUN BY / DATE
V 1522                                                      MARKER NAME
1175                                                        MARKER NUMBER
CSMIDDLETON NGS                                             OBSERVER / AGENCY
4624K01648 TRIMBLE NETR5 4.41                               REC # / TYPE / VERS
60165452 TRM41249.00 NONE                                   ANT # / TYPE
  -741039.4778 -5502477.5488  3128887.8906                  APPROX POSITION XYZ
        2.0000        0.0000        0.0000                  ANTENNA: DELTA H/E/N
     1     1                                                WAVELENGTH FACT L1/2
     5    L1    L2    C1    P1    P2                        # / TYPES OF OBSERV
    15                                                      LEAP SECONDS
  2011     8     2    14    25    0.0000000     GPS         TIME OF FIRST OBS
                                                            END OF HEADER
 11  8  2 14 25  0.0000000  0  8G31G20G16G30G24G32G13G23
 120487779.94617  93886614.07017  22928062.195                    22928069.516
 110242689.60818  85903423.89556  20978487.000                    20978493.707
 108268369.65918  84364988.95056  20602785.875                    20602792.273
 106802356.81018  83222638.46056  20323813.273                    20323820.723
 129071924.00916 100575588.20253  24561576.406                    24561586.355
 109695168.41418  85476747.61856  20874289.750                    20874297.258
 128609029.24416 100214864.04153  24473485.352                    24473494.070
 117387939.07217  91471143.67855  22338182.523                    22338187.957
 11  8  2 14 25 30.0000000  0  8G31G20G16G30G24G32G13G23
 120559034.012 7  93942136.687 7  22941621.117                    22941628.598
 110230891.613 8  85894230.62446  20976241.945                    20976248.945
 108218509.335 8  84326136.76646  20593298.172                    20593304.492
 106811191.183 8  83229522.38846  20325494.547                    20325501.836
 129137446.614 6 100626644.77243  24574045.492                    24574055.750
 109720345.263 8  85496365.92446  20879081.117                    20879088.668
 128525721.036 6 100149948.55443  24457632.742                    24457641.039
 117312840.189 7  91412625.06645  22323891.922                    22323896.934
 11  8  2 14 26  0.0000000  0  9G03G31G20G16G30G24G32G13G23
 127826843.79616  99605383.14553  24324642.523                    24324652.148
 120630278.083 7  93997651.520 7  22955178.484                    22955186.168
 110219671.098 8  85885487.35646  20974106.617                    20974113.539
 108169211.632 8  84287722.99246  20583916.953                    20583923.289
 106820649.257 8  83236892.32046  20327293.891                    20327301.664
 129202949.156 6 100677685.66143  24586509.789                    24586520.324
 109746029.771 8  85516379.81246  20883968.703                    20883976.266
 128442339.061 6 100084975.63443  24441765.203                    24441774.141
 117237785.177 8  91354140.64645  22309609.531                    22309614.270
 11  8  2 14 26 30.0000000  0  9G03G31G20G16G30G24G32G13G23
 127738413.170 6  99536476.23243  24307814.367                    24307824.664
 120701510.700 7  94053157.438 7  22968733.391                    22968741.020
 110209027.750 8  85877193.82346  20972081.305                    20972088.359
 108120477.768 8  84249748.56646  20574642.695                    20574649.738
 106830730.042 8  83244747.47846  20329212.563                    20329219.766
 129268428.287 6 100728708.28943  24598970.211                    24598981.227
 109772220.508 8  85536788.16546  20888952.586                    20888960.246
 128358883.643 6 100019945.41742  24425883.922                    24425893.242
 117162775.109 8  91295691.25145  22295335.719                    22295340.887
 11  8  2 14 27  0.0000000  0 10G06G03G31G20G16G30G24G32G13G23
 126735030.16116  98754604.80653  24116875.414                    24116884.309
 127649867.441 6  99467479.63843  24290964.750                    24290974.766
 120772733.430 7  94108655.629 7  22982287.242                    22982294.711
 110198964.628 8  85869352.42046  20970166.266                    20970173.180
 108072311.654 8  84212216.55846  20565477.188                    20565483.902
 106841435.277 8  83253089.21646  20331249.555                    20331257.371
 129333883.882 6 100779712.59143  24611426.359                    24611437.027
 109798919.642 8  85557592.67546  20894033.141                    20894040.371
 128275357.753 6  99954860.34542  24409988.977                    24409999.230
 117087814.032 7  91237280.02445  22281071.102                    22281076.586
 11  8  2 14 27 30.0000000  0 10G06G03G31G20G16G30G24G32G13G23
 126661410.491 6  98697238.90343  24102865.242                    24102875.250
 127561206.162 6  99398392.99742  24274092.008                    24274102.738
 120843942.742 7  94164143.370 7  22995837.750                    22995845.117
 110189478.972 8  85861960.98546  20968361.344                    20968368.234
 108024712.084 8  84175125.99346  20556419.477                    20556425.852
 106852761.414 8  83261914.77546  20333404.836                    20333412.188
 129399310.227 6 100830694.06643  24623875.930                    24623887.434
 109826123.493 8  85578790.46646  20899210.063                    20899217.938
 128191759.059 6                  24394081.609
 117012900.124 7  91178905.56245  22266815.008                    22266820.867
 11  8  2 14 28  0.0000000  0 10G06G03G31G20G16G30G24G32G13G23
 126587792.210 6  98639874.08943  24088855.203                    24088866.422
 127472431.996 6  99329218.45143  24257199.383                    24257209.801
 120915137.305 7  94219619.623 7  23009385.320                    23009392.711
 110180570.747 8  85855019.49346  20966666.336                    20966672.652
 107977680.294 8  84138477.87146  20547469.422                    20547476.254
 106864707.330 8  83271223.27746  20335678.375                    20335685.473
 129464704.441 6 100881650.57942  24636320.422                    24636330.707
 109853831.185 8  85600380.86946  20904482.477                    20904490.168
 128108087.930 6                  24378159.047
 116938034.748 7  91120568.92445  22252568.828                    22252574.648
 11  8  2 14 28 30.0000000  0 10G06G03G31G20G16G30G24G32G13G23
 126514178.035 6  98582512.41443  24074847.578                    24074857.738
 127383547.605 6  99259957.95243  24240285.875                    24240296.066
 120986316.064 7  94275083.562 7  23022930.594                    23022937.922
 110172240.335 8  85848528.24646  20965081.125                    20965087.906
 107931217.849 8  84102273.39246  20538627.828                    20538634.387
 106877272.425 8  83281014.26146  20338069.008                    20338076.586
 129530063.885 6 100932579.96143  24648757.344                    24648767.766
 109882042.005 8  85622363.30646  20909851.008                    20909858.355
 128024345.447 7                  24362224.078
 116863219.551 7  91062271.38745  22238332.102                    22238337.211
 11  8  2 14 29  0.0000000  0 10G06G03G31G20G16G30G24G32G13G23
 126440571.058 6  98525156.35243  24060841.617                    24060850.801
 127294555.721 6  99190613.73743  24223351.117                    24223361.332
 121057478.387 7  94330534.689 7  23036472.469                    23036479.621
 110164488.082 8  85842487.52346  20963605.836                    20963612.848
 107885326.435 8  84066513.86646  20529895.305                    20529901.371
 106890456.136 8  83291287.27246  20340578.023                    20340585.066
 129595386.197 6 100983480.40843  24661188.359                    24661198.773
 109910755.392 8  85644737.36146  20915315.023                    20915322.215
 127940531.990 7  99693949.99753  24346273.750                    24346281.723
 116788456.009 7  91004014.09145  22224104.859                    22224110.203
 11  8  2 14 29 30.0000000  0 10G06G03G31G20G16G30G24G32G13G23
 126366974.114 6  98467808.13543  24046835.898                    24046845.004
 127205458.835 6  99121187.73243  24206396.414                    24206406.141
 121128623.527 7  94385972.445 7  23050010.508                    23050018.246
 110157314.417 8  85836897.63546  20962240.617                    20962247.473
 107840007.273 8  84031200.24846  20521271.109                    20521277.777
 106904257.668 8  83302041.70846  20343204.234                    20343211.637
 129660668.814 6 101034350.00443  24673610.625                    24673622.199
 109939970.542 8  85667502.40146  20920873.930                    20920881.891
 127856648.140 6  99628585.96743  24330311.836                    24330320.195
 116713745.495 7  90945798.10745  22209888.211                    22209893.398
 11  8  2 14 30  0.0000000  0 10G06G03G31G20G16G30G24G32G13G23
 126293390.342 6  98410470.12943  24032833.328                    24032842.801
 127116259.599 6  99051681.94043  24189422.680                    24189432.602
 121199750.736 7  94441396.214 7  23063545.563                    23063553.172
 110150719.536 8  85831758.76046  20960986.148                    20960992.566
 107795262.442 8  83996334.16646  20512756.414                    20512762.973
 106918676.371 8  83313277.05646  20345948.430                    20345955.426
 129725909.585 6 101085186.87843  24686026.422                    24686037.102
 109969687.139 8  85690658.17846  20926529.328                    20926537.020
 127772694.752 6  99563167.77343  24314335.875                    24314344.305
 116639089.968 8  90887624.97145  22195681.297                    22195686.668
 11  8  2 14 30 30.0000000  0 10G06G03G31G20G16G30G24G32G13G23
 126219822.498 6  98353144.54943  24018833.227                    24018843.348
 127026960.840 6  98982098.57642  24172428.164                    24172438.355
 121270859.097 7  94496805.285 7  23077077.773                    23077084.215
 110144703.606 8  85827071.01246  20959841.063                    20959847.625
 107751093.351 8  83961916.70746  20504351.328                    20504357.629
 106933711.560 8  83324992.78446  20348809.250                    20348816.910
 129791105.351 6 101135988.72243  24698432.852                    24698444.230
 109999904.344 8  85714204.03346  20932279.305                    20932286.789
 127688672.929 6  99497696.25543  24298347.414                    24298355.402
 116564490.835 7  90829495.78345  22181485.789                    22181491.125
 11  8  2 14 31  0.0000000  0  9G06G03G31G20G16G30G32G13G23
 126146273.364 6  98295833.56043  24004837.828                    24004848.152
 126937565.512 6  98912439.92542  24155417.445                    24155426.477
 121341947.815 7  94552199.057 7  23090605.094                    23090612.207
 110139266.563 8  85822834.34646  20958806.492                    20958813.203
 107707500.883 8  83927948.55846  20496055.734                    20496062.289
 106949362.108 8  83337188.00946  20351787.227                    20351794.605
 110030620.983 8  85738139.06246  20938124.617                    20938132.172
 127604582.758 6  99432171.47842  24282344.180                    24282353.684
 116489949.298 8  90771411.46945  22167300.953                    22167306.418
 11  8  2 14 31 30.0000000  0  9G06G03G31G20G16G30G32G13G23
 126072745.737 7  98238539.34243  23990845.883                    23990855.875
 126848076.136 6  98842707.97443  24138388.047                    24138396.941
 121413015.964 7  94607576.808 7  23104128.898                    23104136.000
 110134408.652 8  85819048.94346  20957882.148                    20957889.059
 107664486.593 8  83894430.94846  20487870.531                    20487877.152
 106965627.147 8  83349862.06246  20354882.859                    20354889.961
 110061836.548 8  85762462.85746  20944064.578                    20944071.805
 127520425.238 6  99366594.27443  24266330.305                    24266338.801
 116415467.153 7  90713373.43245  22153127.680                    22153133.020
 11  8  2 14 32  0.0000000  0  9G06G03G31G20G16G30G32G13G23
 125999242.679 6  98181264.21143  23976858.898                    23976868.793
 126758495.324 6  98772904.81743  24121341.094                    24121350.910
 121484062.891 7  94662938.006 7  23117648.734                    23117655.781
 110130130.117 8  85815715.00646  20957068.156                    20957074.379
 107622052.127 8  83861365.14346  20479795.766                    20479802.223
 106982506.048 8  83363014.45146  20358094.758                    20358101.785
 110093550.306 8  85787174.85746  20950099.672                    20950107.016
 127436201.536 6  99300965.39743  24250303.266                    24250312.094
 116341046.237 7  90655383.11445  22138966.141                    22138970.895
 11  8  2 14 32 30.0000000  0  9G06G03G31G20G16G30G32G13G23
 125925767.278 6  98124010.66243  23962876.883                    23962886.754
 126668826.112 6  98703032.81543  24104277.391                    24104288.020
 121555087.833 7  94718282.079 7  23131164.195                    23131171.250
 110126431.181 8  85812832.71146  20956364.008                    20956370.766
 107580198.775 8  83828752.15646  20471831.250                    20471837.738
 106999997.782 8  83376644.37146  20361422.867                    20361430.492
 110125761.454 8  85812274.44546  20956229.063                    20956236.227
 127351912.055 6  99235285.30643  24234263.648                    24234272.031
 116266688.026 7  90597441.64345  22124815.828                    22124820.953
 11  8  2 14 33  0.0000000  0  9G06G03G31G20G16G30G32G13G23
 125852322.283 6  98066780.83443  23948900.539                    23948910.266
 126579071.148 6  98633093.95743  24087197.594                    24087207.277
 121626090.101 7  94773608.478 7  23144676.008                    23144682.949
 110123311.647 8  85810401.89946  20955770.367                    20955777.059
 107538927.543 8  83796592.76146  20463977.648                    20463984.184
 107018101.266 8  83390750.98746  20364868.156                    20364875.375
 110158468.938 8  85837760.77146  20962453.219                    20962460.547
 127267557.584 6  99169554.55843  24218211.234                    24218219.777
 116192393.966 7  90539550.17345  22110678.195                    22110683.367
 11  8  2 14 33 30.0000000  0  9G06G03G31G20G16G30G32G13G23
 125778910.661 6  98009577.03443  23934930.695                    23934940.305
 126489233.238 6  98563090.38943  24070102.727                    24070111.531
 121697068.633 7  94828916.388 7  23158182.281                    23158189.699
 110120771.380 8  85808422.45346  20955287.125                    20955293.590
 107498239.925 8  83764888.13846  20456235.031                    20456241.238
 107036815.639 8  83405333.60946  20368429.313                    20368436.820
 110191672.206 8  85863633.43446  20968771.328                    20968779.305
 127183139.014 6  99103773.82143  24202147.109                    24202155.648
 116118165.497 7  90481709.81045  22096553.109                    22096558.520
 11  8  2 14 34  0.0000000  0  9G06G03G31G20G16G30G32G13G23
 125705535.346 6  97952401.49243  23920968.586                    23920977.695
 126399315.335 6  98493024.46643  24052992.289                    24053001.633
 121768023.073 7  94884205.521 7  23171685.281                    23171692.230
 110118811.146 8  85806894.98446  20954914.117                    20954920.508
 107458137.532 8  83733639.53046  20448603.633                    20448609.922
 107056139.818 8  83420391.41646  20372106.852                    20372114.125
 110225370.254 8  85889891.63646  20975184.023                    20975191.605
 127098656.679 6  99037943.45343  24186070.484                    24186079.281
 116044004.462 7  90423922.00445  22082440.203                    22082445.910
 11  8  2 14 34 30.0000000  0  9G06G03G31G20G16G30G32G13G23
 125632199.220 6  97895256.52243  23907011.766                    23907022.371
 126309319.553 6  98422897.89543  24035866.250                    24035876.180
 121838952.353 7  94939475.047 7  23185182.219                    23185189.723
 110117430.168 8  85805818.89446  20954651.031                    20954658.043
 107418621.095 8  83702847.50346  20441083.922                    20441090.223
 107076072.650 8  83435923.49146  20375899.633                    20375906.813
 110259561.870 8  85916534.44546  20981690.469                    20981697.859
 127014111.904 6  98972064.44943  24169982.219                    24169990.875
 115969912.403 8  90366187.92645  22068341.047                    22068346.980
 11  8  2 14 35  0.0000000  0  9G06G03G31G20G16G30G32G13G23
 125558905.000 6  97838144.18943  23893065.711                    23893074.648
 126219248.726 6  98352712.89343  24018726.297                    24018735.988
 121909855.597 8  94994724.295 7  23198674.656                    23198682.074
 110116628.599 8  85805194.28146  20954498.820                    20954505.293
 107379691.711 8  83672512.92946  20433675.789                    20433682.598
 107096613.167 8  83451929.08946  20379808.352                    20379815.734
 110294246.296 8  85943561.24546  20988290.938                    20988298.496
 126929505.267 6  98906137.24743  24153881.883                    24153890.648
 115895890.778 8  90308508.75345  22054254.852                    22054260.613
 11  8  2 14 35 30.0000000  0  9G06G03G31G20G16G30G32G13G23
 125485655.826 6  97781066.99743  23879125.805                    23879135.816
 126129106.231 6  98282472.03443  24001572.734                    24001582.922
 121980732.351 7  95049952.897 6  23212162.242                    23212169.297
 110116406.464 8  85805021.17846  20954456.664                    20954463.301
 107341350.954 8  83642637.03246  20426379.641                    20426386.430
 107117760.238 8  83468407.32546  20383832.500                    20383839.902
 110329422.701 8  85970971.41046  20994984.742                    20994992.172
 126844837.412 7  98840162.32843  24137770.375                    24137779.438
 115821941.688 8  90250886.08845  22040182.969                    22040188.742
 11  8  2 14 36  0.0000000  0  9G06G03G31G20G16G30G32G13G23
 125412454.438 6  97724027.01743  23865196.180                    23865206.375
 126038894.460 7  98212177.15244  23984405.922                    23984416.199
 122051581.691 7  95105160.152 6  23225644.336                    23225651.172
 110116763.529 8  85805299.39546  20954524.445                    20954530.965
 107303599.638 8  83613220.43646  20419196.070                    20419202.328
 107139512.676 8  83485357.27446  20387972.086                    20387979.750
 110365089.758 8  85998763.89646  21001771.750                    21001779.813
 126760109.238 6  98774140.41643  24121646.930                    24121655.680
 115748065.992 8  90193320.60945  22026125.305                    22026130.648
 11  8  2 14 36 30.0000000  0  9G06G03G31G20G16G30G32G13G23
 125339303.898 6  97667026.62943  23851276.031                    23851286.109
 125948616.250 6  98141830.48543  23967227.031                    23967236.355
 122122402.993 7  95160345.535 7  23239120.781                    23239128.359
 110117699.634 8  85806028.81046  20954702.578                    20954709.273
 107266438.991 8  83584264.09146  20412124.625                    20412130.949
 107161869.508 8  83502778.16646  20392226.383                    20392233.773
 110401246.610 8  86026938.05146  21008652.375                    21008660.113
 126675321.452 6  98708072.05143  24105512.109                    24105520.863
 115674265.958 8  90135814.10645  22012081.094                    22012086.707
 11  8  2 14 37  0.0000000  0  8G06G03G31G20G16G32G13G23
 125266207.078 7  97610068.13643  23837366.250                    23837375.094
 125858274.360 6  98071434.19243  23950034.969                    23950043.883
 122193195.527 7  95215508.523 6  23252592.586                    23252599.453
 110119214.687 8  85807209.35246  20954990.727                    20954997.668
 107229870.368 8  83555769.06446  20405165.906                    20405172.145
 110437892.391 8  86055493.18446  21015626.086                    21015633.574
 126590475.216 6  98641958.15043  24089367.273                    24089375.238
 115600543.062 8  90078367.68345  21998052.352                    21998057.957
 11  8  2 14 37 30.0000000  0  8G06G03G31G20G16G32G13G23
 125193167.158 6  97553153.97543  23823467.063                    23823476.203
 125767871.587 6  98000990.45443  23932831.156                    23932840.855
 122263958.600 7  95270648.534 7  23266058.203                    23266065.543
 110121308.734 8  85808841.06046  20955389.383                    20955395.844
 107193894.808 8  83527736.18046  20398319.992                    20398326.449
 110475026.210 8  86084428.60046  21022692.047                    21022699.836
 126505571.381 6  98575799.37542  24073210.008                    24073218.648
 115526899.031 8  90020982.73445  21984038.438                    21984043.730
 11  8  2 14 38  0.0000000  0  8G06G03G31G20G16G32G13G23
 125120186.533 7  97496286.00043  23809579.242                    23809589.328
 125677410.713 6  97930501.48544  23915618.234                    23915627.895
 122334691.495 7  95325765.057 6  23279518.469                    23279525.273
 110123981.133 8  85810923.42446  20955897.867                    20955904.527
 107158512.611 8  83500165.65646  20391586.930                    20391593.355
 110512646.484 8  86113743.07846  21029850.859                    21029858.547
 126420610.295 6  98509595.92143  24057042.328                    24057051.074
 115453335.303 8  89963660.37245  21970039.898                    21970045.387
 11  8  2 14 38 30.0000000  0  8G06G03G31G20G16G32G13G23
 125047268.354 7  97439466.73344  23795703.430                    23795713.547
 125586894.648 6  97859969.48843  23898393.695                    23898403.176
 122405393.360 7  95380857.409 6  23292972.070                    23292979.746
 110127231.497 8  85813456.15146  20956516.625                    20956523.180
 107123725.137 8  83473058.53546  20384967.023                    20384973.320
 110550751.950 8  86143435.61946  21037101.961                    21037110.293
 126335593.019 6  98443348.70142  24040863.813                    24040872.520
 115379853.356 8  89906401.70345  21956056.609                    21956062.160
 11  8  2 14 39  0.0000000  0  8G06G03G31G20G16G32G13G23
 124974415.592 6  97382698.35943  23781840.242                    23781849.891
 125496326.139 6  97789396.70543  23881158.820                    23881167.980
 122476063.751 7  95435925.199 6  23306420.500                    23306427.582
 110131060.078 8  85816439.44246  20957245.047                    20957251.910
 107089533.434 8  83446415.65846  20378460.492                    20378466.395
 110589342.045 8  86173505.79846  21044445.969                    21044453.273
 126250520.562 6  98377058.46143  24024675.203                    24024684.086
 115306455.214 8  89849208.35345  21942089.641                    21942094.523
 11  8  2 14 39 30.0000000  0  8G06G03G31G20G16G32G13G23
 124901631.133 6  97325983.21743  23767989.828                    23767998.742
 125405708.031 6  97718785.20343  23863914.320                    23863923.477
 122546701.627 7  95490967.700 6  23319862.563                    23319869.465
 110135466.147 8  85819872.72846  20958083.750                    20958090.211
 107055938.382 8  83420237.69746  20372067.719                    20372074.074
 110628415.407 8  86203952.55946  21051881.477                    21051888.988
 126165393.708 6  98310725.95843  24008476.094                    24008484.926
 115233142.383 8  89792081.48645  21928138.789                    21928144.461
 11  8  2 14 40  0.0000000  0  8G06G03G31G20G16G32G13G23
 124828918.086 6  97269323.71843  23754152.492                    23754161.734
 125315043.750 6  97648137.69143  23846661.492                    23846670.121
 122617306.961 7  95545984.795 7  23333298.141                    23333306.086
 110140449.829 8  85823756.09646  20959031.781                    20959038.504
 107022941.596 8  83394525.92846  20365788.406                    20365794.832
 110667970.979 8  86234775.04846  21059408.352                    21059415.898
 126080213.385 6  98244351.71243  23992267.094                    23992275.695
 115159916.789 8  89735022.59345  21914204.227                    21914209.320
 11  8  2 14 40 30.0000000  0  8G06G03G31G20G16G32G13G23
 124756279.250 6  97212722.10944  23740330.000                    23740339.945
 125224335.422 6  97577455.87844  23829400.180                    23829410.820
 122687878.768 7  95600975.791 6  23346727.250                    23346735.074
 110146010.365 8  85828088.95146  20960090.039                    20960096.949
 106990542.960 8  83369280.23946  20359622.945                    20359629.680
 110708007.470 8  86265972.29246  21067027.313                    21067034.574
 125994980.330 7  98177936.36943  23976048.055                    23976056.680
 115086779.996 8  89678032.88845  21900286.695                    21900291.836
 11  8  2 14 41  0.0000000  0  8G06G03G31G20G16G32G13G23
 124683717.691 6  97156180.66444  23726522.539                    23726532.656
 125133586.211 6  97506742.30943  23812130.875                    23812142.027
 122758416.208 7  95655940.003 6  23360150.547                    23360157.785
 110152147.525 8  85832871.13446  20961257.852                    20961264.742
 106958743.828 8  83344501.70146  20353572.102                    20353578.602
 110748523.788 8  86297543.42146  21074737.367                    21074744.938
 125909695.637 6  98111480.77043  23959818.477                    23959826.961
 115013733.669 8  89621113.69245  21886386.430                    21886391.922
 11  8  2 14 41 30.0000000  0  8G06G03G31G20G16G32G13G23
 124611236.142 6  97099701.64943  23712728.398                    23712739.598
 125042798.731 6  97435998.91343  23794854.078                    23794864.609
 122828918.740 7  95710877.025 6  23373566.656                    23373574.563
 110158860.979 8  85838102.37446  20962535.469                    20962542.250
 106927544.854 8  83320190.81546  20347635.188                    20347641.223
 110789518.453 8  86329487.28846  21082538.633                    21082546.156
 125824360.426 6  98044985.82743  23943579.234                    23943588.934
 114940779.663 8  89564266.40445  21872503.773                    21872509.070
 11  8  2 14 42  0.0000000  0  8G06G03G31G20G16G32G13G23
 124538837.886 6  97043287.44343  23698951.734                    23698962.102
 124951976.018 7  97365227.98643  23777572.164                    23777580.887
 122899385.998 7  95765786.555 6  23386976.125                    23386983.359
 110166150.261 8  85843782.31246  20963922.508                    20963929.555
 106896947.056 8  83296348.38746  20341812.484                    20341818.867
 110830990.673 8  86361803.27846  21090429.969                    21090438.023
 125738975.295 6  97978452.00043  23927331.094                    23927340.320
 114867919.756 8  89507492.45345  21858639.203                    21858644.539
 11  8  2 14 42 30.0000000  0  8G06G03G31G20G16G32G13G23
 124466525.949 6  96986940.50043  23685191.445                    23685201.137
 124861121.215 6  97294432.02343  23760282.438                    23760292.379
 122969817.214 7  95820667.990 6  23400378.836                    23400386.578
 110174014.928 8  85849910.60046  20965419.109                    20965426.207
 106866951.331 8  83272975.10546  20336104.398                    20336110.730
 110872939.058 8  86394490.29646  21098412.648                    21098420.520
 125653541.096 6  97911879.92243  23911074.445                    23911082.781
 114795155.747 8  89450793.23945  21844792.445                    21844797.934
 11  8  2 14 43  0.0000000  0  8G06G03G31G20G16G32G13G23
 124394303.138 6  96930663.04143  23671447.906                    23671458.012
 124770237.129 6  97223613.33343  23742987.602                    23742997.609
 123040212.130 7  95875521.144 6  23413774.555                    23413781.727
 110182454.862 8  85856487.14046  20967025.219                    20967032.223
 106837558.383 8  83250071.51846  20330511.258                    20330517.371
 110915362.300 8  86427547.34246  21106485.828                    21106493.129
 125568058.703 6  97845270.27343  23894806.742                    23894815.508
 114722489.665 8  89394170.34145  21830964.289                    21830969.906
 11  8  2 14 43 30.0000000  0  8G06G03G31G20G16G32G13G23
 124322172.487 6  96874457.37343  23657721.859                    23657731.398
 124679326.259 6  97152773.83943  23725687.789                    23725698.395
 123110569.770 7  95930345.253 6  23427162.844                    23427170.070
 110191469.084 8  85863511.19846  20968740.430                    20968746.984
 106808768.705 8  83227638.01046  20325032.734                    20325039.047
 110958259.112 8  86460973.39846  21114649.055                    21114656.270
 125482529.367 6  97778624.08243  23878531.102                    23878539.707
 114649922.929 8  89337624.83345  21817155.539                    21817160.559
 11  8  2 14 44  0.0000000  0  8G06G03G31G20G16G32G13G23
 124250136.846 6  96818325.74643  23644014.469                    23644023.520
 124588391.942 6  97081916.01344  23708383.664                    23708394.309
 123180889.449 7  95985139.795 6  23440544.891                    23440551.355
 110201057.250 8  85870982.46246  20970565.016                    20970572.055
 106780583.168 8  83205675.25946  20319669.242                    20319675.500
 111001628.025 8  86494767.32746  21122901.508                    21122909.559
 125396954.181 6  97711942.16443  23862246.953                    23862255.516
 114577456.944 8  89281157.84045  21803365.688                    21803371.156
 11  8  2 14 44 30.0000000  0  8G06G03G31G20G16G32G13G23
 124178199.052 6  96762270.33444  23630325.414                    23630334.480
 124497436.840 6  97011041.92543  23691075.539                    23691085.344
 123251170.742 7  96039904.414 6  23453918.656                    23453925.777
 110211218.546 8  85878900.33246  20972498.758                    20972505.422
 106753001.964 8  83184183.40346  20314420.836                    20314427.188
 111045467.757 8  86528928.12646  21131243.977                    21131251.008
 125311333.710 6  97645224.98043  23845954.328                    23845962.484
 114505093.820 8  89224771.00145  21789595.039                    21789600.664
 11  8  2 14 45  0.0000000  0  8G06G03G31G20G16G32G13G23
 124106362.336 6  96706293.70244  23616654.547                    23616664.328
 124406464.019 6  96940154.05843  23673763.891                    23673773.680
 123321413.238 7  96094638.790 7  23467285.344                    23467292.945
 110221952.539 8  85887264.45946  20974541.422                    20974548.180
 106726026.390 8  83163163.48646  20309287.469                    20309293.813
 111089777.197 8  86563454.93146  21139675.914                    21139683.508
 125225669.235 6  97578473.48843  23829652.055                    23829660.996
 114432835.616 8  89168465.91145  21775845.273                    21775850.762
 11  8  2 14 45 30.0000000  0  8G06G03G31G20G16G32G13G23
 124034629.500 6  96650398.04043  23603004.008                    23603014.133
 124315476.797 7  96869255.03544  23656449.906                    23656459.719
 123391616.000 7  96149342.226 6  23480645.039                    23480651.773
 110233258.414 8  85896074.20246  20976692.867                    20976699.488
 106699656.771 8  83142615.71846  20304269.492                    20304275.957
 111134554.546 8  86598346.34246  21148196.633                    21148204.379
 125139961.504 6  97511688.28243  23813342.422                    23813351.754
 114360683.761 8  89112243.70345  21762115.227                    21762120.504
 11  8  2 14 46  0.0000000  0  8G06G03G31G20G16G32G13G23
 123963003.371 6  96594585.55043  23589373.984                    23589383.965
 124224477.880 7  96798346.87944  23639133.633                    23639143.602
 123461778.600 7  96204014.340 6  23493996.328                    23494003.270
 110245135.746 8  85905329.23346  20978953.109                    20978959.656
 106673893.656 8  83122540.56746  20299366.789                    20299373.367
 111179798.559 8  86633601.39046  21156806.477                    21156814.180
 125054211.709 6  97444870.31843  23797024.688                    23797033.855
 114288639.911 8  89056105.64145  21748405.672                    21748410.777
 11  8  2 14 46 30.0000000  0  8G06G03G31G20G16G32G13G23
 123891487.213 7  96538858.68343  23575765.414                    23575774.398
 124133469.786 6  96727431.58243  23621815.164                    23621824.313
 123531900.506 7  96258654.744 6  23507340.039                    23507347.816
 110257583.806 8  85915028.99046  20981321.773                    20981328.652
 106648737.439 8  83102938.31046  20294579.961                    20294586.477
 111225507.873 8  86669219.00646  21165504.156                    21165512.422
 124968420.899 6  97378020.38143  23780699.500                    23780708.352
 114216706.192 8  89000053.40345  21734716.742                    21734722.359
 11  8  2 14 47  0.0000000  0  8G06G03G31G20G16G32G13G23
 123820084.057 7  96483219.86744  23562178.047                    23562186.879
 124042455.673 6  96656511.53343  23604495.469                    23604504.367
 123601981.186 7  96313263.025 7  23520675.984                    23520683.695
 110270601.786 8  85925172.83546  20983799.469                    20983806.328
 106624188.690 8  83083809.40346  20289908.508                    20289914.949
 111271681.118 8  86705198.12046  21174290.961                    21174298.605
 124882589.905 6  97311139.11843  23764366.375                    23764375.273
 114144884.290 8  88944088.30145  21721049.688                    21721055.328
 11  8  2 14 47 30.0000000  0  8G06G03G31G20G16G32G13G23
 123748797.102 6  96427671.64943  23548612.617                    23548622.113
 123951439.022 7  96585589.54943  23587175.297                    23587184.676
 123672020.752 7  96367839.265 6  23534004.102                    23534011.391
 110284189.632 8  85935760.73846  20986385.375                    20986391.867
 106600248.923 8  83065155.02146  20285352.883                    20285359.063
 111318317.103 8  86741537.81046  21183165.672                    21183173.398
 124796720.160 6  97244227.62943  23748026.125                    23748034.801
 114073176.427 8  88888212.04745  21707403.914                    21707409.309
 11  8  2 14 48  0.0000000  0  8G06G03G31G20G16G32G13G23
 123677628.812 6  96372215.96643  23535068.516                    23535078.684
 123860422.017 7  96514667.28044  23569855.695                    23569865.598
 123742017.928 7  96422382.503 6  23547323.773                    23547331.016
 110298345.892 8  85946791.55546  20989078.867                    20989085.406
 106576916.998 8  83046974.29346  20280913.008                    20280919.457
 111365413.817 8  86778236.51946  21192128.133                    21192135.668
 124710812.288 6  97177286.43843  23731678.422                    23731687.059
 114001583.922 8  88832425.67545  21693780.875                    21693786.363
 11  8  2 14 48 30.0000000  0  8G06G03G31G20G16G32G13G23
 123606582.541 7  96316855.32344  23521550.102                    23521559.660
 123769408.280 6  96443747.60044  23552536.023                    23552545.266
 123811972.610 7  96476892.594 6  23560636.039                    23560642.988
 110313070.280 7  85958265.07146  20991881.055                    20991887.672
 106554194.423 8  83029268.38146  20276588.719                    20276594.926
 111412970.297 7  86815293.48046  21201177.719                    21201185.645
 124624867.446 6  97110316.47643  23715323.156                    23715332.063
 113930109.105 8  88776731.01945  21680179.813                    21680184.621
 11  8  2 14 49  0.0000000  0  8G06G03G31G20G16G32G13G23
 123535661.168 7  96261591.95143  23508053.898                    23508062.258
 123678400.306 6  96372832.40443  23535217.453                    23535227.461
 123881884.083 7  96531369.038 6  23573939.953                    23573946.930
 110328361.688 8  85970180.43346  20994790.570                    20994797.574
 106532081.318 8  83012037.37846  20272380.883                    20272387.383
 111460984.820 8  86852707.36046  21210314.484                    21210321.930
 124538887.086 6  97043318.81643  23698961.922                    23698970.285
 113858753.829 8  88721129.50045  21666601.000                    21666606.598
 11  8  2 14 49 30.0000000  0  8G06G03G31G20G16G32G13G23
 123464867.527 7  96206428.09443  23494582.383                    23494590.555
 123587401.277 6  96301924.09843  23517900.508                    23517910.023
 123951752.044 7  96585811.561 6  23587234.461                    23587242.727
 110344219.441 8  85982537.08946  20997808.328                    20997815.195
 106510578.016 8  82995281.55246  20268288.961                    20268295.465
 111509455.701 8  86890476.83746  21219538.148                    21219545.906
 124452871.966 7  96976294.09043  23682593.438                    23682602.883
 113787519.771 8  88665622.44645  21653046.031                    21653050.961
 11  8  2 14 50  0.0000000  0  8G06G03G31G20G16G32G13G23
 123394204.785 6  96151366.27943  23481135.719                    23481144.332
 123496414.458 7  96231025.33844  23500586.922                    23500596.441
 124021575.785 6  96640219.626 6  23600521.875                    23600530.203
 110360642.675 8  85995334.38846  21000933.633                    21000940.676
 106489685.065 8  82979001.32246  20264313.156                    20264319.453
 111558381.691 8  86928600.94946  21228848.375                    21228856.332
 124366823.343 7  96909243.25043  23666219.289                    23666227.457
 113716408.677 8  88610211.20145  21639513.461                    21639518.590
 11  8  2 14 50 30.0000000  0  8G06G03G31G20G16G32G13G23
 123323676.035 6  96096408.94944  23467714.109                    23467724.082
 123405442.972 6  96160138.50144  23483275.602                    23483284.598
 124091355.268 7  96694593.194 6  23613800.719                    23613808.840
 110377630.914 7  86008571.94346  21004166.195                    21004173.438
 106469403.072 8  82963197.16846  20260453.695                    20260460.223
 111607761.292 8  86967078.52346  21238245.008                    21238252.996
 124280742.243 7  96842167.09243  23649838.188                    23649847.051
 113645422.746 8  88554897.49745  21626005.367                    21626010.488
 11  8  2 14 51  0.0000000  0  8G06G03G31G20G16G32G13G23
 123253284.269 6  96041558.37544  23454319.008                    23454328.844
 123314489.579 6  96089265.82243  23465966.852                    23465977.180
 124161089.979 7  96748931.899 6  23627070.672                    23627078.195
 110395182.799 8  86022248.70946  21007506.461                    21007513.219
 106449731.901 8  82947868.98846  20256710.578                    20256716.723
 111657592.779 8  87005908.21146  21247727.828                    21247735.492
 124194629.802 6  96775066.55743  23633452.172                    23633460.305
 113574563.615 8  88499682.60545  21612521.344                    21612526.688
 11  8  2 14 51 30.0000000  0  8G06G03G31G20G16G32G13G23
 123183032.469 6  95986816.82044  23440949.828                    23440959.852
 123223557.416 7  96018409.63443  23448664.117                    23448672.930
 124230779.296 7  96803235.240 6  23640332.445                    23640339.859
 110413297.560 7  86036364.07746  21010953.359                    21010960.086
 106430671.866 8  82933017.01346  20253083.344                    20253089.496
 111707874.654 8  87045088.85346  21257296.328                    21257303.648
 124108487.018 6  96707942.34943  23617058.719                    23617068.191
 113503833.393 8  88444568.14845  21599061.930                    21599067.145
 11  8  2 14 52  0.0000000  0  8G06G03G31G20G16G32G13G23
 123112923.506 6  95932186.44843  23427608.781                    23427617.488
 123132649.484 7  95947572.32043  23431365.453                    23431373.461
 124300422.875 7  96857502.926 6  23653585.508                    23653592.727
 110431974.239 8  86050917.30446  21014507.391                    21014514.340
 106412223.349 8  82918641.54346  20249572.984                    20249579.160
 111758605.341 8  87084619.21946  21266949.898                    21266957.719
 124022315.074 6  96640795.42143  23600660.859                    23600669.566
 113433234.067 8  88389555.69345  21585627.250                    21585632.637
 11  8  2 14 52 30.0000000  0  8G06G03G31G20G16G32G13G23
 123042960.384 6  95877669.75943  23414295.180                    23414304.633
 123041768.728 7  95876756.17443  23414070.227                    23414079.711
 124370019.961 6  96911734.363 7  23666828.852                    23666836.734
 110451211.929 8  86065907.68546  21018168.414                    21018175.449
 106394386.267 8  82904742.50846  20246178.516                    20246184.391
 111809783.079 7  87124497.93846  21276688.898                    21276696.387
 123936115.079 7  96573626.69643  23584258.500                    23584266.297
 113362767.418 8  88334646.63045  21572217.656                    21572223.223
 11  8  2 14 53  0.0000000  0  8G06G03G31G20G16G32G13G23
 122973146.330 6  95823269.28444  23401010.297                    23401020.305
 122950918.291 7  95805963.67244  23396782.313                    23396791.953
 124439570.470 6  96965929.507 6  23680064.063                    23680071.496
 110471009.768 8  86081334.53646  21021935.891                    21021942.547
 106377161.371 8  82891320.51046  20242900.820                    20242907.320
 111861406.216 8  87164723.71246  21286512.305                    21286519.875
 123849888.558 6  96506437.24044  23567849.070                    23567858.250
 113292435.559 8  88279842.58845  21558834.156                    21558839.688
 11  8  2 14 53 30.0000000  0  8G06G03G31G20G16G32G13G23
 122903483.895 7  95768986.98544  23387753.078                    23387763.551
 122860101.139 7  95735197.10944  23379500.469                    23379510.203
 124509074.089 7  97020088.117 6  23693290.367                    23693297.848
 110491366.502 8  86097196.90646  21025809.711                    21025816.707
 106360548.372 8  82878375.31646  20239739.273                    20239745.578
 111913473.142 8  87205295.31446  21296420.383                    21296427.922
 123763636.548 7  96439227.91544  23551436.648                    23551444.383
 113222240.093 8  88225144.82645  21545476.391                    21545481.668
 11  8  2 14 54  0.0000000  0  8G06G03G31G20G16G32G13G23
 122833976.376 7  95714825.30144  23374527.281                    23374536.750
 122769320.297 6  95664458.82143  23362225.344                    23362233.852
 124578530.084 6  97074209.616 6  23706507.211                    23706514.820
 110512280.944 8  86113493.83946  21029789.734                    21029796.461
 106344547.464 8  82865907.07246  20236694.539                    20236700.648
 111965982.090 8  87246211.33446  21306412.586                    21306420.574
 123677359.776 7  96371999.34043  23535017.992                    23535027.004
 113152183.124 8  88170554.98845  21532144.898                    21532150.125
 11  8  2 14 54 30.0000000  0  8G06G03G31G20G16G32G13G23
 122764626.847 6  95660786.68743  23361329.992                    23361338.746
 122678578.916 6  95593751.29443  23344957.055                    23344966.387
 124647938.137 7  97128293.767 6  23719716.094                    23719722.043
 110533752.429 8  86130224.83446  21033875.258                    21033882.598
 106329158.720 8  82853915.84346  20233766.094                    20233772.566
 112018931.466 7  87287470.54346  21316488.547                    21316496.191
 123591059.586 7  96304752.47843  23518595.633                    23518604.047
 113082266.560 8  88116074.55946  21518840.117                    21518845.406
 11  8  2 14 55  0.0000000  0  8G06G03G31G20G16G32G13G23
 122695438.186 6  95606873.52243  23348162.766                    23348172.621
 122587880.254 7  95523077.07844  23327698.398                    23327707.125
 124717298.070 7  97182340.419 6  23732914.641                    23732921.285
 110555779.784 7  86147388.97946  21038067.273                    21038074.242
 106314382.536 8  82842401.92446  20230954.469                    20230960.957
 112072319.609 8  87329071.65446  21326647.953                    21326655.738
 123504737.505 7  96237488.55443  23502169.023                    23502177.617
 113012492.644 8  88061705.28846  21505562.750                    21505568.246
 11  8  2 14 55 30.0000000  0  8G06G03G31G20G16G32G13G23
 122626413.512 7  95553088.11644  23335029.625                    23335037.629
 122497227.376 7  95452438.53144  23310448.164                    23310457.195
 124786609.471 7  97236349.254 6  23746104.016                    23746111.746
 110578361.819 8  86164985.33246  21042364.375                    21042371.207
 106300218.788 8  82831365.23546  20228259.320                    20228265.289
 112126144.878 8  87371013.38246  21336890.578                    21336898.820
 123418394.623 7  96170208.41943  23485738.992                    23485746.723
 112942862.926 8  88007448.36746  21492312.664                    21492317.672
 11  8  2 14 56  0.0000000  0  8G06G03G31G20G16G32G13G23
 122557555.532 7  95499432.56544  23321926.359                    23321934.941
 122406623.329 6  95381838.05143  23293206.258                    23293214.910
 124855871.761 7  97290319.831 6  23759283.875                    23759291.258
 110601497.211 8  86183012.87846  21046766.969                    21046773.824
 106286667.245 8  82820805.60046  20225680.289                    20225686.922
 112180405.271 8  87413294.15746  21347215.852                    21347224.082
 123332032.031 7  96102912.92043  23469303.922                    23469312.051
 112873379.598 8  87953305.52045  21479090.359                    21479095.898
 11  8  2 14 56 30.0000000  0  8G06G03G31G20G16G32G13G23
 122488867.605 6  95445909.54744  23308854.594                    23308864.086
 122316071.199 7  95311277.99443  23275974.172                    23275983.273
 124925084.765 7  97344252.002 6  23772454.383                    23772462.191
 110625185.046 8  86201470.88746  21051274.391                    21051281.230
 106273728.323 8  82810723.31446  20223217.969                    20223224.375
 112235099.365 8  87455912.89846  21357623.766                    21357631.582
 123245651.295 6  96035603.26843  23452867.281                    23452874.855
 112804044.880 8  87899278.49046  21465896.578                    21465901.813
 11  8  2 14 57  0.0000000  0  8G06G03G31G20G16G32G13G23
 122420352.530 6  95392521.21844  23295815.891                    23295826.520
 122225573.975 7  95240760.72344  23258754.344                    23258762.445
 124994248.509 7  97398145.744 6  23785616.133                    23785624.004
 110649424.221 8  86220358.52246  21055887.242                    21055893.926
 106261401.664 8  82801118.10746  20220872.234                    20220878.758
 112290225.145 8  87498867.99646  21368114.102                    21368122.195
 123159253.293 6  95968280.18043  23436425.891                    23436433.559
 112734860.422 8  87845368.53445  21452730.898                    21452736.332
 11  8  2 14 57 30.0000000  0  8G06G03G31G20G16G32G13G23
 122352013.539 6  95339270.09644  23282811.320                    23282821.930
 122135134.852 7  95170288.76844  23241543.063                    23241552.844
 125063362.291 7  97452000.586 6  23798767.742                    23798775.641
 110674213.286 8  86239674.64046  21060604.258                    21060611.539
 106249687.392 8  82791990.09646  20218643.000                    20218649.723
 112345781.091 8  87542158.30246  21378685.789                    21378693.914
 123072839.586 6  95900944.88543  23419982.039                    23419989.844
 112665828.753 8  87791577.63346  21439594.609                    21439599.930
 11  8  2 14 58  0.0000000  0  8G06G03G31G20G16G32G13G23
 122283853.231 6  95286158.21544  23269842.109                    23269851.141
 122044757.008 7  95099864.52944  23224345.063                    23224354.641
 125132425.630 7  97505816.113 6  23811910.492                    23811918.082
 110699551.040 8  86259418.30846  21065425.867                    21065433.254
 106238585.109 8  82783338.95846  20216530.352                    20216537.230
 112401764.841 8  87585781.96145  21389339.430                    21389347.332
 122986411.294 7  95833598.19443  23403534.922                    23403542.785
 112596951.297 8  87737906.88846  21426487.750                    21426492.680
 11  8  2 14 58 30.0000000  0  8G06G03G31G20G16G32G13G23
 122215875.652 6  95233188.70044  23256905.695                    23256915.012
 121954444.050 6  95029490.85844  23207159.141                    23207167.656
 125201438.959 7  97559592.675 6  23825043.438                    23825051.070
 110725436.945 8  86279589.10846  21070351.648                    21070359.039
 106228095.840 7  82775165.48746  20214534.367                    20214541.000
 112458175.767 8  87629738.48546  21400074.039                    21400081.613
 122899970.071 6  95766241.44143  23387085.930                    23387093.473
 112528230.948 8  87684358.58146  21413410.602                    21413416.066
 11  8  2 14 59  0.0000000  0  8G06G03G31G20G16G32G13G23
 122148082.797 6  95180363.11944  23244005.984                    23244014.629
 121864198.661 7  94959169.86344  23189985.516                    23189995.207
 125270401.295 7  97613329.536 6  23838166.836                    23838173.965
 110751869.121 8  86300185.57746  21075381.992                    21075389.000
 106218218.500 7  82767468.84346  20212655.172                    20212661.652
 112515011.004 8  87674025.63146  21410889.688                    21410897.824
 122813516.923 6  95698875.39644  23370633.883                    23370642.297
 112459669.098 8  87630933.76345  21400363.961                    21400369.336
 11  8  2 14 59 30.0000000  0  8G06G03G31G20G16G32G13G23
 122080477.885 6  95127684.06044  23231140.102                    23231150.031
 121774023.785 6  94888903.81144  23172826.320                    23172835.836
 125339312.633 7  97667026.633 6  23851280.211                    23851288.527
 110778846.234 7  86321206.66046  21080515.945                    21080522.328
 106208952.994 7  82760248.95846  20210891.734                    20210898.188
 112572269.034 8  87718642.23346  21421785.555                    21421793.371
 122727053.161 7  95631501.08343  23354180.148                    23354188.719
 112391267.812 8  87577634.07845  21387347.586                    21387352.938
 11  8  2 15  0  0.0000000  0  8G06G03G31G20G16G32G13G23
 122013063.927 6  95075153.80544  23218311.875                    23218321.746
 121683922.673 6  94818695.21344  23155680.672                    23155689.805
 125408172.634 7  97720683.713 6  23864384.000                    23864391.203
 110806367.334 8  86342651.64546  21085752.422                    21085759.336
 106200299.261 8  82753505.78046  20209245.109                    20209251.543
 112629947.796 8  87763586.68546  21432761.383                    21432769.445
 122640580.099 7  95564119.53644  23337725.242                    23337733.227
 112323029.115 8  87524461.08346  21374362.391                    21374366.984
 11  8  2 15  0 30.0000000  0  8G06G03G31G20G16G32G13G23
 121945843.879 6  95022774.62444  23205520.867                    23205529.836
 121593898.702 7  94748546.70244  23138549.570                    23138558.320
 125476980.675 7  97774300.346 6  23877477.875                    23877484.703
 110834430.657 8  86364519.13546  21091092.820                    21091100.098
 106192256.654 8  82747238.79646  20207714.688                    20207721.277
 112688045.593 8  87808857.64146  21443817.164                    21443825.023
 122554098.786 7  95496731.54343  23321268.438                    23321276.520
 112254954.967 8  87471416.29845  21361408.258                    21361412.875
 11  8  2 15  1  0.0000000  0  8G06G03G31G20G16G32G13G23
 121878820.859 7  94970548.92143  23192766.609                    23192775.047
 121503954.799 6  94678460.59744  23121433.648                    23121442.531
 125545736.751 7  97827876.475 6  23890561.016                    23890568.633
 110863034.948 8  86386808.16546  21096536.219                    21096543.297
 106184825.267 8  82741448.09746  20206300.188                    20206306.699
 112746560.240 8  87854453.42246  21454952.086                    21454960.277
 122467610.493 6  95429338.11543  23304809.813                    23304818.469
 112187047.647 8  87418501.52446  21348485.766                    21348491.176
 11  8  2 15  1 30.0000000  0  8G06G03G31G20G16G32G13G23
 121811997.591 6  94918478.90843  23180049.938                    23180057.582
 121414094.045 7  94608439.30144  23104333.305                    23104343.133
 125614440.633 7  97881411.902 6  23903634.805                    23903642.727
 110892178.564 8  86409517.44146  21102082.133                    21102089.238
 106178004.501 7  82736133.20646  20205002.844                    20205009.008
 112805489.994 8  87900372.65746  21466166.133                    21466174.004
 122381117.099 7  95361940.71143  23288351.008                    23288359.031
 112119308.826 8  87365718.03645  21335595.609                    21335600.703
 11  8  2 15  2  0.0000000  0  8G06G03G31G20G16G32G13G23
 121745377.304 6  94866567.09444  23167372.672                    23167381.500
 121324319.884 7  94538485.45744  23087250.242                    23087259.645
 125683091.990 7  97934906.422 6  23916698.461                    23916706.609
 110921860.434 8  86432646.15146  21107730.352                    21107737.773
 106171794.521 7  82731294.25346  20203821.047                    20203827.293
 112864833.184 8  87946614.05346  21477458.672                    21477466.852
 122294619.706 7  95294540.15143  23271891.258                    23271898.898
 112051741.256 8  87313067.99846  21322737.688                    21322742.887
 11  8  2 15  2 30.0000000  0  8G06G03G31G20G16G32G13G23
 121678963.106 6  94814815.82844  23154735.344                    23154744.148
 121234635.415 7  94468601.47544  23070183.313                    23070192.035
 125751690.626 7  97988359.845 6  23929753.078                    23929760.426
 110952078.874 8  86456192.96446  21113481.133                    21113488.258
 106166194.722 7  82726930.77346  20202755.375                    20202761.902
 112924587.602 7  87993175.88745  21488829.750                    21488837.770
 122208119.731 6  95227137.62243  23255430.477                    23255439.059
 111984346.550 8  87260552.65846  21309913.000                    21309918.016
 11  8  2 15  3  0.0000000  0  8G06G03G31G20G16G32G13G23
 121612757.667 6  94763227.24844  23142135.773                    23142144.789
 121145043.702 7  94398789.80944  23053134.883                    23053143.609
 125820236.321 7  98041772.092 6  23942796.906                    23942803.766
 110982832.864 8  86480157.08746  21119332.969                    21119340.258
 106161205.003 7  82723042.67346  20201805.602                    20201812.371
 112984751.321 8  88040056.66245  21500278.188                    21500286.340
 122121618.690 6  95159734.21243  23238970.320                    23238977.762
 111917127.025 8  87208173.81846  21297121.172                    21297126.988
 11  8  2 15  3 30.0000000  0  8G06G03G31G20G16G32G13G23
 121546764.013 6  94711803.69244  23129577.508                    23129585.938
 121055548.151 7  94329053.07044  23036104.758                    23036114.016
 125888728.863 7  98095142.837 6  23955831.086                    23955838.563
 111014120.567 8  86504537.08446  21125287.078                    21125294.359
 106156824.635 7  82719629.40346  20200971.609                    20200978.441
 113045322.403 8  88087254.85146  21511804.953                    21511813.070
 122035117.699 6  95092330.90443  23222509.203                    23222517.160
 111850084.606 8  87155932.98046  21284363.820                    21284368.980
 11  8  2 15  4  0.0000000  0  8G06G03G31G20G16G32G13G23
 121480985.443 6  94660547.69143  23117060.336                    23117068.086
 120966151.790 6  94259393.61344  23019092.773                    23019101.887
 125957168.316 7  98148472.242 6  23968854.148                    23968861.672
 111045940.817 7  86529332.05746  21131342.211                    21131349.375
 106153053.629 8  82716690.96146  20200254.492                    20200260.766
 113106299.078 7  88134769.10446  21523408.211                    21523416.242
 121948618.525 6  95024928.97243  23206048.875                    23206057.715
 111783221.839 8  87103832.12846  21271640.164                    21271645.422
 11  8  2 15  4 30.0000000  0  8G06G03G31G20G16G32G13G23
 121415424.692 6  94609461.44344  23104584.172                    23104593.602
 120876857.851 7  94189813.95744  23002100.469                    23002109.152
 126025554.009 7  98201759.787 6  23981866.844                    23981875.082
 111078291.467 8  86554540.33346  21137498.242                    21137505.414
 106149890.956 8  82714226.54346  20199652.656                    20199659.457
 113167679.021 8  88182597.58746  21535088.102                    21535096.590
 121862122.087 7  94957529.19644  23189589.172                    23189597.680
 111716540.488 8  87051872.64846  21258950.953                    21258956.078
 11  8  2 15  5  0.0000000  0  8G06G03G31G20G16G32G13G23
 121350084.687 7  94558547.20344  23092151.523                    23092160.688
 120787669.350 7  94120316.48444  22985128.594                    22985137.723
 126093885.870 7  98255005.326 6  23994871.133                    23994878.156
 111111171.680 7  86580161.24246  21143755.086                    21143762.559
 106147336.397 7  82712235.98146  20199166.734                    20199172.941
 113229460.394 7  88230738.86946  21546844.883                    21546853.609
 121775630.303 7  94890133.03744  23173130.273                    23173139.125
 111650042.522 8  87000056.06046  21246297.000                    21246302.496
 11  8  2 15  5 30.0000000  0  8G06G03G31G20G16G32G13G23
 121284968.750 7  94507807.57944  23079759.563                    23079768.969
 120698589.979 6  94050904.08344  22968176.758                    22968186.637
 126162163.875 7  98308208.946 6  24007864.305                    24007871.184
 111144579.634 7  86606193.38746  21150112.578                    21150120.012
 106145389.830 7  82710719.17846  20198796.578                    20198802.785
 113291641.325 7  88279191.48745  21558677.828                    21558686.117
 121689144.492 7  94822741.53044  23156672.539                    23156681.289
 111583730.222 8  86948384.14146  21233678.289                    21233683.145
 11  8  2 15  6  0.0000000  0  8G06G03G31G20G16G32G13G23
 121220079.534 6  94457244.63344  23067411.117                    23067421.020
 120609622.884 6  93981579.12744  22951247.133                    22951256.184
 126230387.730 7  98361370.376 6  24020845.906                    24020853.840
 111178513.498 7  86632635.33146  21156570.008                    21156576.914
 106144050.356 7  82709675.43446  20198541.633                    20198547.832
 113354219.583 7  88327953.71345  21570586.289                    21570594.246
 121602665.931 7  94755355.67344  23140216.813                    23140224.766
 111517605.718 8  86896858.57146  21221095.055                    21221100.238
 11  8  2 15  6 30.0000000  0  8G06G03G31G20G16G32G13G23
 121155420.168 7  94406860.75443  23055107.320                    23055115.281
 120520771.308 6  93912344.21044  22934338.711                    22934348.137
 126298557.460 6  98414489.597 6  24033818.922                    24033826.414
 111212972.192 8  86659486.22546  21163126.953                    21163134.504
 106143318.009 8  82709104.77146  20198401.891                    20198408.383
 113417193.354 7  88377024.13045  21582569.500                    21582578.305
 121516196.357 7  94687976.82544  23123761.969                    23123769.855
 111451671.594 8  86845481.33746  21208548.508                    21208553.469
 11  8  2 15  7  0.0000000  0  8G06G03G31G20G16G32G13G23
 121090993.493 7  94356658.15544  23042847.531                    23042854.316
 120432037.755 6  93843201.26744  22917453.992                    22917463.098
 126366673.016 6  98467566.576 6  24046779.656                    24046788.266
 111247953.597 8  86686744.42646  21169784.141                    21169791.293
 106143191.240 8  82709005.98946  20198378.055                    20198384.031
 113480560.338 7  88426400.95045  21594628.281                    21594636.484
 121429736.833 7  94620605.81844  23107308.555                    23107317.203
 111385929.519 8  86794253.76146  21196038.055                    21196043.574
 11  8  2 15  7 30.0000000  0  8G06G03G31G20G16G32G13G23
 121026802.261 7  94306639.01944  23030632.273                    23030641.043
 120343426.544 7  93774153.64444  22900592.039                    22900600.785
 126434733.648 6  98520600.767 6  24059732.461                    24059740.000
 111283456.157 8  86714408.72246  21176540.031                    21176546.781
 106143669.667 8  82709378.78646  20198468.680                    20198475.520
 113544318.286 7  88476082.40745  21606760.766                    21606769.164
 121343289.094 7  94553243.99444  23090858.898                    23090866.832
 111320381.690 8  86743177.53146  21183564.719                    21183569.652
 11  8  2 15  8  0.0000000  0  8G06G03G31G20G16G32G13G23
 120962850.011 7  94256806.14244  23018462.727                    23018472.086
 120254940.300 6  93705203.39044  22883753.555                    22883762.648
 126502739.482 7  98573592.256 6  24072673.336                    24072680.789
 111319478.569 7  86742478.09246  21183395.063                    21183401.852
 106144753.079 7  82710222.99146  20198674.766                    20198681.715
 113608465.382 7  88526067.10445  21618967.672                    21618975.719
 121256854.649 6  94485892.51944  23074410.047                    23074418.695
 111255030.232 8  86692254.32446  21171128.625                    21171133.918
 11  8  2 15  8 30.0000000  0  8G06G03G31G20G16G32G13G23
 120899139.424 6  94207161.59344  23006337.922                    23006347.758
 120166582.269 7  93636353.05044  22866939.016                    22866948.371
 126570690.563 7  98626541.138 6  24085604.164                    24085611.586
 111356018.807 7  86770950.96646  21190348.141                    21190355.758
 106146440.800 7  82711538.09646  20198995.859                    20199002.660
 113672999.790 7  88576353.60145  21631248.203                    21631256.445
 121170435.155 6  94418552.70944  23057965.648                    23057973.953
 111189877.685 8  86641486.10646  21158730.586                    21158735.797
 11  8  2 15  9  0.0000000  0  8G06G03G31G20G16G32G13G23
 120835673.687 6  94157707.81344  22994261.539                    22994270.617
 120078355.811 7  93567605.24944  22850150.195                    22850159.426
 126638586.721 7  98679447.226 6  24098524.414                    24098531.832
 111393075.176 8  86799826.01746  21197399.867                    21197407.203
 106148732.335 8  82713323.70146  20199432.211                    20199438.648
 113737919.008 7  88626939.95745  21643601.945                    21643610.242
 121084032.101 6  94351225.71043  23041523.094                    23041531.328
 111124925.881 8  86590874.30846  21146370.773                    21146375.598
 11  8  2 15  9 30.0000000  0  8G06G03G31G20G16G32G13G23
 120772455.279 7  94108446.69344  22982231.648                    22982239.078
 119990263.866 7  93498962.21944  22833386.766                    22833395.863
 126706427.746 6  98732310.353 6  24111433.930                    24111441.883
 111430646.033 8  86829101.97046  21204549.258                    21204556.508
 106151625.991 7  82715578.48646  20199982.992                    20199989.488
 113803220.905 7  88677824.49845  21656028.375                    21656036.660
 120997646.565 6  94283912.34843  23025084.492                    23025092.723
 111060176.559 8  86540420.30246  21134049.219                    21134054.602
 11  8  2 15 10  0.0000000  0  8G06G03G31G20G16G32G13G23
 120709487.163 7  94059380.62744  22970248.938                    22970256.887
 119902309.604 7  93430426.49244  22816649.586                    22816658.691
 126774213.425 6  98785130.281 6  24124332.773                    24124340.898
 111468729.439 8  86858777.31646  21211796.523                    21211803.855
 106155121.156 7  82718301.98546  20200648.328                    20200654.598
 113868903.148 7  88729005.41845  21668527.773                    21668535.762
 120911280.317 6  94216614.00443  23008649.945                    23008657.523
 110995632.597 8  86490126.30946  21121766.906                    21121772.137
 11  8  2 15 10 30.0000000  0  8G06G03G31G20G16G32G13G23
 120646772.815 6  94010512.37044  22958314.750                    22958324.469
 119814496.584 6  93362000.81344  22799939.578                    22799948.336
 126841943.617 6  98837906.939 7  24137222.305                    24137230.348
 111507323.723 7  86888850.74246  21219140.773                    21219147.883
 106159218.101 7  82721494.40146  20201427.875                    20201434.305
 113934964.300 7  88780481.59545  21681099.078                    21681106.582
 120824935.273 7  94149332.19143  22992218.617                    22992225.922
 110931296.499 8  86439994.29446  21109524.063                    21109529.434
 11  8  2 15 11  0.0000000  0  8G06G03G31G20G16G32G13G23
 120584314.945 7  93961843.96544  22946428.891                    22946438.855
 119726828.353 7  93293687.98444  22783256.945                    22783265.309
 126909618.595 7  98890640.615 7  24150100.867                    24150108.406
 111546427.518 8  86919321.19746  21226582.008                    21226589.316
 106163915.807 8  82725154.95046  20202321.734                    20202328.074
 114001401.961 7  88832251.14045  21693741.063                    21693749.414
 120738612.710 7  94082067.84944  22975792.328                    22975799.438
 110867170.065 8  86390025.64546  21097321.359                    21097326.344
 11  8  2 15 11 30.0000000  0  8G06G03G31G20G16G32G13G23
 120522116.010 7  93913377.28144  22934593.727                    22934602.590
 119639307.468 7  93225489.91944  22766602.266                    22766610.430
 126977237.875 7  98943330.893 6  24162968.086                    24162975.863
 111586038.290 8  86950186.69246  21234119.711                    21234127.184
 106169212.788 8  82729282.46746  20203329.391                    20203336.023
 114068213.353 8  88884311.91645  21706455.156                    21706463.391
 120652314.281 7  94014822.32244  22959370.695                    22959377.305
 110803255.230 8  86340221.88946  21085158.703                    21085163.777
 11  8  2 15 12  0.0000000  0  8G06G03G31G20G16G32G13G23
 120460179.520 6  93865115.07344  22922807.141                    22922814.965
 119551937.313 7  93157409.34644  22749975.766                    22749984.691
 127044801.682 7  98995977.957 6  24175824.797                    24175832.633
 111626154.392 8  86981445.94646  21241753.586                    21241760.809
 106175108.743 8  82733876.71146  20204451.305                    20204458.273
 114135396.662 7  88936662.49645  21719239.797                    21719248.113
 120566041.495 7  93947596.79844  22942953.328                    22942960.313
 110739554.214 8  86290584.74446  21073037.008                    21073041.883
 11  8  2 15 12 30.0000000  0  8G06G03G31G20G16G32G13G23
 120398508.369 6  93817059.62844  22911071.313                    22911079.070
 119464722.100 6  93089449.49644  22733378.992                    22733388.430
 127112310.084 6  99048581.904 6  24188671.250                    24188679.465
 111666774.319 8  87013097.80446  21249483.305                    21249490.391
 106181603.430 8  82738937.50146  20205687.672                    20205693.934
 114202950.238 7  88989301.59245  21732094.477                    21732102.645
 120479796.263 7  93880392.74244  22926541.148                    22926548.738
 110676069.992 8  86241116.52446  21060956.063                    21060961.293
 11  8  2 15 13  0.0000000  0  8G06G03G31G20G16G32G13G23
 120337105.147 6  93769213.00744  22899386.492                    22899395.953
 119377664.370 7  93021612.33544  22716812.641                    22716821.293
 127179762.562 6  99101142.187 5  24201505.359                    24201514.340
 111707895.859 8  87045140.51646  21257308.805                    21257315.543
 106188694.441 8  82744462.95646  20207037.008                    20207043.254
 114270870.946 8  89042226.77245  21745019.563                    21745027.859
 120393579.758 7  93813211.08244  22910135.266                    22910142.813
 110612803.814 8  86191818.21146  21048916.789                    21048921.984
 11  8  2 15 13 30.0000000  0  8G06G03G31G20G16G32G13G23
 120275972.872 7  93721577.48444  22887753.750                    22887763.434
 119290767.501 7  92953900.52744  22700277.094                    22700285.957
 127247159.301 7  99153659.040 6  24214333.352                    24214340.191
 111749517.266 8  87077572.75546  21265228.617                    21265236.109
 106196381.513 8  82750452.86446  20208499.625                    20208505.887
 114339157.187 8  89095436.77745  21758014.172                    21758022.242
 120307393.725 7  93746053.16244  22893734.445                    22893741.613
 110549758.508 8  86142692.01246  21036919.922                    21036925.320
 11  8  2 15 14  0.0000000  0  8G06G03G31G20G16G32G13G23
 120215114.454 7  93674155.40444  22876173.180                    22876182.461
 119204034.329 7  92886316.26344  22683772.320                    22683780.535
 127314499.770 7  99206132.126 6  24227147.328                    24227154.266
 111791636.191 8  87110392.65146  21273243.922                    21273251.039
 106204663.289 8  82756906.19046  20210075.734                    20210081.945
 114407806.095 8  89148929.37545  21771077.477                    21771085.445
 120221239.630 7  93678920.15344  22877339.102                    22877347.332
 110486935.579 8  86093739.09246  21024965.117                    21024970.105
 11  8  2 15 14 30.0000000  0  8G06G03G31G20G16G32G13G23
 120154532.810 7  93626948.95844  22864644.320                    22864653.438
 119117468.669 7  92818862.52444  22667298.969                    22667307.785
 127381784.617 7  99258561.824 7  24239950.711                    24239958.707
 111834251.360 8  87143599.23346  21281353.281                    21281360.664
 106213539.636 8  82763822.81346  20211764.586                    20211771.191
 114476816.067 8  89202703.32645  21784210.195                    21784218.094
 120135119.315 7  93611813.45744  22860951.078                    22860959.281
 110424337.925 8  86044961.71246  21013052.898                    21013058.168
 11  8  2 15 15  0.0000000  0  8G06G03G31G20G16G32G13G23
 120094230.824 6  93579960.45244  22853168.859                    22853177.629
 119031073.710 7  92751541.80544  22650858.336                    22650867.109
 127449013.397 7  99310947.809 6  24252744.305                    24252752.344
 111877360.487 8  87177190.71546  21289556.977                    21289563.902
 106223009.127 8  82771201.62446  20213566.875                    20213573.297
 114546184.665 7  89256756.72845  21797410.563                    21797418.715
 120049034.416 7  93544734.36144  22844569.203                    22844577.969
 110361967.693 8  85996361.54646  21001184.594                    21001189.563
 11  8  2 15 15 30.0000000  0  8G06G03G31G20G16G32G13G23
 120034211.640 6  93533192.28144  22841747.742                    22841755.828
 118944852.764 7  92684356.65244  22634450.555                    22634460.160
 127516186.380 7  99363290.314 7  24265526.906                    24265535.340
 111920961.806 8  87211165.73846  21297853.906                    21297861.164
 106233070.868 8  82779041.93646  20215481.594                    20215487.949
 114615909.721 7  89311087.88945  21810678.617                    21810686.895
 119962986.634 7  93477684.20844  22828195.047                    22828203.566
 110299827.677 8  85947940.76346  20989359.609                    20989364.926
 11  8  2 15 16  0.0000000  0  8G06G03G31G20G16G32G13G23
 119974478.093 6  93486646.68144  22830381.094                    22830390.105
 118858809.189 7  92617309.75044  22618077.156                    22618086.770
 127583303.704 6  99415589.414 6  24278297.922                    24278307.785
 111965053.429 8  87245522.80546  21306244.078                    21306251.430
 106243724.044 8  82787343.10946  20217508.945                    20217515.266
 114685988.986 7  89365695.04945  21824014.633                    21824022.965
 119876977.740 7  93410664.33744  22811827.969                    22811836.281
 110237919.681 8  85899700.78246  20977578.781                    20977583.926
 11  8  2 15 16 30.0000000  0  8G06G03G31G20G16G32G13G23
 119915032.909 7  93440325.79144  22819069.141                    22819078.266
 118772946.212 7  92550403.54144  22601738.828                    22601747.230
 127650365.375 6  99467845.143 6  24291059.383                    24291067.977
 112009633.125 8  87280260.18646  21314727.555                    21314734.738
 106254967.400 8  82796104.16446  20219648.141                    20219654.320
 114756420.178 8  89420576.44745  21837417.078                    21837425.008
 119791009.502 7  93343676.13244  22795469.391                    22795477.082
 110176245.683 8  85851643.12646  20965842.648                    20965847.973
 11  8  2 15 17  0.0000000  0  8G06G03G31G20G16G32G13G23
 119855878.986 7  93394231.86944  22807812.336                    22807821.656
 118687267.049 7  92483640.56945  22585434.961                    22585443.184
 127717371.161 6  99520057.323 5  24303810.977                    24303819.180
 112054699.082 8  87315376.47446  21323303.242                    21323310.711
 106266799.768 8  82805324.19546  20221899.797                    20221906.406
 114827200.716 8  89475730.05645  21850885.891                    21850894.211
 119705083.356 7  93276720.69944  22779118.281                    22779125.402
 110114807.890 8  85803769.53746  20954151.617                    20954156.637
 11  8  2 15 17 30.0000000  0  8G06G03G31G20G16G32G13G23
 119797019.047 7  93348367.01044  22796611.422                    22796620.715
 118601774.859 7  92417023.27944  22569166.273                    22569174.707
 127784320.970 7  99572226.167 5  24316551.078                    24316557.676
 112100249.016 8  87350869.89046  21331971.273                    21331978.324
 106279220.177 8  82815002.43846  20224263.539                    20224269.844
 114898328.453 8  89531154.21145  21864421.102                    21864429.508
 119619201.193 7  93209799.53844  22762774.938                    22762782.938
 110053609.037 8  85756082.12446  20942505.398                    20942510.727
 11  8  2 15 18  0.0000000  0  8G06G03G31G20G16G32G13G23
 119738456.020 7  93302733.51944  22785467.180                    22785475.883
 118516472.960 7  92350554.28144  22552933.227                    22552942.141
 127851214.533 7  99624351.015 5  24329281.070                    24329288.008
 112146280.473 8  87386738.51246  21340730.539                    21340737.820
 106292227.071 8  82825137.68246  20226738.328                    20226744.891
 114969801.025 7  89586847.05945  21878022.391                    21878030.406
 119533364.474 7  93142913.79544  22746441.070                    22746448.617
 109992650.925 8  85708582.29346  20930905.758                    20930911.074
 11  8  2 15 18 30.0000000  0  8G06G03G31G20G16G32G13G23
 119680192.833 7  93257333.60644  22774380.289                    22774388.359
 118431364.814 7  92284236.25144  22536737.734                    22536746.434
 127918052.123 7  99676432.200 6  24341999.516                    24342008.031
 112192791.834 8  87422981.08446  21349581.133                    21349588.363
 106305819.218 7  82835728.96446  20229325.406                    20229331.465
 115041615.745 8  89642806.52345  21891688.117                    21891696.496
 119447574.828 7  93076064.73844  22730115.445                    22730123.102
 109931935.964 8  85661271.93346  20919351.953                    20919356.883
 11  8  2 15 19  0.0000000  0  8G06G03G31G20G16G32G13G23
 119622232.196 7  93212169.45244  22763351.055                    22763359.340
 118346453.834 7  92218071.84844  22520579.828                    22520588.379
 127984833.937 7  99728469.895 6  24354707.914                    24354715.934
 112239780.913 8  87459595.91346  21358523.297                    21358530.594
 106319995.894 7  82846775.72846  20232022.672                    20232029.051
 115113770.850 8  89699031.22645  21905418.352                    21905426.938
 119361834.212 7  93009253.88944  22713799.703                    22713807.219
 109871466.707 8  85614153.03146  20907845.148                    20907850.152
 11  8  2 15 19 30.0000000  0  8G06G03G31G20G16G32G13G23
 119564576.943 7  93167243.30544  22752378.914                    22752387.965
 118261742.874 7  92152063.33644  22504459.664                    22504468.570
 128051559.799 6  99780463.987 6  24367405.617                    24367413.395
 112287245.764 8  87496581.47046  21367555.289                    21367562.730
 106334755.610 8  82858276.80146  20234831.711                    20234837.711
 115186263.853 7  89755519.21045  21919213.844                    21919221.934
 119276144.479 7  92942482.69344  22697493.500                    22697501.238
 109811245.105 8  85567227.11446  20896385.023                    20896390.262
 11  8  2 15 20  0.0000000  0  8G06G03G31G20G16G32G13G23
 119507229.963 6  93122557.40844  22741465.844                    22741475.555
 118177235.481 7  92086213.43544  22488378.805                    22488387.355
 128118229.883 6  99832414.606 6  24380091.484                    24380100.398
 112335183.885 8  87533935.81046  21376677.906                    21376685.109
 106350097.089 7  82870231.18846  20237750.703                    20237757.277
 115259092.124 7  89812268.45845  21933073.070                    21933081.051
 119190507.143 7  92875752.34644  22681197.094                    22681205.023
 109751273.421 8  85520495.94246  20884973.016                    20884978.180
 11  8  2 15 20 30.0000000  0  8G06G03G31G20G16G32G13G23
 119450194.106 7  93078113.87544  22730612.797                    22730622.328
 118092935.008 7  92020524.75245  22472336.852                    22472345.828
 128184844.438 6  99884321.951 6  24392767.828                    24392776.105
 112383593.485 8  87571657.52546  21385890.063                    21385896.863
 106366019.357 8  82882638.14346  20240780.898                    20240786.766
 115332253.566 8  89869277.31245  21946994.875                    21947002.914
 119104924.299 7  92809064.43744  22664911.539                    22664918.926
 109691554.052 8  85473961.37246  20873608.672                    20873614.082
 11  8  2 15 21  0.0000000  0  8G06G03G31G20G16G32G13G23
 119393472.474 7  93033915.20044  22719819.391                    22719827.859
 118008845.167 7  91955000.22044  22456334.914                    22456343.492
 128251403.514 6  99936186.061 6  24405433.094                    24405442.867
 112432472.424 8  87609744.97546  21395191.203                    21395198.859
 106382521.298 8  82895496.79046  20243921.000                    20243927.121
 115405745.949 7  89926544.04345  21960979.875                    21960988.156
 119019397.662 7  92742420.32844  22648636.281                    22648644.121
 109632089.744 8  85427625.54146  20862293.008                    20862298.629
 11  8  2 15 21 30.0000000  0  8G06G03G31G20G16G32G13G23
 119337067.730 7  92989963.46944  22709085.961                    22709093.941
 117924969.074 7  91889642.24644  22440373.461                    22440382.859
 128317906.806 6  99988006.708 6  24418089.063                    24418098.207
 112481818.397 8  87648196.33746  21404581.641                    21404589.023
 106399601.268 8  82908805.83646  20247170.961                    20247177.082
 115479566.704 7  89984066.65345  21975027.531                    21975036.008
 118933929.022 7  92675821.41244  22632372.586                    22632379.824
 109572882.567 8  85381490.07646  20851026.305                    20851031.699
 11  8  2 15 22  0.0000000  0  8G06G03G31G20G16G32G13G23
 119280982.381 7  92946260.60544  22698412.898                    22698422.281
 117841309.408 7  91824452.92245  22424453.719                    22424462.738
 128384354.621 6 100039784.153 6  24430733.625                    24430742.500
 112531628.915 7  87687009.68046  21414060.414                    21414067.668
 106417257.875 8  82922564.22246  20250531.172                    20250537.168
 115553713.343 7  90041843.19045  21989137.141                    21989145.582
 118848520.021 7  92609268.94644  22616119.594                    22616126.887
 109513934.462 8  85335556.49346  20839808.414                    20839813.996
 11  8  2 15 22 30.0000000  0  8G06G03G31G20G16G32G13G23
 119225219.253 7  92902808.85244  22687801.813                    22687811.352
 117757869.775 7  91759435.03545  22408575.766                    22408584.660
 128450747.010 6 100091518.429 6  24443367.617                    24443376.555
 112581902.074 8  87726183.53646  21423626.672                    21423634.145
 106435489.985 8  82936771.05946  20254000.734                    20254007.250
 115628183.473 8  90099871.80845  22003308.531                    22003317.266
 118763172.597 7  92542764.49644  22599878.563                    22599885.848
 109455247.856 8  85289826.66446  20828641.477                    20828646.578
 11  8  2 15 23  0.0000000  0  8G06G03G31G20G16G32G13G23
 119169780.913 7  92859610.17345  22677252.289                    22677261.098
 117674653.370 7  91694591.11245  22392740.359                    22392749.152
 128517084.006 6 100143209.497 6  24455991.211                    24456000.289
 112632635.204 8  87765715.80145  21433281.188                    21433288.496
 106454295.658 8  82951424.81946  20257579.180                    20257585.453
 115702974.498 8  90158150.45645  22017540.672                    22017549.699
 118677888.329 7  92476309.21744  22583649.320                    22583656.355
 109396824.915 8  85244302.29946  20817523.734                    20817529.180
 11  8  2 15 23 30.0000000  0  9G06G07G03G31G20G16G32G13G23
 119114670.659 7  92816667.12344  22666765.078                    22666773.934
 130400620.24516                  24814421.945
 117591663.860 7  91629923.97945  22376947.672                    22376956.797
 128583365.640 6 100194857.427 6  24468604.391                    24468612.781
 112683826.362 8  87805604.97946  21443022.594                    21443029.543
 106473674.021 8  82966524.83746  20261266.602                    20261273.082
 115778084.059 8  90216677.32645  22031833.805                    22031842.520
 118592669.263 7  92409904.74844  22567432.813                    22567439.750
 109338667.925 8  85198985.16546  20806456.945                    20806461.832
 11  8  2 15 24  0.0000000  0  9G06G07G03G31G20G16G32G13G23
 119059890.549 7  92773981.30944  22656340.383                    22656348.762
 130336395.757 6 101560879.73216  24802200.805                    24802210.504
 117508903.984 7  91565435.79545  22361199.570                    22361208.227
 128649591.609 6 100246462.009 6  24481207.172                    24481215.781
 112735473.022 7  87845849.09046  21452850.375                    21452858.090
 106493623.279 8  82982069.71046  20265063.063                    20265069.168
 115853509.613 7  90275450.42245  22046186.742                    22046195.734
 118507516.654 7  92343552.08244  22551228.438                    22551235.824
 109280779.143 8  85153877.02446  20795440.906                    20795446.156
 11  8  2 15 24 30.0000000  0 10G06G07G19G03G31G20G16G32G13G23
 119005442.804 7  92731554.49244  22645979.711                    22645988.004
 130272239.044 6 101510887.525 6  24789992.516                    24790001.996
 129178654.20916                  24581895.469
 117426376.560 7  91501128.74445  22345494.586                    22345503.738
 128715761.584 7 100298023.004 6  24493799.938                    24493807.141
 112787572.300 8  87886445.87645  21462765.070                    21462772.668
 106514141.207 8  82998057.69746  20268967.500                    20268973.980
 115929248.005 8  90334467.29145  22060599.734                    22060608.488
 118422432.136 7  92277252.47944  22535037.219                    22535044.996
 109223160.393 8  85108979.30146  20784476.453                    20784481.598
 11  8  2 15 25  0.0000000  0 10G06G07G19G03G31G20G16G32G13G23
 118951331.178 7  92689389.57944  22635682.523                    22635691.457
 130208150.939 6 101460948.735 6  24777796.977                    24777806.664
 129088233.714 6 100588328.80553  24564688.117                    24564697.668
 117344085.852 7  91437006.12545  22329835.563                    22329843.938
 128781876.834 7 100349541.357 5  24506380.227                    24506387.684
 112840123.135 8  87927394.54346  21472764.820                    21472772.406
 106535227.616 8  83014488.67146  20272980.086                    20272986.301
 116005297.950 8  90393726.92245  22075071.320                    22075079.707
 118337418.552 7  92211008.15244  22518859.516                    22518866.996
 109165814.858 8  85064294.46346  20773564.250                    20773569.094
 11  8  2 15 25 30.0000000  0 10G06G07G19G03G31G20G16G32G13G23
 118897558.730 7  92647488.96745  22625449.992                    22625458.781
 130144131.053 6 101411063.110 5  24765613.984                    24765624.184
 128997693.788 6 100517778.22142  24547459.367                    24547468.340
 117262035.608 7  91373070.89745  22314221.383                    22314230.262
 128847937.480 7 100401017.189 5  24518951.609                    24518958.289
 112893123.150 8  87968693.21345  21482850.727                    21482858.352
 106556881.152 8  83031361.55446  20277100.852                    20277106.777
 116081657.284 8  90453227.63445  22089602.047                    22089610.383
 118252477.998 7  92144820.73744  22502696.367                    22502703.813
 109108745.169 8  85019824.57446  20762704.055                    20762709.121
 11  8  2 15 26  0.0000000  0 10G06G07G19G03G31G20G16G32G13G23
 118844128.053 7  92605854.67544  22615282.461                    22615291.723
 130080178.566 6 101361230.006 5  24753444.055                    24753453.813
 128907036.344 6 100447136.05543  24530208.125                    24530216.074
 117180228.110 7  91309324.82345  22298654.039                    22298663.020
 128913943.331 7 100452450.311 5  24531512.617                    24531518.355
 112946569.370 8  88010339.56646  21493021.492                    21493028.734
 106579099.523 8  83048674.55846  20281328.750                    20281334.832
 116158322.780 8  90512966.91945  22104191.070                    22104199.617
 118167612.011 7  92078691.41944  22486546.445                    22486554.578
 109051953.030 8  84975570.96246  20751897.094                    20751902.141
 11  8  2 15 26 30.0000000  0 10G06G07G19G03G31G20G16G32G13G23
 118791041.888 7  92564488.83044  22605180.172                    22605188.926
 130016293.423 6 101311449.343 5  24741288.117                    24741297.195
 128816264.293 6 100376404.71143  24512933.727                    24512942.977
 117098667.178 7  91245770.86444  22283133.367                    22283142.734
 128979894.662 6 100503840.890 6  24544062.766                    24544070.418
 113000459.963 7  88052332.19745  21503276.063                    21503283.547
 106601881.978 8  83066427.12146  20285664.273                    20285670.465
 116235292.429 8  90572943.19745  22118838.211                    22118846.770
 118082822.441 7  92012621.65944  22470411.430                    22470419.641
 108995441.101 8  84931535.69346  20741143.203                    20741147.992
 11  8  2 15 27  0.0000000  0 10G06G07G19G03G31G20G16G32G13G23
 118738302.891 7  92523393.49544  22595144.742                    22595153.059
 129952474.965 6 101261720.651 5  24729142.695                    24729152.777
 128725380.567 6 100305586.34642  24495638.820                    24495648.004
 117017356.045 7  91182411.54945  22267660.836                    22267669.609
 129045791.992 6 100555189.371 6  24556602.086                    24556609.953
 113054792.650 8  88094669.31245  21513615.156                    21513622.898
 106625226.828 8  83084617.90146  20290106.359                    20290112.855
 116312563.673 8  90633154.49945  22133542.047                    22133550.508
 117998111.471 7  91946613.12845  22454292.125                    22454299.426
 108939212.052 8  84887720.85746  20730442.969                    20730448.305
 11  8  2 15 27 30.0000000  0 10G06G07G19G03G31G20G16G32G13G23
 118685913.774 7  92482570.80344  22585175.625                    22585183.980
 129888722.983 6 101212043.744 5  24717010.258                    24717021.359
 128634387.230 6 100234682.64943  24478323.344                    24478333.383
 116936298.709 7  91119249.98945  22252236.195                    22252244.980
 129111635.294 6 100606495.749 6  24569131.492                    24569139.879
 113109565.069 8  88137349.07446  21524038.305                    21524045.695
 106649132.570 8  83103245.73946  20294655.031                    20294661.188
 116390134.131 8  90693598.94145  22148303.609                    22148312.262
 117913480.956 7  91880667.29944  22438187.422                    22438194.941
 108883267.815 8  84844127.94146  20719797.070                    20719802.469
 11  8  2 15 28  0.0000000  0 10G06G07G19G03G31G20G16G32G13G23
 118633877.367 7  92442022.97044  22575272.500                    22575281.762
 129825037.061 5 101162418.412 5  24704892.234                    24704902.977
 128543287.536 6 100163695.97443  24460987.852                    24460997.828
 116855497.910 7  91056288.31645  22236859.859                    22236869.051
 129177424.664 5 100657760.078 6  24581649.844                    24581659.367
 113164774.683 8  88180369.51346  21534544.344                    21534551.816
 106673597.355 8  83122309.19746  20299310.938                    20299317.359
 116468001.204 8  90754274.51045  22163120.914                    22163129.738
 117828932.474 7  91814785.38844  22422097.617                    22422105.836
 108827610.569 8  84800758.67046  20709206.023                    20709211.320
 11  8  2 15 28 30.0000000  0 10G06G07G19G03G31G20G16G32G13G23
 118582195.909 7  92401751.71344  22565437.813                    22565447.270
 129761416.486 6 101112843.979 5  24692785.523                    24692795.867
 128452083.783 6 100092628.19843  24443633.023                    24443642.090
 116774956.575 7  90993528.84845  22221533.844                    22221542.285
 129243160.071 6 100708982.376 6  24594159.563                    24594168.313
 113220418.861 7  88223728.57246  21545132.914                    21545140.781
 106698619.453 8  83141806.92546  20304072.711                    20304079.180
 116546162.434 8  90815179.29445  22177995.023                    22178003.414
 117744468.098 7  91748969.01145  22406024.953                    22406032.520
 108772242.970 8  84757615.08446  20698669.594                    20698675.574
 11  8  2 15 29  0.0000000  0 10G06G07G19G03G31G20G16G32G13G23
 118530872.400 7  92361759.39444  22555671.602                    22555680.402
 129697860.846 6 101063320.143 5  24680691.305                    24680701.773
 128360778.841 6 100021481.59043  24426258.133                    24426267.379
 116694678.226 7  90930974.28745  22206256.711                    22206266.391
 129308841.605 6 100760162.732 6  24606659.398                    24606667.664
 113276495.351 7  88267424.48545  21555804.078                    21555811.988
 106724197.348 8  83161737.73846  20308939.758                    20308946.465
 116624614.974 7  90876311.07645  22192923.844                    22192932.660
 117660089.970 7  91683219.83044  22389968.258                    22389976.145
 108717166.873 8  84714698.64146  20688189.109                    20688194.344
 11  8  2 15 29 30.0000000  0 10G06G07G19G03G31G20G16G32G13G23
 118479909.210 7  92322047.87345  22545973.719                    22545982.426
 129634369.804 6 101013846.647 6  24668609.891                    24668619.516
 128269375.162 6  99950258.03843  24408863.852                    24408872.707
 116614666.459 7  90868627.44245  22191031.711                    22191040.535
 129374469.539 7 100811301.307 6  24619147.664                    24619155.773
 113333001.669 7  88311455.33145  21566556.695                    21566564.184
 106750329.336 8  83182100.31146  20313912.445                    20313918.918
 116703356.408 8  90937667.96445  22207907.977                    22207916.723
 117575800.114 7  91617539.43144  22373928.500                    22373936.094
 108662384.762 8  84672011.28246  20677764.117                    20677769.668
 11  8  2 15 30  0.0000000  0 10G06G07G19G03G31G20G16G32G13G23
 118429308.525 7  92282618.77444  22536344.883                    22536353.719
 129570942.631 6 100964422.975 6  24656539.586                    24656550.492
 128177875.353 6  99878959.63943  24391451.961                    24391461.691
 116534923.959 7  90806490.44945  22175856.484                    22175865.934
 129440043.838 7 100862398.096 6  24631626.055                    24631634.230
 113389934.993 8  88355818.91445  21577390.953                    21577398.281
 106777013.278 8  83202892.97946  20318990.234                    20318996.766
 116782384.217 8  90999248.00345  22222946.594                    22222955.469
 117491600.082 7  91551929.01544  22357905.648                    22357912.922
 108607898.785 8  84629554.66946  20667396.086                    20667401.297
 11  8  2 15 30 30.0000000  0 10G06G07G19G03G31G20G16G32G13G23
 118379073.175 7  92243474.36645  22526785.180                    22526794.051
 129507579.127 6 100915048.844 6  24644481.484                    24644492.797
 128086282.525 6  99807588.74044  24374022.352                    24374031.664
 116455454.644 7  90744566.30545  22160734.430                    22160743.203
 129505564.971 7 100913453.470 6  24644094.227                    24644102.848
 113447293.392 7  88400513.72645  21588306.180                    21588313.223
 106804247.845 8  83224114.70946  20324172.891                    20324179.313
 116861695.873 7  91061049.22245  22238038.617                    22238047.641
 117407491.733 7  91486390.04744  22341900.648                    22341908.188
 108553711.678 8  84587330.94746  20657084.484                    20657089.977
 11  8  2 15 31  0.0000000  0 10G06G07G19G03G31G20G16G32G13G23
 118329206.563 7  92204617.31144  22517296.164                    22517304.617
 129444278.482 6 100865723.723 6  24632436.141                    24632446.742
 127994599.339 6  99736147.42444  24356576.570                    24356585.250
 116376261.186 7  90682857.12645  22145664.430                    22145673.785
 129571032.978 7 100964467.442 6  24656552.609                    24656560.367
 113505074.069 8  88445537.57145  21599301.328                    21599309.043
 106832031.400 8  83245764.22046  20329460.102                    20329466.441
 116941288.864 7  91123069.66045  22253184.563                    22253193.504
 117323477.492 7  91420924.42045  22325913.063                    22325920.555
 108499825.427 8  84545341.64946  20646830.289                    20646835.594
 11  8  2 15 31 30.0000000  0 10G06G07G19G03G31G20G16G32G13G23
 118279711.270 7  92166049.61645  22507877.242                    22507886.723
 129381040.828 6 100816447.668 6  24620402.500                    24620412.707
 127902828.640 6  99664637.93944  24339113.063                    24339122.020
 116297347.368 7  90621365.83845  22130647.820                    22130656.379
 129636448.324 6 101015440.357 6  24669000.375                    24669008.766
 113563274.903 7  88490888.83245  21610376.219                    21610384.043
 106860362.331 8  83267840.25346  20334851.250                    20334857.461
 117021160.856 7  91185307.50245  22268384.391                    22268393.113
 117239559.366 7  91355533.67944  22309943.758                    22309951.563
 108446242.767 8  84503588.92046  20636633.836                    20636638.957
 11  8  2 15 32  0.0000000  0 10G06G07G19G03G31G20G16G32G13G23
 118230589.352 7  92127772.83645  22498529.945                    22498538.336
 129317865.616 5 100767220.285 6  24608380.891                    24608390.957
 127810973.158 6  99593062.31943  24321633.578                    24321641.832
 116218716.727 7  90560095.22145  22115684.563                    22115693.430
 129701811.348 6 101066372.570 5  24681438.563                    24681446.629
 113621893.263 7  88536565.41545  21621531.297                    21621539.105
 106889239.248 8  83290341.72546  20340346.078                    20340352.531
 117101309.319 7  91247760.78245  22283636.273                    22283644.984
 117155739.167 7  91290219.25444  22293993.938                    22294001.195
 108392966.232 8  84462074.73446  20626495.734                    20626501.098
 11  8  2 15 32 30.0000000  0 10G06G07G19G03G31G20G16G32G13G23
 118181843.323 7  92089788.95345  22489253.766                    22489262.316
 129254751.930 6 100718040.840 6  24596370.305                    24596380.848
 127719035.350 5  99521422.51943  24304137.641                    24304145.875
 116140371.664 8  90499047.12945  22100775.992                    22100785.184
 129767121.911 7 101117263.889 5  24693867.258                    24693874.469
 113680926.277 7  88582565.11445  21632764.984                    21632771.934
 106918659.563 8  83313266.62746  20345945.078                    20345951.219
 117181731.440 7  91310427.28945  22298940.148                    22298949.078
 117072019.031 7  91224982.78844  22278062.203                    22278069.574
 108339997.471 8  84420800.37546  20616416.156                    20616421.223
 11  8  2 15 33  0.0000000  0 10G06G07G19G03G31G20G16G32G13G23
 118133476.066 7  92052100.21545  22480049.391                    22480057.922
 129191699.922 6 100668909.412 6  24584371.203                    24584382.551
 127627018.329 6  99449721.13243  24286626.383                    24286635.406
 116062315.904 8  90438224.45645  22085922.203                    22085931.051
 129832380.260 6 101168114.563 5  24706285.398                    24706293.402
 113740371.617 7  88628886.10645  21644077.156                    21644084.668
 106948621.928 8  83336613.90546  20351646.453                    20351653.148
 117262424.702 7  91373305.09145  22314295.500                    22314304.219
 116988400.979 7  91159825.87044  22262150.328                    22262157.137
 108287339.130 8  84379767.90046  20606395.734                    20606401.027
 11  8  2 15 33 30.0000000  0 10G06G07G19G03G31G20G16G32G13G23
 118085489.727 7  92014708.29744  22470917.617                    22470926.828
 129128708.742 6 100619825.386 6  24572384.516                    24572395.383
 127534924.727 6  99377959.94543  24269102.109                    24269110.750
 115984552.835 8  90377629.88845  22071124.906                    22071133.590
 129897586.371 6 101218924.420 5  24718693.688                    24718701.777
 113800226.836 7  88675526.49345  21655467.070                    21655474.898
 106979124.291 8  83360381.96146  20357450.680                    20357457.211
 117343386.286 7  91436391.97445  22329702.117                    22329710.902
 116904887.015 7  91094750.06944  22246257.891                    22246265.258
 108234993.365 8  84338978.99346  20596434.477                    20596439.770
 11  8  2 15 34  0.0000000  0 10G06G07G19G03G31G20G16G32G13G23
 118037887.198 7  91977615.43845  22461859.344                    22461868.172
 129065777.913 6 100570788.429 6  24560410.125                    24560420.230
 127442757.385 6  99306141.31043  24251563.828                    24251572.543
 115907085.442 8  90317265.71845  22056382.984                    22056391.605
 129962740.793 6 101269693.999 6  24731092.266                    24731101.105
 113860489.391 8  88722484.27845  21666934.758                    21666942.125
 107010164.890 8  83384569.42346  20363357.680                    20363364.254
 117424614.157 7  91499686.33845  22345159.383                    22345167.633
 116821479.129 7  91029756.92445  22230385.656                    22230393.152
 108182962.881 8  84298435.75346  20586533.547                    20586538.488
 11  8  2 15 34 30.0000000  0 10G06G07G19G03G31G20G16G32G13G23
 117990670.998 7  91940823.61445  22452875.023                    22452883.371
 129002906.962 6 100521798.118 6  24548445.031                    24548455.676
 127350518.942 6  99234267.28643  24234010.883                    24234019.734
 115829916.923 7  90257134.43145  22041698.492                    22041706.754
 130027843.806 6 101320423.510 5  24743481.023                    24743489.086
 113921156.584 7  88769757.36445  21678479.227                    21678486.766
 107041741.539 8  83409174.57746  20369366.836                    20369372.930
 117506105.221 7  91563185.80245  22360666.375                    22360675.031
 116738179.244 7  90964847.91844  22214534.242                    22214541.531
 108131249.623 8  84258139.69946  20576692.953                    20576697.914
 11  8  2 15 35  0.0000000  0 10G06G07G19G03G31G20G16G32G13G23
 117943843.352 7  91904334.57045  22443963.711                    22443972.207
 128940095.766 6 100472854.358 6  24536493.328                    24536503.039
 127258212.363 6  99162340.11743  24216445.406                    24216454.840
 115753050.829 7  90197238.81945  22027071.195                    22027079.766
 130092895.399 6 101371113.020 6  24755859.508                    24755867.785
 113982225.654 7  88817343.60345  21690100.883                    21690107.848
 107073852.706 8  83434196.25346  20375477.102                    20375483.637
 117587856.904 7  91626888.33945  22376223.453                    22376232.672
 116654989.475 7  90900024.73845  22198703.680                    22198711.445
 108079855.885 8  84218092.62046  20566913.133                    20566918.008
 11  8  2 15 35 30.0000000  0 10G06G07G19G03G31G20G16G32G13G23
 117897407.048 7  91868150.46445  22435127.086                    22435136.031
 128877343.565 6 100423956.617 6  24524551.539                    24524562.098
 127165840.902 6  99090362.38543  24198868.102                    24198877.102
 115676490.636 7  90137581.57145  22012502.078                    22012511.172
 130157895.915 6 101421762.665 6  24768228.992                    24768238.051
 114043694.469 7  88865241.34045  21701797.633                    21701805.328
 107106496.670 8  83459633.08746  20381688.813                    20381695.434
 117669867.157 7  91690792.36445  22391829.289                    22391837.875
 116571912.341 7  90835289.32245  22182894.875                    22182902.617
 108028784.233 8  84178296.52846  20557194.594                    20557199.617
 11  8  2 15 36  0.0000000  0 10G06G07G19G03G31G20G16G32G13G23
 117851364.438 7  91832273.10945  22426365.359                    22426374.805
 128814650.230 7 100375104.715 6  24512621.711                    24512632.238
 127073407.048 6  99018335.97543  24181278.359                    24181286.988
 115600239.095 8  90078164.83845  21997991.563                    21998000.477
 130222845.815 6 101472372.892 6  24780588.414                    24780597.699
 114105560.234 7  88913448.37145  21713570.766                    21713578.191
 107139671.425 8  83485483.52146  20388002.156                    20388008.613
 117752132.905 7  91754895.48445  22407484.055                    22407493.039
 116488949.609 7  90770643.04345  22167107.641                    22167115.316
 107978036.918 8  84138753.16146  20547537.656                    20547542.637
 11  8  2 15 36 30.0000000  0 10G06G07G19G03G31G20G16G32G13G23
 117805718.032 7  91796704.50745  22417679.094                    22417688.250
 128752015.091 7 100326298.188 6  24500702.633                    24500712.805
 126980913.237 6  98946262.87843  24163677.688                    24163685.711
 115524299.664 7  90018991.30245  21983541.023                    21983550.184
 130287745.135 6 101522943.680 6  24792939.281                    24792947.262
 114167820.150 7  88961962.53645  21725418.422                    21725425.668
 107173374.914 8  83511745.96046  20394415.773                    20394422.176
 117834651.706 7  91819195.76945  22423186.875                    22423195.758
 116406103.472 7  90706087.62745  22151342.602                    22151350.160
 107927616.348 8  84099464.39246  20537942.773                    20537947.555
 11  8  2 15 37  0.0000000  0 10G06G07G19G03G31G20G16G32G13G23
 117760470.191 7  91761446.48045  22409068.477                    22409077.777
 128689437.482 7 100277536.492 6  24488794.680                    24488804.566
 126888362.522 6  98874145.53744  24146065.664                    24146075.172
 115448675.334 8  89960063.30645  21969150.531                    21969159.164
 130352593.924 6 101573475.077 6  24805278.852                    24805288.105
 114230471.625 7  89010781.82345  21737340.711                    21737347.594
 107207604.723 8  83538418.51146  20400929.586                    20400936.234
 117917420.632 7  91883690.96045  22438937.313                    22438945.973
 116323375.792 7  90641624.51045  22135599.859                    22135607.816
 107877524.633 8  84060431.88246  20528410.398                    20528415.773
 11  8  2 15 37 30.0000000  0 10G06G07G19G03G31G20G16G32G13G23
 117715623.622 7  91726501.12945  22400535.055                    22400543.766
 128626917.159 6 100228819.390 6  24476897.422                    24476907.031
 126795758.119 6  98801986.37843  24128442.797                    24128452.945
 115373369.560 7  89901383.51745  21954820.016                    21954828.578
 130417392.905 6 101623967.675 6  24817610.102                    24817618.645
 114293512.050 7  89059904.18745  21749336.391                    21749344.188
 107242359.679 8  83565500.27746  20407542.992                    20407549.984
 118000437.501 7  91948379.35545  22454735.086                    22454744.047
 116240768.924 7  90577255.53745  22119880.586                    22119888.281
 107827764.331 8  84021657.61646  20518941.500                    20518946.766
 11  8  2 15 38  0.0000000  0 10G06G07G19G03G31G20G16G32G13G23
 117671180.745 7  91691870.33745  22392077.234                    22392086.121
 128564453.849 6 100180146.712 6  24465010.883                    24465020.980
 126703102.915 6  98729787.56043  24110811.914                    24110820.570
 115298385.371 7  89842954.30945  21940551.250                    21940558.945
 130482142.173 7 101674421.548 6  24829931.320                    24829940.066
 114356938.900 7  89109327.64745  21761406.117                    21761413.793
 107277637.626 8  83592989.56346  20414256.273                    20414263.047
 118083699.534 7  92013258.80445  22470579.445                    22470588.258
 116158284.786 7  90512982.19045  22104184.281                    22104191.805
 107778337.850 8  83983143.46146  20509535.969                    20509541.066
 11  8  2 15 38 30.0000000  0 10G06G07G19G03G31G20G16G32G13G23
 117627143.700 7  91657555.75444  22383697.273                    22383705.965
 128502046.599 6 100131517.734 6  24453134.555                    24453145.063
 126610399.684 7  98657551.28544  24093171.648                    24093179.906
 115223726.291 7  89784778.43245  21926343.742                    21926352.973
 130546842.110 6 101724836.999 6  24842243.016                    24842252.203
 114420749.355 7  89159050.01845  21773549.406                    21773556.762
 107313436.303 8  83620884.61746  20421068.438                    20421075.398
 118167204.237 7  92078327.32745  22486470.164                    22486478.910
 116075925.634 7  90448806.23845  22088512.047                    22088519.633
 107729247.212 8  83944890.99946  20500194.578                    20500199.402
 11  8  2 15 39  0.0000000  0 10G06G07G19G03G31G20G16G32G13G23
 117583515.265 7  91623559.59445  22375395.906                    22375403.473
 128439695.440 6 100082932.470 6  24441270.219                    24441279.797
 126517651.008 7  98585279.59843  24075521.469                    24075529.738
 115149395.396 7  89726858.28345  21912199.438                    21912208.012
 130611492.942 6 101775214.196 6  24854546.805                    24854554.930
 114484940.856 7  89209069.33345  21785764.211                    21785772.332
 107349754.061 8  83649184.15946  20427979.305                    20427986.094
 118250948.657 7  92143582.65845  22502405.930                    22502414.949
 115993693.463 7  90384729.24045  22072863.148                    22072870.852
 107680494.841 8  83906902.12346  20490917.078                    20490922.500
 11  8  2 15 39 30.0000000  0 10G06G07G19G03G31G20G16G32G13G23
 117540297.909 7  91589883.73545  22367171.344                    22367179.836
 128377399.541 6 100034390.269 6  24429414.727                    24429425.371
 126424859.934 6  98512974.96744  24057863.391                    24057872.699
 115075396.111 7  89669196.52845  21898117.313                    21898126.137
 130676094.785 6 101825553.240 6  24866839.617                    24866848.254
 114549510.885 7  89259383.57945  21798051.984                    21798059.984
 107386588.556 8  83677886.34546  20434989.070                    20434995.879
 118334930.355 7  92209022.87445  22518387.266                    22518396.316
 115911590.550 7  90320752.95045  22057239.734                    22057247.156
 107632083.164 8  83869178.73746  20481704.977                    20481710.008
 11  8  2 15 40  0.0000000  0 10G06G07G19G03G31G20G16G32G13G23
 117497493.491 7  91556529.65645  22359025.820                    22359034.699
 128315158.621 6  99985890.967 6  24417569.852                    24417582.246
 126332029.647 6  98440639.81544  24040198.508                    24040206.848
 115001731.543 7  89611795.58645  21884099.727                    21884108.223
 130740648.216 6 101875854.549 6  24879124.117                    24879132.289
 114614456.429 7  89309990.45145  21810410.203                    21810418.066
 107423937.719 8  83706989.56846  20442096.219                    20442103.141
 118419146.826 7  92274646.02345  22534413.133                    22534422.387
 115829619.228 7  90256879.20245  22041640.891                    22041648.852
 107584014.443 8  83831722.57646  20472557.453                    20472562.922
 11  8  2 15 40 30.0000000  0  9G06G07G19G03G20G16G32G13G23
 117455104.654 7  91523499.39145  22350959.438                    22350968.074
 128252972.334 6  99937434.142 6  24405737.680                    24405748.008
 126239163.117 6  98368276.41244  24022527.234                    24022535.539
 114928404.510 7  89554657.66245  21870146.469                    21870154.203
 114679774.913 7  89360887.91145  21822840.602                    21822847.930
 107461799.416 8  83736492.17146  20449301.320                    20449308.027
 118503595.267 7  92340449.94644  22550483.070                    22550492.000
 115747781.373 7  90193109.44745  22026068.250                    22026075.563
 107536291.074 8  83794535.52246  20463475.906                    20463481.324
 11  8  2 15 41  0.0000000  0  9G06G07G19G03G20G16G32G13G23
 117413133.844 7  91490794.86345  22342972.508                    22342981.840
 128190840.060 6  99889019.426 6  24393914.578                    24393923.965
 126146262.844 6  98295886.64243  24004848.359                    24004856.199
 114855418.586 7  89497785.53745  21856256.781                    21856265.598
 114745463.747 7  89412073.97245  21835340.289                    21835348.516
 107500171.954 8  83766392.82946  20456603.203                    20456609.906
 118588273.069 7  92406432.57545  22566597.227                    22566605.957
 115666079.455 7  90129445.62745  22010520.438                    22010528.332
 107488914.976 8  83757619.08146  20454460.656                    20454465.984
 11  8  2 15 41 30.0000000  0  9G06G07G19G03G20G16G32G13G23
 117371583.221 7  91458417.75145  22335065.703                    22335074.785
 128128761.376 6  99840646.471 6  24382100.383                    24382111.281
 126053332.139 6  98223473.19643  23987163.859                    23987172.055
 114782777.155 7  89441181.84345  21842433.914                    21842442.633
 114811519.994 7  89463546.31845  21847910.164                    21847918.402
 107539053.105 8  83796689.80646  20464002.203                    20464008.723
 118673177.462 7  92472591.78045  22582753.234                    22582762.469
 115584515.349 7  90065889.19245  21994998.891                    21995006.867
 107441889.153 8  83720975.58046  20445512.180                    20445517.309
 11  8  2 15 42  0.0000000  0  9G06G07G19G03G20G16G32G13G23
 117330455.194 7  91426369.93945  22327239.969                    22327248.227
 128066736.132 6  99792315.143 5  24370297.594                    24370307.883
 125960373.795 6  98151038.26043  23969474.063                    23969482.344
 114710483.175 7  89384848.87445  21828676.711                    21828685.906
 114877941.149 7  89515303.00745  21860549.898                    21860557.945
 107578440.667 8  83827381.39746  20471497.188                    20471503.879
 118758306.022 7  92538925.64945  22598953.156                    22598962.164
 115503091.482 7  90002442.03845  21979504.883                    21979512.844
 107395215.566 8  83684606.55046  20436630.219                    20436635.414
 11  8  2 15 42 30.0000000  0  9G06G07G19G03G20G16G32G13G23
 117289752.018 7  91394653.16945  22319494.156                    22319502.738
 128004763.450 6  99744024.788 6  24358504.758                    24358515.102
 125867390.552 6  98078583.91744  23951780.430                    23951789.281
 114638539.502 8  89328788.87945  21814986.305                    21814994.816
 114944724.116 7  89567341.63145  21873258.422                    21873266.238
 107618332.438 8  83858465.88246  20479088.313                    20479095.195
 118843655.899 7  92605431.96445  22615194.766                    22615203.313
 115421809.906 7  89939105.75845  21964037.484                    21964045.176
 107348896.382 8  83648513.66746  20427816.219                    20427821.805
 11  8  2 15 43  0.0000000  0  9G06G07G19G03G20G16G32G13G23
 117249476.105 7  91363269.35445  22311829.555                    22311838.656
 127942842.944 6  99695775.088 6  24346721.867                    24346731.688
 125774385.881 6  98006112.87044  23934082.430                    23934091.293
 114566949.744 8  89273004.66545  21801363.688                    21801372.387
 115011866.339 7  89619660.19645  21886035.203                    21886043.156
 107658726.357 8  83889941.64346  20486775.172                    20486781.934
 118929224.428 7  92672108.67144  22631478.039                    22631486.777
 115340672.923 7  89875882.13945  21948597.688                    21948605.309
 107302934.030 8  83612698.83546  20419069.891                    20419075.258
 11  8  2 15 43 30.0000000  0  9G06G07G19G03G20G16G32G13G23
 117209629.706 7  91332220.20745  22304247.148                    22304256.191
 127880974.211 6  99647565.749 6  24334948.297                    24334958.207
 125681362.234 6  97933627.02643  23916379.602                    23916387.934
 114495716.829 8  89217498.50345  21787808.063                    21787817.137
 115079365.062 7  89672256.53845  21898879.734                    21898887.641
 107699620.532 8  83921807.21346  20494556.984                    20494563.621
 119015009.258 7  92738953.92344  22647802.484                    22647811.535
 115259682.853 7  89812773.00245  21933185.680                    21933193.445
 107257330.717 8  83577163.78246  20410391.961                    20410397.215
 11  8  2 15 44  0.0000000  0  9G06G07G19G03G20G16G32G13G23
 117170215.148 7  91301507.56745  22296746.867                    22296755.387
 127819156.724 6  99599396.369 6  24323184.797                    24323194.883
 125588322.930 6  97861128.99143  23898675.398                    23898682.559
 114424843.924 8  89162272.88845  21774321.523                    21774330.398
 115147217.742 7  89725128.68845  21911792.195                    21911799.910
 107741012.409 8  83954060.60946  20502433.570                    20502440.750
 119101007.462 7  92805965.42945  22664167.578                    22664176.793
 115178841.789 7  89749779.97845  21917801.898                    21917809.652
 107212089.023 8  83541910.50346  20401782.523                    20401787.902
 11  8  2 15 44 30.0000000  0  9G06G07G19G03G20G16G32G13G23
 117131234.416 7  91271132.96445  22289329.352                    22289337.570
 127757389.875 6  99551266.400 6  24311431.422                    24311440.953
 125495270.611 7  97788620.73444  23880967.883                    23880976.043
 114354334.241 8  89107330.27745  21760903.867                    21760912.074
 115215421.140 8  89778274.15245  21924770.961                    21924778.320
 107782899.827 8  83986700.13946  20510404.828                    20510411.195
 119187216.052 7  92873140.88744  22680572.477                    22680581.781
 115098151.819 7  89686904.68345  21902447.203                    21902455.063
 107167210.644 8  83506940.31746  20393242.555                    20393247.965
 11  8  2 15 45  0.0000000  0  9G06G07G19G03G20G16G32G13G23
 117092690.136 7  91241098.43844  22281994.281                    22282002.254
 127695673.714 6  99503175.905 6  24299686.813                    24299697.324
 125402208.375 6  97716104.85144  23863259.250                    23863267.914
 114284191.030 7  89052673.24545  21747556.320                    21747564.871
 115283972.828 8  89831691.00845  21937815.078                    21937823.680
 107825280.946 7  84019724.36246  20518469.563                    20518475.953
 119273632.991 7  92940478.68544  22697017.133                    22697026.031
 115017615.340 8  89624149.01145  21887122.234                    21887129.438
 107122698.434 8  83472255.47346  20384772.125                    20384777.395
 11  8  2 15 45 30.0000000  0  9G06G07G19G03G20G16G32G13G23
 117054584.311 7  91211405.55945  22274742.922                    22274751.059
 127634007.626 6  99455124.448 6  24287952.273                    24287962.309
 125309139.380 6  97643583.69443  23845547.344                    23845556.773
 114214417.396 7  88998304.16845  21734279.117                    21734287.359
 115352869.840 7  89885376.91945  21950926.320                    21950934.941
 107868153.243 7  84053131.31246  20526627.813                    20526633.941
 119360255.292 7  93007976.50944  22713500.461                    22713509.777
 114937234.672 7  89561514.73545  21871826.078                    21871833.238
 107078554.636 8  83437857.69746  20376372.031                    20376376.840
 11  8  2 15 46  0.0000000  0  9G06G07G19G03G20G16G32G13G23
 117016918.807 7  91182055.82045  22267575.242                    22267583.938
 127572391.009 7  99407111.542 6  24276227.555                    24276236.988
 125216066.533 7  97571059.46543  23827837.648                    23827844.777
 114145016.228 7  88944225.35945  21721072.102                    21721080.629
 115422109.357 8  89939329.72845  21964101.977                    21964109.949
 107911514.419 8  84086919.22546  20534879.359                    20534885.902
 119447080.100 7  93075632.12844  22730023.086                    22730032.652
 114857012.089 8  89499003.65145  21856560.055                    21856567.406
 107034781.276 8  83403748.57546  20368042.070                    20368047.227
 11  8  2 15 46 30.0000000  0  9G06G07G19G03G20G16G32G13G23
 116979695.731 7  91153050.82244  22260491.844                    22260501.008
 127510823.281 6  99359136.696 6  24264511.133                    24264520.988
 125122992.877 7  97498534.53144  23810125.391                    23810133.277
 114075990.315 8  88890438.93545  21707937.180                    21707945.238
 115491688.292 7  89993547.02545  21977343.008                    21977350.352
 107955361.999 8  84121086.14746  20543223.148                    20543229.629
 119534104.648 7  93143443.39744  22746582.695                    22746592.340
 114776949.384 8  89436617.13245  21841324.609                    21841332.078
 106991380.214 8  83369929.55246  20359783.195                    20359788.340
 11  8  2 15 47  0.0000000  0  9G06G07G19G03G20G16G32G13G23
 116942917.903 7  91124392.77545  22253493.602                    22253502.527
 127449304.133 7  99311199.731 6  24252804.039                    24252814.320
 125029921.364 7  97426011.38144  23792414.664                    23792423.500
 114007343.397 8  88836947.85045  21694873.953                    21694882.844
 115561604.125 8  90048026.84945  21990647.398                    21990654.824
 107999694.628 8  84155631.02746  20551659.547                    20551665.809
 119621326.624 7  93211408.49644  22763181.305                    22763190.348
 114697049.573 8  89374357.55545  21826119.992                    21826127.711
 106948354.453 8  83336402.97146  20351595.578                    20351600.559
 11  8  2 15 47 30.0000000  0  9G06G07G19G03G20G16G32G13G23
 116906586.932 7  91096082.91145  22246580.695                    22246588.453
 127387833.048 6  99263300.195 6  24241106.695                    24241116.246
 124936854.987 6  97353492.26444  23774704.414                    23774713.645
 113939078.377 7  88783754.36045  21681883.094                    21681892.316
 115631854.032 8  90102766.97845  22004015.742                    22004023.867
 108044509.059 8  84190551.34046  20560187.141                    20560194.035
 119708743.158 7  93279525.21444  22779815.977                    22779825.258
 114617314.549 8  89312226.38745  21810946.938                    21810954.508
 106905705.951 8  83303170.36046  20343479.922                    20343485.074
 11  8  2 15 48  0.0000000  0  9G06G07G19G03G20G16G32G13G23
 116870705.169 7  91068123.08445  22239752.102                    22239760.801
 127326409.766 6  99215437.920 6  24229417.953                    24229428.039
 124843797.181 6  97280979.72643  23756996.070                    23757004.355
 113871198.410 7  88730860.90445  21668966.555                    21668974.859
 115702435.046 8  90157765.10845  22017446.727                    22017454.270
 108089803.210 8  84225845.45446  20568806.609                    20568813.430
 119796351.547 7  93347791.40345  22796487.430                    22796496.305
 114537746.493 8  89250225.32645  21795805.805                    21795813.367
 106863436.908 8  83270233.43046  20335436.641                    20335441.340
 11  8  2 15 48 30.0000000  0  9G06G07G19G03G20G16G32G13G23
 116835274.726 7  91040514.95145  22233010.078                    22233018.547
 127265033.632 6  99167612.435 6  24217738.352                    24217749.059
 124750750.743 6  97208476.02743  23739290.352                    23739297.270
 113803706.626 7  88678269.92045  21656123.094                    21656131.453
 115773344.583 7  90213019.23345  22030939.938                    22030948.332
 108135575.314 8  84261512.00746  20577516.867                    20577523.328
 119884149.204 7  93416205.09344  22813195.117                    22813204.609
 114458347.967 8  89188356.35045  21780696.922                    21780704.141
 106821549.436 8  83237593.83146  20327465.375                    20327470.750
 11  8  2 15 49  0.0000000  0  9G06G07G19G03G20G16G32G13G23
 116800297.875 7  91013260.25345  22226354.016                    22226362.641
 127203704.218 6  99119823.331 6  24206068.195                    24206078.125
 124657718.517 6  97135983.47644  23721586.195                    23721594.777
 113736605.981 7  88625983.73245  21643354.359                    21643362.234
 115844579.588 8  90268526.97245  22044496.367                    22044503.645
 108181822.496 8  84297548.73746  20586317.492                    20586324.273
 119972133.409 7  93484764.13244  22829937.609                    22829946.785
 114379121.027 8  89126621.09145  21765620.578                    21765627.977
 106780046.156 8  83205253.60846  20319567.594                    20319572.883
 11  8  2 15 49 30.0000000  0  9G06G07G19G03G20G16G32G13G23
 116765776.448 7  90986360.42145  22219785.180                    22219793.223
 127142421.125 6  99072070.345 6  24194406.125                    24194416.117
 124564703.766 6  97063504.51244  23703885.875                    23703895.129
 113669899.531 8  88574004.71345  21630660.188                    21630668.711
 115916137.198 7  90324286.08345  22058112.828                    22058121.195
 108228542.683 8  84333954.05346  20595207.727                    20595214.266
 120060301.440 7  93553466.40444  22846715.625                    22846724.789
 114300068.050 8  89065021.38245  21750577.250                    21750585.102
 106738929.403 8  83173214.55846  20311743.414                    20311748.820
 11  8  2 15 50  0.0000000  0  9G06G07G19G03G20G16G32G13G23
 116731712.330 7  90959816.95845  22213302.688                    22213310.633
 127081183.671 6  99024352.904 6  24182753.430                    24182763.074
 124471709.253 6  96991041.28844  23686190.352                    23686198.379
 113603590.019 7  88522335.00645  21618041.945                    21618050.656
 115988014.312 8  90380294.16445  22071790.523                    22071798.199
 108275733.388 8  84370726.00546  20604188.070                    20604194.445
 120148650.369 7  93622309.64844  22863528.000                    22863537.484
 114221191.511 8  89003559.15445  21735567.438                    21735574.848
 106698200.830 8  83141477.99646  20303993.148                    20303998.211
 11  8  2 15 50 30.0000000  0  9G06G07G19G03G20G16G32G13G23
 116698108.066 7  90933631.81145  22206908.063                    22206916.277
 127019991.959 6  98976671.118 7  24171108.703                    24171118.656
 124378738.548 6  96918596.63343  23668498.188                    23668505.664
 113537681.136 8  88470977.46745  21605499.797                    21605508.305
 116060208.819 8  90436549.57845  22085529.172                    22085536.555
 108323393.220 8  84407863.51146  20613257.305                    20613263.902
 120237178.103 7  93691292.22344  22880374.648                    22880383.363
 114142493.751 8  88942236.24145  21720591.859                    21720599.563
 106657863.460 8  83110046.26346  20296316.992                    20296322.262
 11  8  2 15 51  0.0000000  0  9G06G07G19G03G20G16G32G13G23
 116664965.470 7  90907806.41045  22200601.328                    22200609.863
 126958845.249 6  98929024.383 6  24159473.742                    24159482.820
 124285794.644 6  96846172.80144  23650812.234                    23650819.324
 113472175.597 7  88419934.20145  21593034.172                    21593043.188
 116132717.223 8  90493049.57945  22099326.930                    22099334.633
 108371518.802 8  84445363.93846  20622415.703                    20622421.918
 120325881.573 7  93760411.73744  22897254.148                    22897263.039
 114063977.140 8  88881054.47945  21705650.281                    21705658.047
 106617919.237 8  83078920.87646  20288715.906                    20288721.031
 11  8  2 15 51 30.0000000  0  9G06G07G19G03G20G16G32G13G23
 116632286.442 7  90882342.25145  22194382.828                    22194391.574
 126897743.189 6  98881412.422 6  24147845.313                    24147855.070
 124192880.399 6  96773772.14744  23633130.664                    23633139.258
 113407076.512 7  88369207.66945  21580646.500                    21580655.246
 116205536.792 7  90549792.04845  22113183.820                    22113191.824
 108420108.022 8  84483225.64746  20631662.008                    20631668.035
 120414758.183 7  93829666.15944  22914166.719                    22914175.836
 113985643.784 8  88820015.51045  21690743.789                    21690751.605
 106578370.209 8  83048103.43246  20281190.156                    20281195.113
 11  8  2 15 52  0.0000000  0  9G06G07G19G03G20G16G32G13G23
 116600073.012 7  90857240.86945  22188252.484                    22188261.063
 126836685.364 6  98833834.975 6  24136225.953                    24136235.719
 124099999.230 6  96701397.27444  23615455.344                    23615463.938
 113342386.741 7  88318800.08045  21568336.477                    21568344.805
 116278664.864 7  90606774.89245  22127099.969                    22127107.762
 108469158.403 8  84521446.69646  20640995.602                    20641002.414
 120503805.044 7  93899053.22944  22931111.766                    22931120.941
 113907496.232 8  88759121.31945  21675873.375                    21675880.563
 106539218.628 8  83017595.68646  20273739.805                    20273744.887
 11  8  2 15 52 30.0000000  0  9G06G07G19G03G20G16G32G13G23
 116568327.237 7  90832503.89645  22182211.664                    22182219.930
 126775671.093 6  98786291.396 6  24124614.984                    24124625.133
 124007154.114 6  96629050.47544  23597788.039                    23597796.016
 113278109.280 7  88268713.76045  21556104.734                    21556112.684
 116352098.709 7  90663996.03145  22141073.695                    22141081.578
 108518667.750 8  84560025.38246  20650417.102                    20650423.684
 120593019.562 7  93968570.96444  22948088.758                    22948098.477
 113829536.861 8  88698373.77045  21661037.852                    21661045.254
 106500466.789 8  82987399.42846  20266365.453                    20266370.777
 11  8  2 15 53  0.0000000  0  9G06G07G19G03G20G16G32G13G23
 116537051.114 7  90808132.87445  22176259.852                    22176268.660
 126714700.193 6  98738781.695 6  24113013.102                    24113022.590
 123914348.107 7  96556734.12044  23580127.945                    23580135.965
 113214247.092 7  88218951.02945  21543952.164                    21543960.469
 116425834.734 7  90721452.63045  22155105.336                    22155113.184
 108568633.780 8  84598959.92946  20659925.086                    20659932.027
 120682399.184 7  94038217.33244  22965097.102                    22965107.039
 113751767.945 8  88637774.61745  21646238.781                    21646246.188
 106462116.812 8  82957516.31146  20259067.586                    20259073.004
 11  8  2 15 53 30.0000000  0  9G06G07G19G03G20G16G32G13G23
 116506246.439 7  90784129.23745  22170398.258                    22170406.969
 126653772.089 6  98691305.298 6  24101418.023                    24101428.141
 123821584.529 6  96484450.86044  23562475.469                    23562483.594
 113150803.477 8  88169514.46745  21531879.547                    21531888.168
 116499870.219 7  90779142.55545  22169193.609                    22169202.180
 108619053.912 8  84638248.30946  20669519.867                    20669526.512
 120771940.892 7  94107990.00844  22982136.852                    22982145.781
 113674191.803 8  88577325.68945  21631476.625                    21631484.043
 106424171.005 8  82927948.13546  20251847.023                    20251852.406
 11  8  2 15 54  0.0000000  0  9G06G07G19G03G20G16G32G13G23
 116475914.989 7  90760494.34345  22164626.406                    22164635.105
 126592886.153 6  98643861.749 6  24089832.250                    24089841.988
 123728866.218 6  96412202.86044  23544832.219                    23544839.723
 113087780.768 7  88120405.87145  21519886.813                    21519895.602
 116574202.170 7  90837063.49245  22183339.227                    22183347.375
 108669925.490 8  84677888.47346  20679200.328                    20679206.895
 120861641.953 7  94177886.86444  22999206.195                    22999215.406
 113596810.589 8  88517028.64545  21616751.453                    21616758.852
 106386631.152 8  82898696.28846  20244703.313                    20244708.582
 11  8  2 15 54 30.0000000  0  9G06G07G19G03G20G16G32G13G23
 116446058.692 7  90737229.69545  22158944.961                    22158953.445
 126532041.964 7  98596450.718 6  24078254.086                    24078263.730
 123636196.160 6  96339992.48344  23527197.141                    23527204.449
 113025182.153 7  88071627.74345  21507974.414                    21507982.848
 116648827.696 7  90895213.21945  22197539.586                    22197547.984
 108721246.190 8  84717878.59946  20688966.320                    20688972.922
 120951499.881 7  94247905.96844  23016305.547                    23016315.125
 113519627.257 8  88456885.80545  21602063.773                    21602071.633
 106349499.434 8  82869762.46146  20237637.313                    20237642.324
 11  8  2 15 55  0.0000000  0  9G06G07G19G03G20G16G32G13G23
 116416679.669 7  90714336.95245  22153353.953                    22153362.813
 126471239.512 6  98549072.245 6  24066684.469                    24066693.445
 123543577.949 6  96267822.46044  23509571.906                    23509580.047
 112963011.123 7  88023182.80345  21496143.359                    21496152.168
 116723744.400 7  90953589.82345  22211795.734                    22211804.160
 108773013.926 8  84758217.07346  20698817.375                    20698824.336
 121041512.169 7  94318045.31744  23033434.305                    23033444.125
 113442643.975 8  88396898.84545  21587414.602                    21587422.094
 106312778.815 8  82841148.97946  20230650.016                    20230654.824
 11  8  2 15 55 30.0000000  0  9G06G07G19G03G20G16G32G13G23
 116387779.704 7  90691817.51645  22147854.680                    22147863.277
 126410478.107 6  98501725.744 6  24055120.859                    24055130.973
 123451014.304 6  96195694.98644  23491957.969                    23491966.352
 112901270.361 7  87975073.13845  21484394.859                    21484403.559
 116798949.024 7  91012190.77745  22226106.516                    22226114.598
 108825225.997 8  84798901.78946  20708753.359                    20708759.758
 121131675.840 7  94388302.65444  23050591.914                    23050601.273
 113365863.213 8  88337069.67245  21572803.688                    21572810.824
 106276471.046 8  82812857.19646  20223740.727                    20223745.961
 11  8  2 15 56  0.0000000  0  9G06G07G19G03G20G16G32G13G23
 116359360.634 7  90669672.79445  22142446.523                    22142455.441
 126349757.398 6  98454410.930 6  24043566.297                    24043576.504
 123358508.690 6  96123612.77744  23474354.820                    23474362.516
 112839962.464 7  87927300.76845  21472728.297                    21472736.461
 116874438.587 7  91071013.76445  22240472.492                    22240480.156
 108877880.022 8  84839930.87646  20718772.727                    20718779.629
 121221988.117 7  94458675.75544  23067778.352                    23067787.059
 113289287.090 8  88277399.98345  21558231.438                    21558239.352
 106240578.066 8  82784888.62546  20216910.258                    20216915.781
 11  8  2 15 56 30.0000000  0  9G06G07G19G03G20G16G32G13G23
 116331423.812 7  90647903.85845  22137130.398                    22137138.734
 126289076.723 6  98407127.344 6  24032019.508                    24032029.551
 123266063.979 6  96051577.96044  23456763.063                    23456770.188
 112779090.315 7  87879867.94145  21461144.500                    21461152.512
 116950209.726 7  91130056.16045  22254890.820                    22254899.055
 108930973.222 8  84881302.18146  20728875.930                    20728882.852
 121312446.177 7  94529162.48844  23084991.352                    23085000.789
 113212918.220 8  88217891.78645  21543699.195                    21543706.391
 106205101.657 8  82757244.65446  20210159.633                    20210164.672
 11  8  2 15 57  0.0000000  0  9G06G07G19G03G20G16G32G13G23
 116303971.481 7  90626512.43145  22131906.453                    22131915.000
 126228435.827 6  98359874.677 6  24020480.016                    24020489.727
 123173683.640 6  95979593.29943  23439183.508                    23439191.039
 112718656.915 7  87832776.99445  21449644.734                    21449653.418
 117026260.079 7  91189316.13145  22269362.953                    22269370.898
 108984503.456 8  84923014.03346  20739062.828                    20739069.680
 121403047.451 7  94599760.81144  23102232.891                    23102241.801
 113136759.045 8  88158546.98245  21529206.625                    21529214.063
 106170044.877 8  82729927.67546  20203488.445                    20203493.660
 11  8  2 15 57 30.0000000  0  9G06G07G19G03G20G16G32G13G23
 116277005.379 7  90605499.88545  22126775.008                    22126783.684
 126167834.120 6  98312652.594 5  24008947.914                    24008957.840
 123081370.595 6  95907661.14944  23421616.820                    23421625.148
 112658665.106 7  87786030.13845  21438228.273                    21438236.461
 117102586.398 7  91248791.13645  22283887.336                    22283895.832
 109038468.163 8  84965064.42846  20749331.625                    20749338.371
 121493789.270 7  94670468.64944  23119500.172                    23119509.988
 113060811.581 8  88099367.15545  21514754.133                    21514761.379
 106135409.228 8  82702938.84846  20196897.438                    20196902.719
 11  8  2 15 58  0.0000000  0  9G06G07G19G03G20G16G32G13G23
 116250526.984 7  90584867.38745  22121736.422                    22121745.008
 126107271.289 6  98265460.734 6  23997423.344                    23997432.211
 122989128.016 6  95835783.88144  23404064.227                    23404071.453
 112599117.555 7  87739629.45645  21426896.852                    21426905.184
 117179185.488 7  91308478.69145  22298463.680                    22298471.855
 109092864.441 8  85007451.12146  20759682.938                    20759689.766
 121584668.590 7  94741283.60844  23136793.938                    23136804.363
 112985078.601 8  88040354.45445  21500342.391                    21500350.422
 106101196.747 8  82676279.75546  20190386.984                    20190392.250
 11  8  2 15 58 30.0000000  0  9G06G07G19G03G20G16G32G13G23
 116224538.227 7  90564616.41845  22116791.219                    22116799.332
 126046747.054 6  98218299.002 6  23985905.875                    23985915.246
 122896959.255 6  95763964.15544  23386524.656                    23386532.457
 112540017.537 7  87693577.50745  21415650.531                    21415659.082
 117256054.820 7  91368376.79945  22313091.281                    22313099.883
 109147690.315 8  85050172.55846  20770116.102                    20770122.969
 121675683.076 7  94812203.88444  23154113.547                    23154123.910
 112909562.653 8  87981510.87045  21485972.430                    21485980.035
 106067409.800 8  82649952.25546  20183957.531                    20183962.840
 11  8  2 15 59  0.0000000  0  9G06G07G19G03G20G16G32G13G23
 116199040.848 7  90544748.34445  22111938.461                    22111947.109
 125986260.982 6  98171167.044 6  23974396.008                    23974404.852
 122804867.377 6  95692204.33244  23368999.570                    23369007.453
 112481367.485 7  87647876.17245  21404490.023                    21404497.977
 117333191.297 7  91428483.09945  22327770.016                    22327778.590
 109202943.082 8  85093226.64046  20780630.453                    20780636.949
 121766829.893 7  94883227.28444  23171458.523                    23171468.488
 112834265.892 8  87922838.08545  21471643.742                    21471651.848
 106034050.464 8  82623957.96646  20177609.539                    20177614.797
 11  8  2 15 59 30.0000000  0  9G06G07G19G03G20G16G32G13G23
 116174036.390 7  90525264.34545  22107180.383                    22107188.797
 125925812.387 6  98124064.322 6  23962892.852                    23962901.762
 122712855.524 6  95620506.84944  23351490.789                    23351498.461
 112423170.243 7  87602527.68145  21393415.141                    21393423.434
 117410591.958 7  91488795.24845  22342499.023                    22342507.301
 109258620.190 8  85136611.37946  20791225.586                    20791231.992
 121858106.402 7  94954351.75544  23188827.297                    23188837.445
 112759190.914 8  87864338.10845  21457357.781                    21457365.398
 106001120.596 8  82598298.32346  20171343.203                    20171348.449
 11  8  2 16  0  0.0000000  0  9G06G07G19G03G20G16G32G13G23
 116149526.697 7  90506165.90145  22102516.734                    22102524.531
 125865401.341 6  98076990.848 6  23951396.250                    23951406.434
 122620926.861 6  95548874.25044  23333996.375                    23334005.254
 112365429.011 7  87557534.53145  21382427.203                    21382435.813
 117488254.145 7  91549311.19145  22357277.742                    22357285.848
 109314719.501 8  85180325.10246  20801900.938                    20801907.684
 121949509.895 7  95025575.15844  23206220.813                    23206231.105
 112684340.321 8  87806012.98645  21443113.945                    21443121.629
 105968622.818 8  82572975.38246  20165159.086                    20165164.785
 11  8  2 16  0 30.0000000  0  9G06G07G19G03G20G16G32G13G23
 116125513.642 7  90487454.44845  22097947.102                    22097955.727
 125805027.180 6  98029946.141 6  23939907.336                    23939917.961
 122529084.987 7  95477309.26144  23316520.156                    23316527.453
 112308146.755 7  87512899.01245  21371527.234                    21371535.395
 117566174.656 7  91610028.42245  22372105.305                    22372113.199
 109371238.304 8  85224365.71146  20812655.953                    20812662.727
 122041037.900 6  95096895.61144  23223638.680                    23223648.027
 112609716.574 8  87747864.62745  21428913.570                    21428921.109
 105936559.272 8  82547990.79546  20159057.273                    20159062.969
 11  8  2 16  1  0.0000000  0  9G06G07G19G03G20G16G32G13G23
 116101998.647 7  90469131.06645  22093472.742                    22093480.746
 125744689.337 6  97982929.698 6  23928425.273                    23928435.809
 122437332.832 7  95405814.13744  23299060.117                    23299067.449
 112251325.735 8  87468622.88745  21360714.328                    21360722.672
 117644350.709 7  91670944.77045  22386982.477                    22386990.145
 109428173.987 8  85268731.16246  20823490.516                    20823497.668
 122132687.600 7  95168310.87044  23241079.273                    23241088.781
 112535321.985 8  87689894.82245  21414756.711                    21414764.223
 105904931.702 8  82523345.93146  20153039.250                    20153044.348
 11  8  2 16  1 30.0000000  0  9G06G07G19G03G20G16G32G13G23
 116078982.965 7  90451196.77445  22089092.008                    22089100.598
 125684387.436 6  97935941.275 6  23916950.109                    23916960.379
 122345673.724 6  95334391.55544  23281617.922                    23281625.582
 112194968.592 8  87424708.22945  21349990.016                    21349997.879
 117722778.649 7  91732057.40845  22401906.211                    22401914.617
 109485523.626 8  85313419.17646  20834403.609                    20834410.691
 122224455.713 6  95239818.43244  23258541.859                    23258551.402
 112461158.763 8  87632105.30045  21400644.016                    21400651.715
 105873741.797 8  82499042.10546  20147103.727                    20147108.996
 11  8  2 16  2  0.0000000  0 10G06G07G19G03G10G20G16G32G13G23
 116056468.295 7  90433652.88345  22084808.070                    22084816.156
 125624120.987 6  97888980.463 6  23905482.367                    23905491.629
 122254110.410 7  95263043.62744  23264193.391                    23264201.961
 112139078.240 8  87381157.30745  21339354.305                    21339362.793
 129199904.37916 100675331.68553  24585935.063                    24585945.004
 117801455.620 7  91793364.08045  22416878.102                    22416886.398
 109543284.608 8  85358427.70846  20845395.328                    20845402.273
 122316339.745 6  95311416.28144  23276026.672                    23276036.762
 112387229.374 8  87574497.99745  21386575.789                    21386583.316
 105842991.561 8  82475080.87546  20141252.250                    20141257.621
 11  8  2 16  2 30.0000000  0 10G06G07G19G03G10G20G16G32G13G23
 116034455.472 7  90416500.05045  22080619.039                    22080628.148
 125563888.990 6  97842046.459 6  23894020.398                    23894029.652
 122162645.715 7  95191772.48644  23246788.813                    23246796.633
 112083656.776 8  87337971.75245  21328807.898                    21328816.230
 129138390.692 6 100627398.89143  24574229.500                    24574239.559
 117880378.076 7  91854862.03445  22431896.555                    22431904.926
 109601454.060 8  85403754.53346  20856464.883                    20856471.410
 122408336.389 6  95383101.89344  23293533.242                    23293543.340
 112313535.761 8  87517074.39845  21372552.055                    21372559.883
 105812682.830 8  82451463.67846  20135484.695                    20135490.191
 11  8  2 16  3  0.0000000  0 10G06G07G19G03G10G20G16G32G13G23
 116012947.042 7  90399740.23145  22076525.930                    22076534.543
 125503691.717 6  97795139.526 6  23882565.102                    23882574.453
 122071283.441 6  95120581.18144  23229402.813                    23229410.926
 112028707.395 8  87295154.04745  21318351.539                    21318360.004
 129077307.216 6 100579801.37043  24562605.883                    24562616.004
 117959544.037 7  91916549.74845  22446961.133                    22446969.789
 109660030.096 8  85449398.18046  20867611.242                    20867618.051
 122500443.753 6  95454873.77744  23311060.500                    23311070.754
 112240081.160 8  87459837.05845  21358574.031                    21358581.715
 105782818.228 8  82428192.54846  20129801.898                    20129807.242
 11  8  2 16  3 30.0000000  0 10G06G07G19G03G10G20G16G32G13G23
 115991944.433 7  90383374.57845  22072529.656                    22072537.840
 125443528.833 6  97748259.381 6  23871116.813                    23871126.438
 121980027.007 6  95049472.34444  23212037.008                    23212045.520
 111974233.319 8  87252706.70945  21307985.344                    21307993.695
 129016655.866 6 100532540.62343  24551063.648                    24551074.277
 118038950.488 7  91978424.84045  22462071.820                    22462080.676
 109719009.956 8  85495356.49346  20878834.469                    20878841.367
 122592659.041 6  95526729.76244  23328609.391                    23328618.406
 112166868.044 8  87402787.88945  21344642.313                    21344649.855
 105753399.561 8  82405268.90446  20124203.180                    20124208.473
 11  8  2 16  4  0.0000000  0 10G06G07G19G03G10G20G16G32G13G23
 115971449.149 7  90367404.21545  22068629.680                    22068637.574
 125383400.039 6  97701405.822 6  23859674.406                    23859683.789
 121888879.662 7  94978448.51044  23194693.008                    23194700.488
 111920236.997 8  87210631.64445  21297710.516                    21297718.949
 128956438.291 6 100485617.85143  24539605.383                    24539615.297
 118118594.192 7  92040484.82745  22477227.203                    22477236.020
 109778391.506 8  85541627.80146  20890134.680                    20890141.773
 122684979.682 6  95598667.83844  23346177.563                    23346186.695
 112093899.196 8  87345929.04945  21330756.945                    21330764.492
 105724429.092 8  82382694.50446  20118690.508                    20118695.934
 11  8  2 16  4 30.0000000  0 10G06G07G19G03G10G20G16G32G13G23
 115951462.822 7  90351830.47245  22064826.211                    22064834.996
 125323304.987 6  97654578.578 6  23848236.898                    23848248.488
 121797844.580 6  94907512.15044  23177369.359                    23177376.648
 111866720.773 8  87168930.69245  21287527.133                    21287534.922
 128896656.200 6 100439034.42443  24528229.109                    24528239.043
 118198472.366 7  92102727.48045  22492427.883                    22492436.688
 109838171.823 8  85588209.84846  20901510.555                    20901517.309
 122777402.945 6  95670685.90044  23363764.492                    23363774.195
 112021177.130 8  87289262.50746  21316918.250                    21316925.793
 105695908.778 8  82360470.87446  20113263.164                    20113268.617
 11  8  2 16  5  0.0000000  0 10G06G07G19G03G10G20G16G32G13G23
 115931986.666 7  90336654.26745  22061119.781                    22061128.844
 125263243.328 6  97607777.386 6  23836808.867                    23836819.695
 121706925.114 7  94836665.87544  23160067.977                    23160075.133
 111813687.915 8  87127606.37945  21277434.648                    21277443.277
 128837311.458 6 100392791.79643  24516935.898                    24516946.355
 118278581.910 7  92165150.43544  22507672.828                    22507680.832
 109898348.736 7  85635100.92646  20912961.867                    20912968.367
 122869926.246 6  95742781.89744  23381371.711                    23381381.551
 111948703.977 8  87232789.93045  21303126.852                    21303134.414
 105667840.583 8  82338599.55046  20107922.422                    20107927.598
 11  8  2 16  5 30.0000000  0 10G06G07G19G03G10G20G16G32G13G23
 115913022.515 7  90321877.01245  22057511.000                    22057519.621
 125203214.730 6  97561001.956 6  23825385.828                    23825395.773
 121616124.575 6  94765912.28444  23142788.523                    23142796.012
 111761140.834 8  87086660.60645  21267435.172                    21267443.688
 128778405.840 6 100346891.32943  24505726.898                    24505736.391
 118358919.916 7  92227751.40945  22522960.180                    22522968.746
 109958919.358 8  85682298.78846  20924488.063                    20924495.352
 122962546.843 7  95814953.70444  23398996.492                    23399006.336
 111876482.420 8  87176513.39845  21289383.875                    21289391.000
 105640226.724 8  82317082.24846  20102667.469                    20102672.617
 11  8  2 16  6  0.0000000  0 10G06G07G19G03G10G20G16G32G13G23
 115894571.364 7  90307499.49445  22053999.859                    22054008.207
 125143218.733 7  97514251.924 7  23813969.492                    23813978.965
 121525445.919 7  94695253.65844  23125533.648                    23125540.605
 111709082.020 8  87046095.29046  21257528.969                    21257536.863
 128719940.506 5 100301333.93843  24494600.828                    24494610.613
 118439483.767 7  92290528.37444  22538291.336                    22538299.492
 110019880.922 7  85729801.26746  20936088.477                    20936095.555
 123055262.074 6  95887199.25544  23416639.328                    23416649.168
 111804514.819 8  87120434.76345  21275688.547                    21275695.781
 105613068.827 8  82295920.24346  20097499.461                    20097504.773
 11  8  2 16  6 30.0000000  0 10G06G07G19G03G10G20G16G32G13G23
 115876634.788 7  90293522.94745  22050586.703                    22050595.520
 125083254.833 7  97467526.886 6  23802559.367                    23802568.801
 121434892.539 6  94624692.64744  23108301.078                    23108308.844
 111657514.296 8  87005912.64745  21247715.539                    21247724.117
 128661917.576 6 100256121.29542  24483559.305                    24483568.363
 118520269.794 7  92353478.46245  22553664.547                    22553672.793
 110081230.999 7  85777606.50246  20947763.227                    20947769.988
 123148068.808 6  95959516.11744  23434300.195                    23434310.082
 111732803.709 8  87064555.97645  21262042.500                    21262049.934
 105586368.879 8  82275115.08347  20092418.656                    20092424.230
 11  8  2 16  7  0.0000000  0 10G06G07G19G03G10G20G16G32G13G23
 115859214.093 7  90279948.39345  22047271.648                    22047280.047
 125023322.716 7  97420826.609 6  23791154.000                    23791163.449
 121344467.815 7  94554231.90144  23091093.414                    23091101.184
 111606440.044 8  86966114.54346  21237996.477                    21238004.934
 128604338.227 6 100211254.26042  24472602.305                    24472612.000
 118601274.968 7  92416599.30444  22569079.406                    22569087.160
 110142966.824 8  85825712.30946  20959511.422                    20959518.164
 123240964.843 6  96031902.54644  23451977.844                    23451988.055
 111661351.725 8  87008879.12545  21248445.742                    21248452.750
 105560128.751 8  82254668.22046  20087425.273                    20087430.941
 11  8  2 16  7 30.0000000  0 10G06G07G19G03G10G20G16G32G13G23
 115842310.568 7  90266776.80645  22044054.758                    22044063.781
 124963421.903 7  97374150.688 6  23779755.023                    23779764.082
 121254174.752 7  94483873.75844  23073911.750                    23073918.633
 111555861.716 8  86926702.86646  21228371.969                    21228380.578
 128547204.342 6 100166734.34942  24461730.133                    24461739.273
 118682496.618 7  92479888.85044  22584535.125                    22584543.582
 110205085.864 8  85874116.72246  20971331.828                    20971338.645
 123333947.177 6  96104356.21644  23469672.039                    23469681.891
 111590161.437 8  86953406.19845  21234898.844                    21234906.188
 105534350.391 8  82234581.18046  20082519.789                    20082525.313
 11  8  2 16  8  0.0000000  0 10G06G07G19G03G10G20G16G32G13G23
 115825925.318 7  90254009.06545  22040936.539                    22040945.711
 124903551.940 6  97327498.815 6  23768361.836                    23768370.895
 121164016.593 7  94413620.69344  23056755.281                    23056762.559
 111505781.762 8  86887679.53246  21218842.094                    21218850.309
 128490517.110 6 100122562.44942  24450943.195                    24450953.297
 118763931.405 7  92543344.47145  22600031.883                    22600039.594
 110267585.358 7  85922817.59646  20983225.773                    20983232.254
 123427012.997 6  96176874.95344  23487381.102                    23487391.828
 111519234.943 8  86898138.81345  21221401.859                    21221409.016
 105509035.351 8  82214855.17246  20077702.734                    20077707.699
 11  8  2 16  8 30.0000000  0 10G06G07G19G03G10G20G16G32G13G23
 115810060.036 7  90241646.50645  22037918.109                    22037926.363
 124843712.789 6  97280870.929 6  23756975.125                    23756983.852
 121073996.895 7  94343475.55444  23039625.117                    23039632.742
 111456203.171 8  86849046.88046  21209407.914                    21209415.887
 128434278.360 6 100078740.05643  24440241.258                    24440251.160
 118845576.612 7  92606964.06545  22615567.984                    22615576.602
 110330463.131 8  85971813.23346  20995190.602                    20995197.480
 123520159.903 6  96249456.87244  23505107.016                    23505117.574
 111448575.268 8  86843079.34745  21207955.688                    21207963.145
 105484186.217 8  82195492.20346  20072973.742                    20072979.441
 11  8  2 16  9  0.0000000  0 10G06G07G19G03G10G20G16G32G13G23
 115794715.933 7  90229690.07145  22034997.891                    22035006.289
 124783903.938 7  97234266.681 6  23745594.102                    23745603.391
 120984118.887 7  94273440.82644  23022522.172                    23022529.023
 111407128.087 8  86810806.57446  21200068.734                    21200076.996
 128378489.672 6 100035268.34243  24429625.063                    24429634.816
 118927429.200 7  92670745.23744  22631144.477                    22631152.828
 110393716.061 7  86021101.19446  21007227.375                    21007234.016
 123613385.196 6  96322099.86944  23522847.664                    23522857.348
 111378184.587 8  86788229.48446  21194560.867                    21194567.992
 105459804.529 8  82176493.47846  20068334.414                    20068339.707
 11  8  2 16  9 30.0000000  0 10G06G07G19G03G10G20G16G32G13G23
 115779894.091 7  90218140.56645  22032177.391                    22032185.938
 124724125.071 7  97187685.768 6  23734218.070                    23734227.348
 120894385.576 7  94203518.86345  23005446.188                    23005453.633
 111358559.233 8  86772960.72346  21190826.250                    21190834.953
 128323152.464 6  99992148.43043  24419094.930                    24419104.309
 119009486.019 7  92734685.54344  22646759.438                    22646767.734
 110457341.718 8  86070679.59746  21019334.977                    21019341.730
 123706686.106 6  96394801.78044  23540602.570                    23540612.426
 111308065.508 8  86733591.25745  21181217.055                    21181224.668
 105435892.293 8  82157860.56647  20063783.813                    20063789.352
 11  8  2 16 10  0.0000000  0 10G06G07G19G03G10G20G16G32G13G23
 115765595.954 7  90206999.16345  22029456.539                    22029464.594
 124664375.659 7  97141127.810 6  23722848.656                    23722857.313
 120804800.468 7  94133712.35444  22988398.438                    22988405.789
 111310498.888 8  86735511.11145  21181681.039                    21181689.742
 128268268.320 6  99949381.57043  24408650.477                    24408659.840
 119091743.726 7  92798782.40944  22662412.344                    22662420.465
 110521337.504 7  86120546.42146  21031513.047                    21031519.758
 123800059.944 6  96467560.53144  23558370.734                    23558380.598
 111238220.587 8  86679166.65546  21167926.531                    21167934.012
 105412451.239 8  82139594.80547  20059323.422                    20059328.563
 11  8  2 16 10 30.0000000  0 10G06G07G19G03G10G20G16G32G13G23
 115751822.499 7  90196266.59645  22026835.688                    22026843.773
 124604655.644 7  97094592.777 6  23711483.961                    23711493.141
 120715366.772 7  94064023.83645  22971380.016                    22971387.340
 111262949.585 8  86698459.71045  21172632.461                    21172640.699
 128213838.683 6  99906968.89142  24398292.563                    24398302.953
 119174200.055 7  92863034.04144  22678103.117                    22678112.027
 110585700.649 8  86170699.48846  21043761.453                    21043768.012
 123893504.106 6  96540374.08243  23576151.961                    23576162.469
 111168652.382 8  86624957.68246  21154687.930                    21154695.719
 105389483.320 8  82121697.71647  20054953.070                    20054958.090
 11  8  2 16 11  0.0000000  0 10G06G07G19G03G10G20G16G32G13G23
 115738575.007 7  90185943.88445  22024314.828                    22024322.832
 124544964.261 7  97048080.081 6  23700124.922                    23700134.715
 120626087.755 7  93994455.84045  22954390.852                    22954398.375
 111215913.694 8  86661808.36746  21163682.203                    21163690.094
 128159865.004 6  99864911.49442  24388021.211                    24388032.152
 119256851.466 7  92927437.66044  22693831.508                    22693840.000
 110650428.251 8  86221136.55746  21056078.531                    21056085.059
 123987015.713 6  96613240.19643  23593947.078                    23593958.086
 111099363.208 8  86570966.13846  21141502.813                    21141510.125
 105366989.971 8  82104170.42646  20050672.258                    20050677.633
 11  8  2 16 11 30.0000000  0 10G06G07G19G03G10G20G16G32G13G23
 115725854.411 7  90176031.74045  22021894.094                    22021902.469
 124485301.347 7  97001589.558 6  23688771.609                    23688780.648
 120536966.443 7  93925010.74645  22937431.477                    22937439.273
 111169393.573 8  86625558.93445  21154829.117                    21154837.434
 128106348.759 5  99823210.57642  24377837.328                    24377848.391
 119339695.017 7  92991991.01544  22709596.438                    22709604.488
 110715517.888 8  86271855.72946  21068464.438                    21068471.332
 124080592.055 6  96686156.73643  23611754.219                    23611764.285
 111030355.699 8  86517194.06946  21128371.125                    21128378.297
 105344972.861 8  82087014.21747  20046482.648                    20046487.770
 11  8  2 16 12  0.0000000  0 10G06G07G19G03G10G20G16G32G13G23
 115713662.286 7  90166531.38445  22019573.820                    22019582.453
 124425666.830 7  96955121.178 6  23677423.422                    23677432.336
 120448006.447 7  93855691.33244  22920502.938                    22920510.320
 111123391.589 8  86589713.23846  21146075.758                    21146083.855
 128053291.50215  99781867.22353  24367741.555                    24367752.563
 119422728.011 7  93056691.98345  22725396.922                    22725405.973
 110780967.300 8  86322855.24846  21080918.930                    21080925.742
 124174230.760 6  96759121.84643  23629572.883                    23629583.176
 110961632.754 8  86463643.73546  21115293.234                    21115301.164
 105323434.502 8  82070231.07046  20042384.063                    20042389.598
 11  8  2 16 12 30.0000000  0 10G06G07G19G03G10G20G16G32G13G23
 115701999.358 7  90157443.39345  22017354.703                    22017363.020
 124366060.188 7  96908674.515 6  23666080.508                    23666089.457
 120359211.017 7  93786500.15844  22903605.414                    22903612.699
 111077910.442 8  86554273.39146  21137420.578                    21137429.059
 128000694.707 5  99740882.73942  24357732.047                    24357743.711
 119505946.926 7  93121537.81345  22741233.344                    22741241.750
 110846773.211 7  86374132.56446  21093441.539                    21093447.938
 124267928.793 6  96832133.23743  23647403.156                    23647413.262
 110893196.726 8  86410316.97346  21102270.539                    21102277.867
 105302376.328 8  82053822.09847  20038376.680                    20038381.914
 11  8  2 16 13  0.0000000  0 10G06G07G19G03G10G20G16G32G13G23
 115690867.003 7  90148768.83845  22015235.906                    22015244.609
 124306480.988 7  96862249.243 6  23654742.531                    23654752.336
 120270583.344 7  93717439.67745  22886740.711                    22886747.613
 111032952.278 8  86519241.05946  21128865.805                    21128873.559
 127948559.473 5  99700257.87242  24347812.148                    24347822.301
 119589349.025 7  93186526.38344  22757104.031                    22757112.871
 110912933.332 8  86425685.88146  21106031.070                    21106037.887
 124361683.872 6  96905189.06443  23665244.102                    23665254.145
 110825050.091 8  86357215.70546  21089302.563                    21089309.996
 105281800.270 8  82037788.78947  20034461.258                    20034466.715
 11  8  2 16 13 30.0000000  0 10G06G07G19G03G10G20G16G32G13G23
 115680266.250 7  90140508.51945  22013218.984                    22013227.301
 124246928.828 7  96815845.043 6  23643410.391                    23643419.949
 120182126.745 7  93648512.52044  22869907.734                    22869914.684
 110988519.546 8  86484618.15046  21120410.039                    21120418.203
 127896887.446 6  99659993.95243  24337978.203                    24337989.449
 119672931.480 7  93251655.51244  22773009.000                    22773017.738
 110979445.028 8  86477513.15146  21118687.750                    21118694.785
 124455493.194 6  96978287.14743  23683096.203                    23683105.609
 110757195.409 8  86304341.93546  21076390.125                    21076397.656
 105261708.058 8  82022132.50447  20030637.781                    20030642.891
 11  8  2 16 14  0.0000000  0 10G06G07G19G03G10G20G16G32G13G23
 115670197.859 7  90132663.01345  22011302.641                    22011311.309
 124187403.506 7  96769461.758 6  23632082.883                    23632092.316
 120093844.368 7  93579721.12344  22853107.922                    22853115.363
 110944614.147 8  86450406.15946  21112055.156                    21112063.719
 127845679.960 6  99620091.99843  24328234.180                    24328244.598
 119756690.948 7  93316922.56044  22788948.281                    22788956.219
 111046305.241 8  86529611.99546  21131410.906                    21131418.367
 124549353.835 6  97051425.23543  23700957.148                    23700966.980
 110689635.022 8  86251697.48946  21063534.023                    21063541.172
 105242101.141 8  82006854.37347  20026906.961                    20026911.949
 11  8  2 16 14 30.0000000  0 10G06G07G19G03G10G20G16G32G13G23
 115660663.105 7  90125233.34545  22009488.734                    22009496.875
 124127904.467 6  96723098.944 6  23620759.727                    23620769.902
 120005739.604 7  93511068.10645  22836342.117                    22836349.070
 110901238.705 8  86416607.12746  21103801.141                    21103809.680
 127794938.339 6  99580553.09043  24318579.078                    24318588.934
 119840624.360 7  93382325.15644  22804920.352                    22804929.375
 111113511.635 8  86581980.57646  21144200.227                    21144206.652
 124643263.361 6  97124601.41943  23718827.430                    23718837.105
 110622371.797 8  86199284.59046  21050734.336                    21050741.551
 105222981.325 8  81991955.80847  20023268.313                    20023273.984
 11  8  2 16 15  0.0000000  0 10G06G07G19G03G10G20G16G32G13G23
 115651662.924 7  90118220.21945  22007776.047                    22007784.508
 124068431.645 6  96676756.524 6  23609443.055                    23609452.395
 119917815.938 7  93442556.18945  22819610.680                    22819618.000
 110858395.742 8  86383223.00346  21095648.477                    21095656.809
 127744663.948 6  99541378.24443  24309011.602                    24309022.297
 119924729.014 7  93447861.17344  22820924.320                    22820933.410
 111181061.977 8  86634617.17546  21157054.477                    21157061.504
 124737219.046 6  97197813.53843  23736706.617                    23736716.586
 110555408.215 8  86147105.18846  21037991.859                    21037998.953
 105204350.545 8  81977438.29547  20019723.086                    20019728.723
 11  8  2 16 15 30.0000000  0 10G06G07G19G03G10G20G16G32G13G23
 115643198.129 7  90111624.25745  22006165.367                    22006173.688
 124008984.769 7  96630434.337 6  23598131.023                    23598140.047
 119830076.278 7  93374187.66345  22802914.086                    22802922.094
 110816087.325 8  86350255.41646  21087597.352                    21087605.699
 127694858.041 6  99502568.45743  24299534.250                    24299543.824
 120009001.821 7  93513528.22644  22836961.406                    22836970.016
 111248952.951 8  86687519.20046  21169973.961                    21169980.586
 124831218.122 6  97271059.51643  23754594.117                    23754604.242
 110488746.424 8  86095160.94446  21025306.281                    21025313.605
 105186210.239 8  81963302.98147  20016271.086                    20016276.766
 11  8  2 16 16  0.0000000  0 10G06G07G19G03G10G20G16G32G13G23
 115635269.846 7  90105446.38145  22004656.391                    22004665.184
 123949563.608 7  96584132.184 6  23586823.602                    23586832.719
 119742524.038 7  93305965.15345  22786253.602                    22786259.824
 110774315.240 8  86317705.74146  21079648.508                    21079656.875
 127645521.956 6  99464124.74143  24290146.320                    24290155.570
 120093439.447 7  93579323.70644  22853029.992                    22853038.070
 111317181.786 8  86740684.49246  21182957.594                    21182964.375
 124925258.243 6  97344337.41643  23772489.078                    23772499.848
 110422389.256 8  86043454.06646  21012678.742                    21012686.137
 105168562.079 8  81949551.15347  20012912.789                    20012918.023
 11  8  2 16 16 30.0000000  0 10G06G07G19G03G10G20G16G32G13G23
 115627878.851 7  90099687.12945  22003250.063                    22003258.559
 123890167.605 7  96537849.645 6  23575520.422                    23575530.031
 119655162.958 7  93237891.60545  22769629.125                    22769636.500
 110733081.949 8  86285575.91346  21071802.047                    21071810.168
 127596657.282 6  99426048.40643  24280847.273                    24280856.672
 120178039.049 7  93645245.40444  22869128.242                    22869137.176
 111385745.856 8  86794111.00146  21196004.563                    21196011.391
 125019336.465 7  97417645.03643  23790391.523                    23790402.125
 110356339.477 8  85991986.71846  21000110.305                    21000117.688
 105151408.027 8  81936184.34247  20009648.438                    20009653.707
 11  8  2 16 17  0.0000000  0 10G06G07G19G03G10G20G16G32G13G23
 115621026.499 7  90094347.62545  22001945.914                    22001954.430
 123830796.769 7  96491586.745 6  23564222.602                    23564232.164
 119567996.231 7  93169969.52345  22753042.320                    22753049.980
 110692389.953 8  86253867.88346  21064058.594                    21064066.957
 127548265.475 6  99388340.51843  24271638.695                    24271648.043
 120262797.827 7  93711291.13944  22885257.852                    22885266.516
 111454643.038 8  86847797.09246  21209115.852                    21209122.309
 125113450.392 6  97490980.47743  23808301.195                    23808312.254
 110290599.347 8  85940760.64846  20987600.031                    20987607.605
 105134749.770 8  81923203.86647  20006478.734                    20006484.043
 11  8  2 16 17 30.0000000  0 10G06G07G19G03G10G20G16G32G13G23
 115614713.214 7  90089428.15545  22000744.813                    22000753.441
 123771450.685 7  96445343.109 6  23552929.328                    23552938.996
 119481026.987 7  93102201.29145  22736492.383                    22736499.773
 110652241.551 8  86222583.41646  21056418.688                    21056426.742
 127500347.117 6  99351001.51843  24262520.039                    24262529.375
 120347712.870 7  93777458.64344  22901416.297                    22901424.570
 111523870.444 8  86901740.49946  21222288.969                    21222295.984
 125207597.492 6  97564341.71143  23826217.055                    23826227.828
 110225171.679 8  85889778.04346  20975149.648                    20975156.777
 105118588.871 8  81910610.95347  20003403.320                    20003408.430
 11  8  2 16 18  0.0000000  0 10G06G07G19G03G10G20G16G32G13G23
 115608940.015 7  90084929.54845  21999646.367                    21999654.629
 123712129.198 7  96399118.611 6  23541641.609                    23541650.211
 119394258.490 7  93034589.49845  22719980.383                    22719987.891
 110612638.428 8  86191723.85346  21048882.375                    21048890.238
 127452903.333 6  99314032.36243  24253491.578                    24253501.672
 120432780.896 7  93843745.38144  22917604.344                    22917612.641
 111593425.169 8  86955938.95646  21235525.219                    21235531.293
 125301774.802 6  97637726.53543  23844138.305                    23844149.066
 110160058.808 8  85839040.73646  20962759.398                    20962766.219
 105102926.621 8  81898406.59747  20000422.953                    20000428.117
 11  8  2 16 18 30.0000000  0 10G06G07G19G03G10G20G16G32G13G23
 115603707.525 7  90080852.25745  21998650.469                    21998658.875
 123652831.638 7  96352912.780 6  23530357.250                    23530365.695
 119307693.599 7  92967136.35845  22703508.430                    22703515.102
 110573582.955 8  86161291.03946  21041450.094                    21041458.293
 127405935.735 6  99277434.24343  24244553.938                    24244563.844
 120517998.593 7  93910148.72644  22933821.242                    22933829.395
 111663304.689 8  87010390.50146  21248822.547                    21248829.184
 125395979.608 6  97711132.77943  23862064.609                    23862076.332
 110095263.088 8  85788550.57146  20950428.969                    20950435.918
 105087764.737 8  81886592.13947  19997537.914                    19997542.828
 11  8  2 16 19  0.0000000  0 10G06G07G19G03G10G20G16G32G13G23
 115599016.518 7  90077196.92245  21997757.648                    21997766.238
 123593557.704 7  96306725.369 6  23519077.625                    23519086.289
 119221336.092 7  92899844.83745  22687074.445                    22687082.125
 110535077.224 8  86131286.58346  21034122.820                    21034130.859
 127359445.506 6  99241208.07843  24235706.742                    24235717.113
 120603363.373 7  93976666.69044  22950065.227                    22950074.289
 111733506.023 8  87065092.81146  21262181.742                    21262188.184
 125490209.346 6  97784558.44943  23879996.398                    23880007.555
 110030787.350 8  85738309.73646  20938159.461                    20938166.453
 105073104.807 8  81875168.81447  19994748.109                    19994753.434
 11  8  2 16 19 30.0000000  0 10G06G07G19G03G10G20G16G32G13G23
 115594868.013 7  90073964.31545  21996968.703                    21996977.141
 123534307.331 7  96260556.333 6  23507801.688                    23507811.484
 119135189.276 7  92832717.47745  22670681.438                    22670688.898
 110497122.950 8  86101711.83446  21026900.633                    21026908.531
 127313433.611 6  99205354.65843  24226951.328                    24226961.234
 120688872.009 7  94043296.74044  22966336.555                    22966345.500
 111804026.652 8  87120043.93046  21275600.953                    21275607.758
 125584461.632 6  97858001.69143  23897931.797                    23897943.156
 109966634.246 8  85688320.30946  20925951.656                    20925958.602
 105058948.411 8  81864137.85946  19992054.305                    19992058.965
 11  8  2 16 20  0.0000000  0 10G06G07G19G03G10G20G16G32G13G23
 115591262.754 7  90071155.01445  21996282.719                    21996290.602
 123475080.257 7  96214405.467 6  23496531.711                    23496541.195
 119049256.327 7  92765756.76045  22654328.672                    22654335.992
 110459722.246 8  86072568.43146  21019783.570                    21019791.391
 127267901.523 6  99169875.13743  24218286.234                    24218296.840
 120774521.969 7  94110036.90344  22982635.070                    22982644.113
 111874864.073 8  87175241.89346  21289080.641                    21289087.531
 125678733.646 6  97931460.29143  23915871.438                    23915882.461
 109902806.062 8  85638584.06846  20913805.625                    20913812.570
 105045297.179 8  81853500.52847  19989456.641                    19989461.773
 11  8  2 16 20 30.0000000  0 10G06G07G19G03G10G20G16G32G13G23
 115588201.569 7  90068769.68245  21995699.750                    21995708.164
 123415876.323 7  96168272.638 6  23485264.875                    23485274.441
 118963540.864 7  92698965.52345  22638017.867                    22638025.398
 110422877.675 8  86043858.38646  21012771.883                    21012780.230
 127222850.271 6  99134770.29743  24209713.641                    24209724.020
 120860309.850 7  94176884.53544  22998960.711                    22998969.320
 111946015.870 8  87230684.82946  21302620.648                    21302627.953
 125773023.001 6  98004932.37843  23933814.055                    23933825.031
 109839305.658 8  85589103.23646  20901721.859                    20901728.824
 105032152.899 8  81843258.23647  19986955.195                    19986960.445
 11  8  2 16 21  0.0000000  0 10G06G07G19G03G10G20G16G32G13G23
 115585684.870 7  90066808.62845  21995220.617                    21995229.430
 123356695.034 7  96122157.426 6  23474003.867                    23474012.699
 118878045.896 7  92632346.12245  22621748.469                    22621756.320
 110386590.666 8  86015582.79046  21005866.805                    21005874.781
 127178280.601 6  99100040.71343  24201232.203                    24201242.938
 120946232.548 7  94243837.22244  23015311.258                    23015319.945
 112017478.934 8  87286370.30746  21316219.859                    21316226.715
 125867326.809 6  98078415.79743  23951759.859                    23951770.445
 109776135.255 8  85539879.55246  20889700.750                    20889708.371
 105019516.502 8  81833411.69647  19984550.516                    19984555.664
 11  8  2 16 21 30.0000000  0 10G06G07G19G03G10G20G16G32G13G23
 115583713.496 7  90065272.49545  21994845.891                    21994853.918
 123297535.799 6  96076059.377 6  23462745.891                    23462754.313
 118792774.694 7  92565901.05645  22605522.094                    22605529.207
 110350863.465 7  85987743.42246  20999068.383                    20999076.156
 127134193.997 6  99065687.54443  24192843.094                    24192853.461
 121032287.460 7  94310892.93144  23031686.531                    23031695.898
 112089250.363 8  87342296.07846  21329877.516                    21329884.441
 125961642.495 7  98151908.48143  23969708.242                    23969718.004
 109713297.444 7  85490915.03446  20877743.203                    20877750.684
 105007389.670 8  81823962.20047  19982242.742                    19982248.262
 11  8  2 16 22  0.0000000  0 10G06G07G19G03G10G20G16G32G13G23
 115582287.922 7  90064161.67145  21994574.344                    21994582.832
 123238399.108 6  96029978.895 6  23451492.406                    23451501.160
 118707730.596 7  92499632.95545  22589338.539                    22589346.012
 110315698.070 8  85960341.81646  20992376.266                    20992384.613
 127090591.162 6  99031711.31243  24184545.125                    24184556.699
 121118471.211 7  94378049.04044  23048087.266                    23048095.961
 112161327.992 8  87398460.44146  21343593.320                    21343600.281
 126055967.393 7  98225408.32143  23987656.805                    23987667.125
 109650794.863 8  85442211.72946  20865849.156                    20865856.637
 104995773.866 8  81814910.92147  19980032.422                    19980037.914
 11  8  2 16 22 30.0000000  0 10G06G07G19G03G10G20G16G32G13G23
 115581409.210 7  90063476.96945  21994407.180                    21994415.898
 123179284.276 7  95983915.475 6  23440242.867                    23440252.188
 118622916.892 7  92433544.39445  22573199.055                    22573206.266
 110281096.586 8  85933379.61246  20985792.219                    20985800.516
 127047473.942 6  98998113.49443  24176341.336                    24176351.340
 121204781.011 6  94445303.37644  23064511.023                    23064519.895
 112233709.126 8  87454861.29846  21357367.453                    21357374.043
 126150299.266 7  98298913.60143  24005608.625                    24005618.445
 109588630.515 8  85393771.98646  20854019.836                    20854027.023
 104984671.204 8  81806259.48947  19977919.938                    19977925.082
 11  8  2 16 23  0.0000000  0 10G06G07G19G03G10G20G16G32G13G23
 115581077.417 7  90063218.43245  21994344.117                    21994352.395
 123120191.125 7  95937868.918 6  23428997.750                    23429007.125
 118538336.966 7  92367637.97345  22557103.719                    22557111.246
 110247060.670 8  85906858.11746  20979315.195                    20979323.449
 127004842.576 6  98964894.24443  24168227.922                    24168237.883
 121291213.615 6  94512653.37944  23080958.719                    23080968.137
 112306390.735 8  87511496.30346  21371197.984                    21371204.910
 126244634.995 7  98372421.85843  24023559.414                    24023569.922
 109526806.392 8  85345597.37046  20842254.648                    20842262.047
 104974082.187 8  81798008.30047  19975904.828                    19975910.063
 11  8  2 16 23 30.0000000  0 10G06G07G19G03G10G20G16G32G13G23
 115581293.246 7  90063386.63245  21994385.313                    21994393.820
 123061119.410 6  95891839.070 6  23417757.094                    23417766.063
 118453993.859 7  92301916.11945  22541054.258                    22541060.891
 110213592.200 7  85880778.79346  20972946.063                    20972954.582
 126962698.301 6  98932054.53842  24160207.469                    24160217.973
 121377766.300 7  94580096.96044  23097429.320                    23097438.941
 112379370.155 8  87568363.36546  21385085.000                    21385092.426
 126338972.140 6  98445931.17843  24041511.617                    24041522.055
 109465325.237 8  85297689.98746  20830555.383                    20830562.879
 104964008.437 8  81790158.61747  19973987.672                    19973993.078
 11  8  2 16 24  0.0000000  0 10G06G07G19G03G10G20G16G32G13G23
 115582057.435 7  90063982.09945  21994530.664                    21994539.109
 123002069.014 6  95845825.866 6  23406519.633                    23406528.840
 118369891.033 7  92236381.48245  22525049.969                    22525056.559
 110180693.213 7  85855143.21946  20966686.063                    20966694.270
 126921042.257 6  98899595.26043  24152281.336                    24152290.984
 121464436.178 7  94647631.85144  23113922.336                    23113931.277
 112452644.994 8  87625460.62146  21399029.063                    21399036.047
 126433308.392 6  98519439.87743  24059463.148                    24059473.586
 109404189.422 7  85250051.71346  20818921.703                    20818928.941
 104954451.826 8  81782711.89547  19972169.211                    19972174.301
 11  8  2 16 24 30.0000000  0 10G06G07G19G03G10G20G16G32G13G23
 115583370.464 7  90065005.23645  21994780.188                    21994788.797
 122943039.520 6  95799828.889 6  23395287.422                    23395296.102
 118286031.869 7  92171036.71345  22509091.781                    22509099.426
 110148365.268 7  85829952.61246  20960533.938                    20960542.348
 126879875.255 6  98867517.06242  24144447.438                    24144458.199
 121551219.993 7  94715255.53144  23130436.828                    23130445.699
 112526212.418 8  87682785.86745  21413028.594                    21413035.898
 126527641.010 6  98592945.71243  24077414.445                    24077424.629
 109343401.533 8  85202684.55246  20807354.086                    20807361.445
 104945413.452 8  81775669.00247  19970449.047                    19970454.547
 11  8  2 16 25  0.0000000  0 10G06G07G19G03G10G20G16G32G13G23
 115585232.777 7  90066456.38245  21995134.445                    21995142.984
 122884030.861 7  95753848.175 6  23384057.891                    23384066.551
 118202419.582 7  92105884.30945  22493181.086                    22493188.242
 110116610.755 7  85805208.84446  20954491.305                    20954499.734
 126839198.007 6  98835820.48742  24136706.641                    24136716.707
 121638114.954 6  94782965.84444  23146972.508                    23146981.117
 112600069.764 8  87740337.03546  21427083.109                    21427090.160
 126621967.318 6  98666446.59743  24095363.594                    24095374.301
 109282964.060 8  85155590.43446  20795853.375                    20795861.008
 104936894.532 8  81769030.86947  19968828.000                    19968833.441
 11  8  2 16 25 30.0000000  0 10G06G07G19G03G10G20G16G32G13G23
 115587645.127 7  90068336.13445  21995594.078                    21995601.898
 122825042.889 6  95707883.580 6  23372833.250                    23372841.871
 118119057.735 7  92040927.05745  22477317.906                    22477324.734
 110085431.105 8  85780913.02446  20948558.336                    20948566.559
 126799011.992 6  98804506.70543  24129059.695                    24129069.266
 121725118.229 6  94850760.54544  23163529.266                    23163537.914
 112674214.567 8  87798112.18346  21441192.602                    21441199.395
 126716284.943 6  98739940.70443  24113312.031                    24113322.320
 109222879.766 8  85108771.51646  20784419.602                    20784426.945
 104928896.899 8  81762798.93947  19967305.867                    19967311.445
 11  8  2 16 26  0.0000000  0 10G06G07G19G03G10G20G16G32G13G23
 115590607.599 7  90070644.53645  21996157.672                    21996165.762
 122766074.766 6  95661934.434 6  23361610.891                    23361620.141
 118035949.403 7  91976167.33845  22461502.305                    22461510.109
 110054828.112 8  85757066.53846  20942734.336                    20942742.688
 126759317.953 6  98773576.27843  24121506.047                    24121516.184
 121812226.561 6  94918637.09944  23180105.055                    23180113.730
 112748644.029 8  87856109.14846  21455356.672                    21455363.258
 126810591.162 6  98813425.94443  24131258.070                    24131268.477
 109163150.786 8  85062229.47746  20773053.273                    20773060.836
 104921421.484 8  81756973.92347  19965883.719                    19965889.219
 11  8  2 16 26 30.0000000  0 10G06G07G19G03G10G20G16G32G13G23
 115594120.720 7  90073382.03045  21996826.313                    21996834.559
 122707126.899 7  95616001.073 6  23350394.695                    23350403.152
 117953097.797 7  91911607.68145  22445736.898                    22445743.863
 110024803.462 8  85733670.72046  20937021.203                    20937029.578
 126720116.499 6  98743029.69643  24114046.484                    24114056.164
 121899436.862 6  94986593.13244  23196700.836                    23196709.160
 112823355.430 8  87914325.78946  21469572.945                    21469580.125
 126904883.331 6  98886900.22143  24149201.266                    24149212.445
 109103780.187 8  85015966.68646  20761755.633                    20761762.902
 104914469.526 8  81751556.80647  19964560.883                    19964566.164
 11  8  2 16 27  0.0000000  0 10G06G07G19G03G10G20G16G32G13G23
 115598184.990 7  90076548.98445  21997599.313                    21997608.336
 122648199.159 7  95570083.404 6  23339181.156                    23339189.688
 117870506.090 7  91847250.54145  22430019.906                    22430026.895
 109995358.871 8  85710726.91746  20931417.828                    20931426.188
 126681408.787 6  98712867.82143  24106680.461                    24106690.504
 121986746.295 6  95054626.38744  23213314.688                    23213323.758
 112898346.201 8  87972760.13545  21483843.398                    21483850.324
 126999159.086 6  98960361.70443  24167141.805                    24167152.703
 109044770.355 8  84969985.01646  20750526.570                    20750533.641
 104908042.511 8  81746548.72447  19963337.984                    19963342.934
 11  8  2 16 27 30.0000000  0 10G06G07G19G03G10G20G16G32G13G23
 115602800.832 7  90080145.74945  21998477.820                    21998486.141
 122589291.466 7  95524181.348 6  23327970.383                    23327979.680
 117788177.694 7  91783098.59445  22414353.305                    22414360.379
 109966496.194 8  85688236.54846  20925925.172                    20925933.930
 126643195.654 6  98683091.35343  24099409.648                    24099418.820
 122074152.334 6  95122734.88344  23229948.070                    23229956.523
 112973613.767 8  88031410.16746  21498166.398                    21498173.555
 127093415.778 6  99033808.38643  24185077.391                    24185089.246
 108986123.702 8  84924286.33146  20739366.328                    20739374.004
 104902141.988 8  81741950.89647  19962215.086                    19962220.699
 11  8  2 16 28  0.0000000  0 10G06G07G19G03G10G20G16G32G13G23
 115607968.291 7  90084172.32145  21999461.391                    21999469.328
 122530402.975 6  95478294.277 6  23316764.828                    23316773.504
 117706115.794 7  91719154.30345  22398737.336                    22398744.535
 109938217.061 8  85666200.88546  20920544.148                    20920552.242
 126605477.696 6  98653700.77243  24092231.992                    24092241.168
 122161651.434 6  95190915.94144  23246598.656                    23246607.066
 113049155.052 8  88090273.47746  21512541.625                    21512548.617
 127187650.737 6  99107238.10343  24203010.711                    24203021.949
 108927842.129 8  84878872.13346  20728275.883                    20728283.391
 104896768.581 8  81737763.81447  19961192.570                    19961197.809
 11  8  2 16 28 30.0000000  0 10G06G07G19G03G10G20G16G32G13G23
 115613688.055 7  90088629.27545  22000549.961                    22000558.590
 122471533.881 7  95432422.316 6  23305562.594                    23305571.090
 117624323.953 7  91655420.45545  22383173.055                    22383179.984
 109910523.168 8  85644621.24946  20915274.297                    20915282.383
 126568256.151 6  98624696.95243  24085148.469                    24085158.281
 122249240.734 6  95259167.30344  23263265.789                    23263274.676
 113124967.915 8  88149348.42146  21526968.109                    21526975.012
 127281861.553 6  99180649.02243  24220938.117                    24220949.570
 108869928.827 8  84833744.89146  20717255.180                    20717262.828
 104891924.101 8  81733988.88447  19960270.586                    19960275.863
 11  8  2 16 29  0.0000000  0 10G06G07G19G03G10G20G16G32G13G23
 115619960.457 7  90093516.85345  22001743.250                    22001751.676
 122412684.178 6  95386565.477 6  23294364.063                    23294372.344
 117542805.299 7  91591899.48345  22367659.820                    22367667.203
 109883415.930 8  85623498.73546  20910115.625                    20910124.188
 126531531.404 6  98596080.27243  24078160.453                    24078169.953
 122336917.490 6  95327486.77744  23279949.758                    23279959.453
 113201049.522 8  88208632.76146  21541445.930                    21541453.020
 127376045.873 6  99254039.31943  24238861.180                    24238871.457
 108812386.554 8  84788906.77046  20706305.242                    20706312.480
 104887609.788 8  81730627.06747  19959449.633                    19959454.805
 11  8  2 16 29 30.0000000  0 10G06G07G19G03G10G20G16G32G13G23
 115626785.608 7  90098835.14745  22003041.844                    22003050.711
 122353853.483 6  95340723.428 6  23283168.055                    23283177.223
 117461563.150 7  91528593.96745  22352200.469                    22352207.242
 109856896.967 8  85602834.62446  20905069.086                    20905077.598
 126495304.338 6  98567851.40543  24071266.047                    24071276.105
 122424678.773 6  95395872.13844  23296650.945                    23296660.145
 113277397.125 8  88268124.37645  21555974.469                    21555981.543
 127470200.946 6  99327406.77943  24256778.414                    24256789.594
 108755217.428 8  84744359.41446  20695426.172                    20695433.844
 104883826.610 8  81727679.11847  19958729.578                    19958734.926
 11  8  2 16 30  0.0000000  0 10G06G07G19G03G10G20G16G32G13G23
 115634163.671 7  90104584.28645  22004446.438                    22004454.672
 122295041.568 6  95294896.022 6  23271977.117                    23271985.496
 117380600.480 7  91465506.20645  22336793.813                    22336800.887
 109830967.947 8  85582630.20146  20900135.492                    20900143.340
 126459575.841 6  98540011.04244  24064467.414                    24064477.355
 122512521.515 6  95464320.94244  23313367.039                    23313375.938
 113354008.007 8  88327821.13745  21570552.891                    21570560.020
 127564324.234 6  99400749.47643  24274688.625                    24274699.957
 108698423.891 8  84700104.71946  20684619.117                    20684626.063
 104880575.707 8  81725145.93047  19958111.313                    19958116.441
 11  8  2 16 30 30.0000000  0 10G06G07G19G03G10G20G16G32G13G23
 115642094.888 7  90110764.44145  22005955.617                    22005963.621
 122236248.134 6  95249083.032 6  23260788.750                    23260796.871
 117299920.667 7  91402638.88445  22321440.031                    22321447.926
 109805630.594 8  85562886.82046  20895314.008                    20895322.070
 126424346.278 6  98512559.46243  24057763.539                    24057772.828
 122600442.540 6  95532830.76044  23330097.781                    23330106.160
 113430879.564 8  88387721.02245  21585181.070                    21585187.805
 127658413.018 6  99474065.32743  24292594.070                    24292604.066
 108642008.327 8  84656144.54446  20673883.250                    20673890.359
 104877857.718 8  81723028.00147  19957594.078                    19957599.719
 11  8  2 16 31  0.0000000  0 10G06G07G19G03G10G20G16G32G13G23
 115650579.521 7  90117375.83845  22007570.172                    22007578.539
 122177473.136 6  95203284.397 6  23249603.891                    23249612.473
 117219526.837 7  91339994.38845  22306142.531                    22306149.680
 109780886.321 8  85543605.57846  20890604.992                    20890613.113
 126389616.648 6  98485497.43143  24051154.453                    24051164.648
 122688439.162 7  95601399.49244  23346842.930                    23346851.473
 113508009.237 8  88447822.03245  21599859.055                    21599865.723
 127752464.815 6  99547352.34643  24310491.336                    24310501.563
 108585973.537 8  84612481.07946  20663220.344                    20663227.418
 104875674.349 8  81721326.65947  19957178.383                    19957184.168
 11  8  2 16 31 30.0000000  0 10G06G07G19G03G10G20G16G32G13G23
 115659617.855 7  90124418.68545  22009289.922                    22009298.441
 122118716.511 7  95157500.075 6  23238422.922                    23238431.672
 117139422.471 7  91277575.45045  22290898.945                    22290906.230
 109756736.224 8  85524787.32746  20886009.367                    20886017.652
 126355387.653 6  98458825.52243  24044641.750                    24044650.637
 122776508.303 6  95670024.71844  23363601.727                    23363610.988
 113585394.339 8  88508122.08745  21614584.609                    21614591.500
 127846477.412 6  99620608.73743  24328381.367                    24328392.887
 108530321.931 8  84569116.19846  20652630.289                    20652637.273
 104874026.752 8  81720042.79147  19956865.156                    19956870.402
 11  8  2 16 32  0.0000000  0 10G06G07G19G03G10G20G16G32G13G23
 115669209.862 7  90131892.97345  22011115.359                    22011123.695
 122059978.094 6  95111729.930 6  23227245.672                    23227254.250
 117059610.758 7  91215384.54745  22275711.219                    22275718.039
 109733182.089 8  85506433.45346  20881527.219                    20881535.641
 126321659.874 6  98432544.15443  24038222.867                    24038232.785
 122864647.295 6  95738704.35444  23380374.375                    23380384.184
 113663032.416 8  88568619.26145  21629358.727                    21629365.402
 127940448.140 6  99693832.53443  24346263.656                    24346274.895
 108475056.010 8  84526051.85146  20642113.617                    20642120.531
 104872915.983 8  81719177.23447  19956653.430                    19956658.520
 11  8  2 16 32 30.0000000  0 10G06G07G19G03G10G20G16G32G13G23
 115679355.736 7  90139798.85345  22013046.039                    22013054.250
 122001257.683 7  95065973.801 6  23216071.445                    23216079.941
 116980094.911 7  91153424.17845  22260579.602                    22260586.602
 109710225.165 8  85488544.94446  20877158.578                    20877166.688
 126288433.937 6  98406653.85343  24031899.914                    24031910.016
 122952853.132 6  95807436.09544  23397160.523                    23397168.691
 113740920.683 8  88629311.38746  21644180.539                    21644187.141
 128034374.476 6  99767021.76842  24364136.523                    24364148.441
 108420178.289 8  84483289.99946  20631670.641                    20631677.965
 104872342.996 8  81718730.73547  19956544.508                    19956550.156
 11  8  2 16 33  0.0000000  0 10G06G07G19G03G10G20G16G32G13G23
 115690055.811 7  90148136.56945  22015082.063                    22015090.578
 121942555.449 7  95020231.856 6  23204900.742                    23204909.461
 116900878.477 7  91091697.10745  22245505.547                    22245512.445
 109687866.944 8  85471122.95946  20872903.695                    20872912.227
 126255710.531 6  98381155.09443  24025673.094                    24025683.297
 123041122.962 6  95876217.71544  23413957.266                    23413965.988
 113819056.621 8  88690196.51445  21659049.258                    21659056.246
 128128254.022 6  99840174.53143  24382001.625                    24382013.434
 108365691.661 8  84440832.88946  20621302.078                    20621309.363
 104872309.093 8  81718704.29247  19956537.969                    19956543.637
 11  8  2 16 33 30.0000000  0 10G06G07G19G03G10G20G16G32G13G23
 115701309.846 7  90156905.94045  22017223.602                    22017232.082
 121883871.039 7  94974503.775 6  23193733.727                    23193742.082
 116821964.326 7  91030205.60745  22230488.664                    22230495.641
 109666108.701 7  85454168.47746  20868763.609                    20868771.941
 126223489.983 6  98356048.17743  24019541.836                    24019551.066
 123129453.525 6  95945046.66744  23430765.594                    23430774.348
 113897437.266 8  88751272.31645  21673964.742                    21673971.211
 128222084.159 6  99913288.78843  24399857.555                    24399868.535
 108311597.715 8  84398681.77646  20611008.039                    20611015.488
 104872815.088 8  81719098.55347  19956634.414                    19956639.777
 11  8  2 16 34  0.0000000  0 10G06G07G19G03G10G20G16G32G13G23
 115713117.992 7  90166107.10045  22019470.625                    22019479.488
 121825204.199 7  94928789.390 7  23182569.586                    23182578.867
 116743355.765 7  90968952.22245  22215529.586                    22215536.902
 109644952.328 8  85437682.98646  20864737.797                    20864745.590
 126191773.311 6  98331333.90143  24013506.547                    24013515.918
 123217842.340 6  96013920.99244  23447585.500                    23447594.926
 113976060.490 8  88812537.14445  21688925.945                    21688932.730
 128315862.398 6  99986362.62643  24417703.328                    24417714.184
 108257899.466 8  84356838.98246  20600790.156                    20600796.949
 104873862.006 8  81719914.30947  19956833.930                    19956838.703
 11  8  2 16 34 30.0000000  0 10G06G07G19G03G10G20G16G32G13G23
 115725480.595 7  90175740.26445  22021823.234                    22021831.727
 121766554.985 7  94883088.757 6  23171408.766                    23171417.656
 116665056.189 7  90907939.58745  22200630.156                    22200636.684
 109624399.254 7  85421667.60546  20860826.609                    20860834.477
 126160560.937 6  98307012.57444  24007566.461                    24007576.863
 123306286.470 6  96082838.41844  23464416.102                    23464424.434
 114054923.705 8  88873988.97745  21703933.055                    21703940.168
 128409586.714 6 100059394.40443  24435538.367                    24435549.258
 108204599.358 8  84315306.44246  20590647.156                    20590654.363
 104875451.094 8  81721152.55347  19957136.172                    19957141.355
 11  8  2 16 35  0.0000000  0 10G06G07G19G03G10G20G16G32G13G23
 115738397.316 7  90185805.23645  22024281.273                    22024290.035
 121707923.345 7  94837401.799 7  23160252.008                    23160260.531
 116587068.889 7  90847170.30845  22185789.375                    22185796.438
 109604450.310 7  85406122.96946  20857030.336                    20857038.598
 126129853.217 6  98283084.50944  24001723.625                    24001733.352
 123394782.804 7  96151796.53844  23481256.406                    23481265.242
 114134024.504 8  88935625.94245  21718985.563                    21718992.965
 128503254.236 6 100132381.92043  24453362.234                    24453373.938
 108151699.870 8  84274086.07546  20580580.625                    20580588.234
 104877583.093 8  81722813.83747  19957541.586                    19957546.973
 11  8  2 16 35 30.0000000  0 10G06G07G19G03G10G20G16G32G13G23
 115751868.555 7  90196302.29945  22026844.875                    22026853.453
 121649309.335 7  94791728.565 7  23149097.891                    23149106.922
 116509397.034 7  90786646.81945  22171008.328                    22171015.297
 109585106.916 8  85391050.19346  20853349.500                    20853357.645
 126099650.967 6  98259550.30444  23995976.234                    23995986.039
 123483328.797 7  96220793.32743  23498106.102                    23498115.004
 114213359.812 8  88997445.63145  21734082.250                    21734089.191
 128596862.909 6 100205323.61043  24471175.734                    24471187.285
 108099203.722 8  84233180.00446  20570591.516                    20570598.684
 104880259.604 8  81724899.42947  19958051.172                    19958056.238
 11  8  2 16 36  0.0000000  0 10G06G07G19G03G10G20G16G32G13G23
 115765893.793 7  90207231.02745  22029513.758                    22029522.203
 121590712.361 7  94746068.628 7  23137946.836                    23137955.586
 116432043.653 7  90726371.49945  22156288.852                    22156296.035
 109566370.079 8  85376450.06245  20849783.695                    20849792.188
 126069954.491 6  98236410.21744  23990325.602                    23990335.469
 123571921.439 6  96289826.46943  23514964.836                    23514973.719
 114292927.003 8  89059446.01645  21749223.555                    21749230.805
 128690409.797 6 100278217.15142  24488976.813                    24488988.625
 108047112.936 8  84192589.78846  20560678.688                    20560685.852
 104883480.709 8  81727409.37547  19958664.180                    19958669.105
 11  8  2 16 36 30.0000000  0 10G06G07G19G03G10G20G16G32G13G23
 115780473.002 7  90218591.41845  22032287.500                    22032296.738
 121532132.733 7  94700422.239 7  23126799.383                    23126808.668
 116355011.957 7  90666346.84245  22141630.188                    22141637.395
 109548240.997 8  85362323.50646  20846334.180                    20846342.109
 126040763.850 6  98213664.28544  23984770.008                    23984780.129
 123660557.587 6  96358893.51644  23531831.594                    23531840.906
 114372723.399 8  89121624.99845  21764408.727                    21764415.332
 128783892.304 6 100351060.52342  24506766.711                    24506777.227
 107995429.689 8  84152317.13446  20550843.602                    20550850.699
 104887247.275 8  81730344.36347  19959380.773                    19959386.164
 11  8  2 16 37  0.0000000  0 10G06G07G19G03G10G20G16G32G13G23
 115795606.411 7  90230383.65945  22035167.742                    22035176.172
 121473570.361 7  94654789.285 7  23115655.633                    23115664.777
 116278305.371 7  90606575.50645  22127033.406                    22127040.270
 109530721.570 8  85348672.01546  20843000.195                    20843008.332
 126012080.138 6  98191313.37544  23979311.492                    23979321.418
 123749234.493 6  96427992.29844  23548706.438                    23548715.879
 114452746.798 8  89183980.87545  21779636.781                    21779643.457
 128877308.292 5 100423852.02243  24524542.977                    24524554.145
 107944157.000 8  84112364.40146  20541086.750                    20541093.746
 104891561.050 8  81733705.73347  19960201.836                    19960207.133
 11  8  2 16 37 30.0000000  0 10G06G07G19G03G10G20G16G32G13G23
 115811293.373 7  90242607.21345  22038153.125                    22038161.805
 121415024.815 7  94609169.447 7  23104514.383                    23104523.410
 116201926.524 7  90547059.56645  22112499.234                    22112505.754
 109513812.100 8  85335495.81346  20839782.414                    20839790.559
 125983903.365 6  98169357.47844  23973950.320                    23973960.430
 123837949.256 6  96497120.61643  23565588.031                    23565597.336
 114532994.191 8  89246511.29045  21794907.008                    21794913.703
 128970655.249 6 100496589.81943  24542306.031                    24542317.633
 107893296.807 8  84072733.08746  20531408.469                    20531415.461
 104896422.004 8  81737493.48547  19961126.680                    19961132.316
 11  8  2 16 38  0.0000000  0 10G06G07G19G03G10G20G16G32G13G23
 115827534.105 7  90255262.28745  22041243.391                    22041251.934
 121356496.257 7  94563562.824 7  23093376.852                    23093386.254
 116125878.798 7  90487801.63445  22098027.148                    22098033.926
 109497514.085 8  85322796.06446  20836680.914                    20836689.672
 125956234.128 6  98147797.06943  23968684.836                    23968694.922
 123926698.865 6  96566276.06644  23582476.969                    23582486.430
 114613463.250 8  89309214.42345  21810219.602                    21810226.699
 129063930.643 6 100569271.76543  24560057.430                    24560067.715
 107842851.712 8  84033425.22346  20521808.859                    20521816.074
 104901831.137 8  81741708.39747  19962155.898                    19962161.203
 11  8  2 16 38 30.0000000  0 10G06G07G19G03G10G20G16G32G13G23
 115844328.385 7  90268348.71945  22044439.461                    22044447.996
 121297984.389 7  94517969.202 7  23082242.820                    23082251.449
 116050165.597 7  90428804.35945  22083619.383                    22083626.719
 109481828.640 8  85310573.65246  20833696.156                    20833704.367
 125929072.574 6  98126632.27343  23963515.242                    23963526.734
 124015480.455 6  96635456.45143  23599371.664                    23599380.766
 114694151.219 8  89372088.15245  21825574.383                    21825580.816
 129157132.066 6 100641896.08943  24577792.805                    24577803.539
 107792824.142 8  83994442.70346  20512288.961                    20512296.313
 104907789.491 8  81746351.26547  19963289.844                    19963295.180
 11  8  2 16 39  0.0000000  0 10G06G07G19G03G10G20G16G32G13G23
 115861676.021 7  90281866.34045  22047740.195                    22047749.488
 121239489.391 7  94472388.763 7  23071110.906                    23071120.309
 115974790.100 7  90370070.22845  22069276.125                    22069283.496
 109466756.922 8  85298829.47546  20830827.922                    20830836.613
 125902419.344 6  98105863.55043  23958443.727                    23958454.609
 124104291.287 6  96704659.60543  23616271.547                    23616281.094
 114775055.660 8  89435130.54545  21840970.109                    21840976.715
 129250257.201 6 100714460.94343  24595514.008                    24595524.934
 107743216.586 8  83955787.47746  20502848.859                    20502855.957
 104914297.802 8  81751422.66847  19964528.289                    19964533.613
 11  8  2 16 39 30.0000000  0 10G06G07G19G03G10G20G16G32G13G23
 115879576.507 7  90295814.76445  22051146.984                    22051155.770
 121181010.926 7  94426821.193 7  23059982.727                    23059991.754
 115899755.215 7  90311601.51245  22054997.664                    22055004.934
 109452299.688 8  85287564.12546  20828076.906                    20828084.852
 125876274.429 6  98085490.90543  23953468.672                    23953479.105
 124193128.298 6  96773883.11943  23633176.344                    23633186.395
 114856173.898 7  89498339.53545  21856405.836                    21856413.383
 129343303.177 6 100786964.15343  24613219.750                    24613231.453
 107694030.603 8  83917460.74246  20493489.117                    20493496.578
 104921356.358 8  81756922.84047  19965871.531                    19965876.676
 11  8  2 16 40  0.0000000  0 10G06G07G19G03G10G20G16G32G13G23
 115898030.201 7  90310194.27245  22054658.445                    22054667.164
 121122549.456 7  94381266.843 7  23048857.945                    23048866.945
 115825064.433 7  90253400.94445  22040784.500                    22040791.629
 109438458.541 8  85276778.82746  20825443.109                    20825451.078
 125850638.288 6  98065514.74543  23948589.430                    23948600.664
 124281989.165 6  96843125.28243  23650086.992                    23650095.254
 114937503.691 8  89561713.36645  21871882.648                    21871889.516
 129436268.341 6 100859404.38243  24630910.500                    24630921.781
 107645269.728 8  83879465.26346  20484210.297                    20484217.902
 104928966.689 8  81762852.96747  19967319.711                    19967325.109
 11  8  2 16 40 30.0000000  0 10G06G07G19G03G10G20G16G32G13G23
 115917036.235 7  90325004.18445  22058275.422                    22058283.891
 121064104.454 7  94335725.319 7  23037736.531                    23037744.957
 115750720.562 7  90195470.66345  22026636.844                    22026644.016
 109425233.647 8  85266473.73246  20822926.359                    20822934.848
 125825511.159 6  98045935.18643  23943807.844                    23943818.676
 124370870.445 6  96912383.34043  23667000.547                    23667009.000
 115019042.038 8  89625249.69945  21887398.945                    21887406.176
 129529149.552 6 100931779.19443  24648585.266                    24648596.461
 107596935.593 8  83841802.31046  20475012.719                    20475020.129
 104937128.951 8  81769213.17447  19968873.180                    19968878.504
 11  8  2 16 41  0.0000000  0 10G06G07G19G03G10G20G16G32G13G23
 115936594.835 7  90340244.68645  22061996.859                    22062005.520
 121005676.334 7  94290196.950 6  23026618.336                    23026626.477
 115676727.100 7  90137813.45145  22012556.820                    22012564.254
 109412626.423 8  85256649.94446  20820527.313                    20820535.625
 125800893.584 6  98026752.67543  23939124.156                    23939134.047
 124459769.772 6  96981655.44543  23683916.930                    23683926.352
 115100786.857 7  89688946.93845  21902954.367                    21902961.566
 129621945.180 6 101004087.30543  24666243.836                    24666255.742
 107549031.397 8  83804474.38646  20465896.609                    20465903.727
 104945844.331 8  81776004.37647  19970531.453                    19970536.875
 11  8  2 16 41 30.0000000  0 10G06G07G19G03G10G20G16G32G13G23
 115956705.498 7  90355915.35345  22065824.125                    22065832.445
 120947264.782 7  94244681.489 6  23015502.445                    23015510.574
 115603086.897 7  90080431.49845  21998543.820                    21998550.637
 109400637.822 8  85247308.19845  20818245.789                    20818254.234
 125776785.782 6  98007967.38643  23934536.125                    23934546.508
 124548684.357 6  97050939.43843  23700837.172                    23700847.023
 115182735.684 7  89752803.12345  21918548.734                    21918556.164
 129714652.289 6 101076326.50543  24683885.539                    24683897.629
 107501558.958 8  83767482.88646  20456862.758                    20456870.180
 104955113.398 8  81783227.02547  19972295.508                    19972301.039
 11  8  2 16 42  0.0000000  0 10G06G07G19G03G10G20G16G32G13G23
 115977367.911 7  90372015.95845  22069755.977                    22069764.883
 120888870.078 7  94199179.156 6  23004390.438                    23004398.535
 115529803.385 7  90023327.49045  21984598.156                    21984605.434
 109389268.913 8  85238449.31845  20816082.227                    20816090.293
 125753187.879 6  97989579.42543  23930046.375                    23930055.984
 124637611.245 6  97120233.01443  23717759.219                    23717768.918
 115264885.672 8  89816816.06545  21934181.172                    21934188.750
 129807268.925 6 101148495.09342  24701509.508                    24701521.875
 107454521.042 8  83730829.97646  20447912.016                    20447919.316
 104964936.830 8  81790881.65847  19974164.773                    19974170.113
 11  8  2 16 42 30.0000000  0 10G06G07G19G03G10G20G16G32G13G23
 115998581.392 7  90388545.96745  22073792.820                    22073801.098
 120830492.008 7  94153689.771 6  22993281.625                    22993289.785
 115456879.149 7  89966503.41245  21970721.234                    21970727.723
 109378520.376 8  85230073.84746  20814037.250                    20814045.316
 125730099.933 6  97971588.81843  23925652.781                    23925661.973
 124726547.479 6  97189533.84343  23734683.789                    23734693.074
 115347234.226 7  89880983.73045  21949852.250                    21949859.086
 129899792.250 6 101220591.04042  24719117.172                    24719128.547
 107407919.312 8  83694516.95746  20439043.813                    20439050.965
 104975314.992 8  81798968.53247  19976139.797                    19976145.133
 11  8  2 16 43  0.0000000  0 10G06G07G19G03G10G20G16G32G13G23
 116020346.008 7  90405505.41345  22077934.031                    22077943.117
 120772130.367 7  94108213.190 6  22982175.727                    22982183.305
 115384317.520 7  89909961.90945  21956913.047                    21956920.012
 109368392.990 7  85222182.40046  20812110.031                    20812117.656
 125707522.001 6  97953995.57343  23921356.133                    23921365.828
 124815490.415 6  97258839.96443  23751608.523                    23751618.125
 115429778.752 8  89945304.09145  21965559.703                    21965567.000
 129992219.909 6 101292612.39842  24736704.992                    24736717.176
 107361756.343 8  83658545.82846  20430259.625                    20430266.551
 104986248.538 8  81807488.16747  19978220.039                    19978225.559
 11  8  2 16 43 30.0000000  0 10G06G07G19G03G10G20G16G32G13G23
 116042660.926 7  90422893.65345  22082180.586                    22082189.398
 120713785.302 7  94062749.520 6  22971073.414                    22971080.379
 115312121.827 7  89853705.54645  21943174.672                    21943181.328
 109358887.680 8  85214775.67246  20810301.125                    20810309.262
 125685454.526 6  97936800.14343  23917155.664                    23917166.324
 124904436.987 6  97328148.85544  23768535.359                    23768544.469
 115512516.934 7  90009775.34445  21981304.375                    21981311.129
 130084549.713 6 101364557.58042  24754275.586                    24754286.965
 107316034.483 8  83622918.41446  20421558.758                    20421565.793
 104997738.185 8  81816441.13447  19980406.805                    19980411.820
 11  8  2 16 44  0.0000000  0 10G06G07G19G03G10G20G16G32G13G23
 116065526.087 7  90440710.66645  22086531.586                    22086540.520
 120655457.151 7  94017299.049 6  22959973.555                    22959981.230
 115240295.350 7  89797736.87545  21929506.148                    21929513.070
 109350005.233 8  85207854.28346  20808610.797                    20808618.875
 125663897.483 6  97920002.46443  23913054.523                    23913064.145
 124993384.830 6  97397458.77944  23785461.844                    23785471.102
 115595446.581 7  90074395.81745  21997085.305                    21997092.375
 130176779.589 6 101436424.83942  24771825.867                    24771838.234
 107270756.301 8  83587636.72546  20412942.734                    20412949.809
 105009784.704 8  81825828.03047  19982698.836                    19982704.234
 11  8  2 16 44 30.0000000  0  9G06G07G19G03G10G20G16G13G23
 116088941.281 7  90458956.29045  22090987.672                    22090996.082
 120597146.106 7  93971861.904 6  22948877.344                    22948885.273
 115168841.313 7  89742058.42345  21915908.945                    21915916.031
 109341746.893 8  85201419.22646  20807039.328                    20807047.480
 125642851.421 6  97903602.91343  23909050.063                    23909058.465
 125082331.373 6  97466767.67143  23802387.070                    23802397.359
 115678565.250 7  90139163.57545  22012902.250                    22012909.395
 107225924.329 8  83552702.73446  20404411.352                    20404418.504
 105022389.030 8  81835649.56946  19985097.266                    19985102.973
 11  8  2 16 45  0.0000000  0  9G06G07G19G03G10G20G16G13G23
 116112905.772 7  90477629.92745  22095547.719                    22095556.457
 120538851.896 7  93926437.887 6  22937784.148                    22937792.219
 115097762.379 7  89686672.26745  21902383.383                    21902390.105
 109334113.422 8  85195471.06346  20805586.625                    20805594.602
 125622316.184 6  97887601.43443  23905141.977                    23905151.086
 125171273.286 6  97536072.95043  23819312.453                    23819322.395
 115761870.255 7  90204076.51445  22028754.953                    22028762.004
 107181540.782 8  83518118.16146  20395965.344                    20395972.652
 105035551.287 8  81845905.86747  19987602.008                    19987607.770
 11  8  2 16 45 30.0000000  0  9G06G07G19G03G10G20G16G13G23
 116137418.761 7  90496730.96745  22100212.609                    22100220.813
 120480574.159 7  93881026.700 6  22926694.305                    22926702.047
 115027061.456 7  89631580.66845  21888929.125                    21888936.582
 109327104.587 8  85190009.64046  20804253.047                    20804261.254
 125602291.653 6  97871997.90443  23901331.664                    23901341.215
 125260207.763 6  97605372.46043  23836235.969                    23836246.184
 115845358.707 7  90269132.41345  22044641.977                    22044649.148
 107137607.311 7  83483884.30246  20387605.078                    20387612.605
 105049271.653 8  81856597.05747  19990213.297                    19990218.645
 11  8  2 16 46  0.0000000  0  9G06G07G19G03G10G20G16G13G23
 116162479.613 7  90516258.91445  22104981.461                    22104989.934
 120422312.855 7  93835628.331 6  22915607.492                    22915615.340
 114956741.428 7  89576785.85745  21875547.586                    21875554.348
 109320721.301 8  85185035.65846  20803038.039                    20803046.895
 125582777.608 6  97856792.15843  23897618.492                    23897627.492
 125349131.937 6  97674663.88443  23853157.969                    23853167.516
 115929028.118 7  90334329.32345  22060563.531                    22060571.266
 107094125.956 8  83450002.72446  20379331.070                    20379337.977
 105063550.207 8  81867723.19947  19992930.211                    19992935.508
 11  8  2 16 46 30.0000000  0  9G06G07G19G03G10G20G16G13G23
 116188088.018 7  90536213.52145  22109854.648                    22109863.391
 120364068.645 7  93790243.293 6  22904523.602                    22904532.438
 114886805.580 7  89522290.40545  21862239.570                    21862246.148
 109314964.669 8  85180549.96945  20801942.789                    20801951.363
 125563774.437 6  97841984.47843  23894001.492                    23894011.164
 125438043.355 6  97743945.42643  23870077.563                    23870087.512
 116012876.296 7  90399665.52145  22076519.773                    22076526.895
 107051099.661 8  83416475.76046  20371143.211                    20371150.770
 105078388.061 8  81879285.15647  19995754.031                    19995759.262
 11  8  2 16 47  0.0000000  0  9G06G07G19G03G10G20G16G13G23
 116214243.267 7  90556594.23845  22114831.195                    22114839.898
 120305841.224 7  93744871.323 7  22893443.320                    22893452.234
 114817256.914 7  89468096.66045  21849004.898                    21849011.934
 109309834.856 7  85176552.72446  20800966.328                    20800974.625
 125545281.968 6  97827574.79643  23890483.383                    23890492.504
 125526939.004 6  97813214.65343  23886993.742                    23887003.656
 116096900.590 7  90465138.96145  22092509.227                    22092516.320
 107008530.274 8  83383304.81446  20363042.750                    20363049.867
 105093785.611 8  81891283.23347  19998683.688                    19998689.164
 11  8  2 16 47 30.0000000  0  9G06G07G19G03G10G20G16G13G23
 116240944.975 7  90577400.77745  22119912.953                    22119921.301
 120247630.811 7  93699512.649 7  22882366.500                    22882375.090
 114748098.712 7  89414207.17645  21835844.445                    21835851.324
 109305332.615 7  85173044.49346  20800109.945                    20800118.266
 125527300.184 6  97813562.99843  23887061.266                    23887070.832
 125615816.322 6  97882469.59243  23903906.313                    23903916.270
 116181098.797 7  90530747.92445  22108531.461                    22108538.180
 106966420.487 8  83350491.99146  20355029.383                    20355036.781
 105109743.075 8  81903717.60447  20001720.266                    20001725.988
 11  8  2 16 48  0.0000000  0  9G06G07G19G03G10G20G16G13G23
 116268192.346 7  90598632.50045  22125098.320                    22125105.547
 120189437.304 7  93654167.128 7  22871291.742                    22871300.848
 114679333.615 7  89360624.02145  21822758.727                    21822765.090
 109301458.507 8  85170025.72645  20799372.781                    20799381.289
 125509828.956 6  97799949.05843  23883736.867                    23883746.363
 125704672.697 6  97951708.22043  23920815.609                    23920825.691
 116265468.295 7  90596490.36045  22124586.570                    22124593.809
 106924772.350 8  83318038.91146  20347104.023                    20347110.996
 105126260.796 8  81916588.53246  20004863.648                    20004869.027
 11  8  2 16 48 30.0000000  0 10G08G06G07G19G03G10G20G16G13G23
 131250285.06716 102273018.49653  24976107.078                    24976116.961
 116295984.948 7  90620289.08245  22130386.508                    22130394.980
 120131260.765 7  93608834.822 7  22860221.594                    22860230.164
 114610964.720 7  89307349.58445  21809748.570                    21809755.609
 109298213.481 8  85167497.16446  20798755.328                    20798763.316
 125492868.705 6  97786733.27943  23880509.219                    23880518.660
 125793505.305 6  98020928.31243  23937720.070                    23937730.289
 116350006.968 7  90662364.61745  22140673.609                    22140681.266
 106883588.288 8  83285947.43246  20339266.727                    20339274.141
 105143339.545 8  81929896.63246  20008113.430                    20008119.109
 11  8  2 16 49  0.0000000  0 10G08G06G07G19G03G10G20G16G13G23
 131185489.891 6 102222528.83843  24963776.367                    24963787.676
 116324321.443 7  90642369.48045  22135778.188                    22135786.926
 120073101.129 7  93563515.687 7  22849154.234                    22849162.430
 114542994.781 7  89254386.03945  21796814.547                    21796821.305
 109295597.044 7  85165458.41345  20798257.125                    20798265.453
 125476418.639 7  97773915.05143  23877379.594                    23877388.742
 125882310.850 6  98090127.32143  23954619.234                    23954628.621
 116434711.638 7  90728368.22845  22156792.438                    22156799.961
 106842869.514 8  83254218.52246  20331518.578                    20331525.738
 105160978.957 8  81943641.62047  20011470.148                    20011475.508
 11  8  2 16 49 30.0000000  0 10G08G06G07G19G03G10G20G16G13G23
 131120650.412 6 102172004.66843  24951438.125                    24951449.121
 116353201.797 7  90664873.65545  22141274.477                    22141283.008
 120014958.956 7  93518210.154 7  22838090.133                    22838098.492
 114475427.417 7  89201736.17045  21783956.680                    21783962.563
 109293610.435 8  85163910.42145  20797879.148                    20797887.469
 125460479.255 7  97761494.74943  23874345.500                    23874355.570
 125971087.228 6  98159303.62343  23971512.703                    23971522.387
 116519580.423 7  90794499.71145  22172941.977                    22172949.867
 106802619.182 8  83222854.62446  20323858.641                    20323866.523
 105179180.092 8  81957824.30046  20014933.797                    20014939.500
 11  8  2 16 50  0.0000000  0 10G08G06G07G19G03G10G20G16G13G23
 131055765.832 6 102121445.32443  24939090.578                    24939102.172
 116382624.916 7  90687800.77345  22146873.008                    22146882.207
 119956833.876 7  93472917.935 7  22827029.672                    22827038.125
 114408265.132 7  89149401.94745  21771176.242                    21771182.633
 109292253.845 7  85162853.36745  20797620.875                    20797629.230
 125445050.170 7  97749472.09543  23871408.875                    23871419.109
 126059831.278 6  98228454.72043  23988400.508                    23988409.902
 116604610.824 7  90860757.13745  22189123.211                    22189130.250
 106762839.174 8  83191857.21546  20316288.906                    20316296.645
 105197942.678 8  81972444.48146  20018504.273                    20018510.203
 11  8  2 16 50 30.0000000  0 10G08G06G07G19G03G10G20G16G13G23
 130990835.600 6 102070850.41743  24926734.563                    24926746.289
 116412590.041 7  90711150.21845  22152576.094                    22152584.297
 119898725.936 7  93427639.065 7  22815971.883                    22815979.996
 114341510.566 7  89097385.44245  21758472.938                    21758479.598
 109291527.619 8  85162287.50245  20797482.453                    20797490.313
 125430130.870 6  97737846.66744  23868570.422                    23868580.531
 126148540.381 6  98297578.58343  24005281.438                    24005291.633
 116689800.131 7  90927138.38945  22205334.297                    22205341.660
 106723531.482 8  83161227.85346  20308809.180                    20308816.355
 105217266.859 8  81987502.26646  20022181.328                    20022187.238
 11  8  2 16 51  0.0000000  0 10G08G06G07G19G03G10G20G16G13G23
 130925859.586 6 102020219.81843  24914370.141                    24914381.363
 116443096.742 7  90734921.66245  22158381.344                    22158390.207
 119840635.766 7  93382374.027 7  22804917.398                    22804925.680
 114275167.217 7  89045689.36945  21745848.359                    21745855.000
 109291432.326 8  85162213.26945  20797464.805                    20797472.758
 125415721.353 7  97726618.45643  23865828.094                    23865838.238
 126237212.218 6  98366673.43243  24022155.031                    24022164.324
 116775146.373 7  90993641.92545  22221575.031                    22221582.547
 106684698.702 7  83130968.54746  20301419.508                    20301426.621
 105237153.265 8  82002998.14646  20025965.758                    20025970.988
 11  8  2 16 51 30.0000000  0 10G08G06G07G19G03G10G20G16G13G23
 130860837.408 6 101969553.20343  24901997.156                    24902008.094
 116474144.328 7  90759114.59145  22164289.211                    22164297.738
 119782563.449 7  93337122.891 7  22793866.602                    22793875.023
 114209238.183 7  88994316.12545  21733302.578                    21733309.496
 109291968.511 7  85162631.08045  20797566.609                    20797574.820
 125401821.743 7  97715787.59443  23863183.367                    23863193.258
 126325844.049 6  98435737.06443  24039021.875                    24039030.605
 116860647.098 7  91060265.84445  22237845.219                    22237852.953
 106646342.992 8  83101080.98546  20294120.664                    20294128.445
 105257602.363 8  82018932.49546  20029857.305                    20029862.410
 11  8  2 16 52  0.0000000  0 10G08G06G07G19G03G10G20G16G13G23
 130795768.799 6 101918850.47743  24889615.227                    24889625.770
 116505731.745 7  90783728.15045  22170299.930                    22170308.367
 119724509.258 7  93291885.886 7  22782819.250                    22782827.738
 114143726.340 7  88943267.99046  21720835.625                    21720842.570
 109293136.416 8  85163541.13846  20797789.227                    20797797.203
 125388431.437 6  97705353.57943  23860634.914                    23860644.766
 126414433.381 6  98504767.63843  24055880.008                    24055889.027
 116946299.989 7  91127008.30845  22254144.305                    22254151.586
 106608466.298 8  83071566.67946  20286913.094                    20286920.336
 105278614.204 8  82035305.34446  20033855.336                    20033861.348
 11  8  2 16 52 30.0000000  0 10G08G06G07G19G03G10G20G16G13G23
 130730653.226 6 101868111.11943  24877223.289                    24877235.145
 116537858.140 7  90808761.69745  22176413.281                    22176422.141
 119666472.844 7  93246662.734 7  22771775.227                    22771783.914
 114078634.274 7  88892546.94245  21708449.609                    21708456.313
 109294936.174 7  85164943.53945  20798131.477                    20798139.680
 125375550.381 7  97695316.38843  23858184.102                    23858193.992
 126502977.148 6  98573762.67943  24072727.938                    24072738.621
 117032102.278 7  91193867.20345  22270472.203                    22270479.766
 106571070.641 8  83042427.21346  20279796.805                    20279803.977
 105300188.577 8  82052116.52246  20037960.992                    20037966.352
 11  8  2 16 53  0.0000000  0 10G08G06G07G19G03G10G20G16G13G23
 130665490.241 6 101817334.84643  24864823.391                    24864834.824
 116570522.722 7  90834214.59645  22182629.422                    22182638.465
 119608454.479 7  93201453.640 7  22760734.203                    22760743.273
 114013964.981 7  88842155.32045  21696142.969                    21696149.625
 109297368.324 8  85166838.71245  20798594.688                    20798602.512
 125363178.731 6  97685676.12443  23855829.375                    23855840.219
 126591472.755 6  98642720.19943  24089568.836                    24089578.785
 117118051.934 7  91260840.92545  22286827.875                    22286835.293
 106534158.434 8  83013664.46246  20272772.664                    20272779.914
 105322325.992 8  82069366.43646  20042173.563                    20042179.176
 11  8  2 16 53 30.0000000  0 10G08G06G07G19G03G10G20G16G13G23
 130600279.616 6 101766521.44942  24852414.133                    24852425.695
 116603724.747 7  90860086.27345  22188947.641                    22188955.629
 119550454.748 7  93156259.087 7  22749697.805                    22749706.211
 113949721.601 7  88792095.57046  21683918.336                    21683924.922
 109300433.296 8  85169226.99946  20799177.227                    20799185.816
 125351315.851 6  97676432.31443  23853572.266                    23853581.879
 126679917.714 6  98711638.24043  24106399.141                    24106409.871
 117204146.831 7  91327927.80945  22303211.516                    22303218.594
 106497731.937 8  82985280.18346  20265840.984                    20265848.172
 105345026.811 8  82087055.36946  20046493.484                    20046499.156
 11  8  2 16 54  0.0000000  0 10G08G06G07G19G03G10G20G16G13G23
 130535021.118 6 101715670.73542  24839996.016                    24840007.590
 116637463.263 7  90886376.02045  22195367.656                    22195376.180
 119492473.607 7  93111079.007 7  22738663.969                    22738672.500
 113885906.538 7  88742369.59545  21671774.539                    21671781.254
 109304130.688 8  85172108.06645  20799880.711                    20799889.113
 125339961.168 6  97667584.50143  23851411.688                    23851421.336
 126768309.026 6  98780514.45543  24123220.602                    24123230.566
 117290384.213 7  91395125.72945  22319621.914                    22319629.672
 106461792.605 8  82957275.51946  20259001.953                    20259008.832
 105368290.665 8  82105183.02646  20050920.758                    20050926.156
 11  8  2 16 54 30.0000000  0 10G08G06G07G19G03G10G20G16G13G23
 130469714.473 6 101664782.49642  24827567.633                    24827578.414
 116671737.298 7  90913083.04945  22201890.125                    22201899.492
 119434510.970 7  93065913.356 7  22727634.156                    22727642.473
 113822523.058 7  88692979.92145  21659713.180                    21659719.406
 109308460.790 8  85175482.15645  20800704.836                    20800713.270
 125329114.319 7  97659132.40843  23849347.086                    23849357.246
 126856644.361 6  98849347.08543  24140029.570                    24140039.695
 117376761.840 7  91462432.94045  22336059.219                    22336066.309
 106426342.694 8  82929652.21746  20252256.047                    20252263.246
 105392117.715 8  82123749.54046  20055454.742                    20055460.566
 11  8  2 16 55  0.0000000  0 10G08G06G07G19G03G10G20G16G13G23
 130404359.358 6 101613856.56443  24815132.430                    24815142.352
 116706545.956 7  90940206.66845  22208514.070                    22208522.629
 119376567.434 7  93020762.588 6  22716607.453                    22716616.430
 113759573.961 7  88643928.71845  21647734.227                    21647740.852
 109313424.154 8  85179349.70445  20801649.430                    20801657.621
 125318774.952 6  97651075.77643  23847380.102                    23847389.938
 126944921.152 6  98918134.06843  24156827.500                    24156838.527
 117463277.454 7  91529847.68145  22352521.984                    22352529.406
 106391384.806 8  82902412.29946  20245603.469                    20245610.707
 105416508.215 8  82142755.10946  20060095.961                    20060101.496
 11  8  2 16 55 30.0000000  0 10G08G06G07G19G03G10G20G16G13G23
 130338955.044 6 101562892.28443  24802686.047                    24802696.266
 116741888.223 7  90967746.09645  22215239.125                    22215247.898
 119318642.731 7  92975626.497 7  22705584.953                    22705593.832
 113697061.946 7  88595218.09646  21635837.898                    21635845.184
 109319020.706 8  85183710.66046  20802714.563                    20802722.512
 125308942.825 6  97643414.37143  23845508.367                    23845518.953
 127033136.610 6  98986873.28543  24173614.797                    24173626.043
 117549928.644 7  91597368.05345  22369011.648                    22369018.992
 106356920.432 8  82875556.94446  20239045.555                    20239052.582
 105441461.972 8  82162199.57946  20064844.570                    20064850.289
 11  8  2 16 56  0.0000000  0 10G08G06G07G19G03G10G20G16G13G23
 130273501.164 6 101511889.29943  24790229.219                    24790240.750
 116777763.073 7  90995700.52745  22222065.656                    22222074.328
 119260737.201 7  92930505.341 7  22694566.258                    22694574.383
 113634989.813 7  88546850.25646  21624026.570                    21624032.723
 109325250.578 8  85188565.09845  20803900.117                    20803908.063
 125299617.598 6  97636147.94443  23843734.688                    23843744.398
 127121288.046 5  99055562.57743  24190389.359                    24190400.184
 117636713.122 7  91664992.28545  22385526.070                    22385533.676
 106322951.749 8  82849087.83546  20232581.320                    20232588.621
 105466979.022 8  82182082.97646  20069700.055                    20069705.402
 11  8  2 16 56 30.0000000  0 10G08G06G07G19G03G10G20G16G13G23
 130207997.888 6 101460847.84043  24777765.078                    24777776.473
 116814169.573 7  91024069.21345  22228993.547                    22229002.320
 119202851.398 7  92885399.557 7  22683551.078                    22683558.855
 113573360.552 7  88498827.49645  21612298.391                    21612305.496
 109332113.573 8  85193912.87745  20805206.164                    20805214.512
 125290798.725 7  97629276.08743  23842055.938                    23842066.156
 127209372.988 5  99124200.07043  24207152.023                    24207162.297
 117723628.695 7  91732718.67445  22402065.773                    22402072.848
 106289480.948 8  82823006.69446  20226212.164                    20226219.063
 105493059.820 8  82202405.65446  20074663.188                    20074668.641
 11  8  2 16 57  0.0000000  0 10G08G06G07G19G03G10G20G16G13G23
 130142444.508 5 101409767.41642  24765290.391                    24765302.359
 116851106.685 7  91052851.38245  22236022.586                    22236031.285
 119144985.092 7  92840308.957 7  22672539.336                    22672547.727
 113512176.780 7  88451151.87345  21600655.531                    21600662.117
 109339609.799 8  85199754.09045  20806632.844                    20806640.895
 125282485.747 6  97622798.44043  23840474.195                    23840484.699
 127297388.498 6  99192783.47743  24223900.711                    24223911.469
 117810672.796 7  91800545.22845  22418629.750                    22418637.270
 106256509.993 8  82797315.04446  20219937.938                    20219944.852
 105519703.592 8  82223167.01146  20079733.820                    20079738.910
 11  8  2 16 57 30.0000000  0 10G08G06G07G19G03G10G20G16G13G23
 130076840.181 5 101358647.21942  24752806.109                    24752818.063
 116888572.947 7  91082045.86245  22243152.648                    22243161.258
 119087138.464 7  92795233.693 7  22661531.414                    22661539.574
 113451441.020 7  88403825.34946  21589098.063                    21589105.070
 109347739.023 8  85206088.53945  20808179.375                    20808187.797
 125274677.867 6  97616714.36943  23838988.664                    23838998.637
 127385332.194 6  99261310.92943  24240636.414                    24240646.004
 117897843.034 7  91868470.06645  22435217.375                    22435224.797
 106224040.039 8  82772013.77746  20213759.188                    20213766.359
 105546910.272 8  82244367.00546  20084910.555                    20084916.441
 11  8  2 16 58  0.0000000  0 10G08G06G07G19G03G10G20G16G13G23
 130011185.147 6 101307487.47342  24740311.813                    24740323.762
 116926567.605 7  91111652.08545  22250382.500                    22250391.113
 119029311.950 7  92750174.085 7  22650527.391                    22650535.711
 113391156.350 7  88356850.33346  21577626.188                    21577633.484
 109356501.512 8  85212916.45545  20809846.828                    20809855.313
 125267375.068 7  97611023.87143  23837598.758                    23837608.605
 127473201.383 6  99329780.32743  24257357.305                    24257367.355
 117985137.412 7  91936491.62545  22451829.102                    22451837.168
 106192073.696 7  82747104.93846  20207676.203                    20207683.352
 105574680.011 8  82266005.73546  20090195.219                    20090200.430
 11  8  2 16 58 30.0000000  0 10G08G06G07G19G03G10G20G16G13G23
 129945479.126 6 101256288.01842  24727808.492                    24727820.828
 116965089.621 7  91141669.20845  22257712.672                    22257721.559
 118971505.604 7  92705130.214 7  22639527.617                    22639535.352
 113331325.295 7  88310228.78946  21566240.445                    21566247.246
 109365897.038 8  85220237.62945  20811635.016                    20811642.867
 125260576.460 6  97605726.23643  23836305.039                    23836315.637
 127560993.573 6  99398189.66043  24274064.063                    24274073.789
 118072553.341 7  92004607.91745  22468464.211                    22468470.926
 106160612.779 8  82722589.93146  20201689.453                    20201696.367
 105603012.506 8  82288082.98946  20095586.594                    20095592.230
 11  8  2 16 59  0.0000000  0 10G08G06G07G19G03G10G20G16G13G23
 129879721.724 6 101205048.53642  24715296.102                    24715307.492
 117004137.725 7  91172096.27845  22265143.805                    22265152.594
 118913719.912 7  92660102.433 7  22628530.938                    22628538.727
 113271950.811 7  88263963.00146  21554942.047                    21554948.438
 109375925.684 8  85228052.15745  20813543.648                    20813551.355
 125254281.760 6  97600821.28143  23835107.336                    23835117.820
 127648706.298 6  99466537.14143  24290755.125                    24290765.289
 118160088.753 7  92072817.30345  22485121.078                    22485128.059
 106129659.380 8  82698470.40146  20195799.336                    20195806.156
 105631907.907 8  82310598.86046  20101085.523                    20101091.008
 11  8  2 16 59 30.0000000  0 10G08G06G07G19G03G10G20G16G13G23
 129813912.799 6 101153768.90143  24702773.336                    24702783.805
 117043710.949 7  91202932.52545  22272674.250                    22272682.871
 118855955.264 7  92615091.062 7  22617538.328                    22617546.555
 113213035.461 7  88218054.98646  21543730.977                    21543737.750
 109386587.315 8  85236359.90645  20815572.039                    20815580.223
 125248490.534 6  97596308.66043  23834005.188                    23834014.867
 127736336.986 6  99534820.67843  24307430.891                    24307440.969
 118247741.644 7  92141118.23645  22501800.391                    22501808.133
 106099215.548 8  82674747.92846  20190005.781                    20190013.102
 105661365.974 8  82333553.17546  20106690.688                    20106696.594
 11  8  2 17  0  0.0000000  0 10G08G06G07G19G03G10G20G16G13G23
 129748052.185 6 101102449.04243  24690239.836                    24690250.707
 117083808.378 7  91234177.23545  22280304.266                    22280313.215
 118798212.141 7  92570096.455 7  22606550.609                    22606558.039
 113154582.407 7  88172507.19446  21532607.656                    21532614.234
 109397882.449 8  85245161.30446  20817721.367                    20817729.637
 125243202.448 6  97592188.05443  23832999.070                    23833008.707
 127823883.339 6  99603038.51843  24324090.813                    24324099.430
 118335509.902 7  92209509.03845  22518502.766                    22518510.371
 106069283.359 8  82651424.13846  20184309.570                    20184316.828
 105691386.868 8  82356946.05746  20112404.047                    20112409.566
 11  8  2 17  0 30.0000000  0 10G08G06G07G19G03G10G20G16G13G23
 129682139.673 6 101051088.70243  24677696.977                    24677708.207
 117124428.576 7  91265829.30345  22288034.602                    22288043.375
 118740490.237 7  92525118.393 7  22595566.617                    22595574.195
 113096593.973 7  88127321.43446  21521572.781                    21521579.070
 109409810.133 8  85254455.59945  20819991.297                    20819999.383
 125238416.451 6  97588458.69143  23832087.984                    23832097.934
 127911342.450 6  99671188.39543  24340732.797                    24340742.656
 118423391.038 7  92277987.82345  22535226.055                    22535233.133
 106039864.417 8  82628500.28846  20178712.172                    20178718.555
 105721969.989 8  82380777.03846  20118223.375                    20118229.262
 11  8  2 17  1  0.0000000  0 10G08G06G07G19G03G10G20G16G13G23
 129616174.810 6 100999687.63743  24665145.164                    24665155.547
 117165570.355 7  91297887.79245  22295863.586                    22295872.219
 118682790.133 7  92480157.302 6  22584586.438                    22584593.883
 113039072.808 7  88082499.80746  21510627.031                    21510633.508
 109422370.364 8  85264242.79645  20822381.414                    20822390.000
 125234131.843 6  97585120.03443  23831272.773                    23831282.797
 127998711.898 6  99739268.43542  24357358.961                    24357368.199
 118511382.651 7  92346552.67645  22551970.297                    22551977.578
 106010960.656 8  82605977.87146  20173211.328                    20173218.586
 105753115.169 8  82405045.99046  20124150.055                    20124155.855
 11  8  2 17  1 30.0000000  0 10G08G06G07G19G03G10G20G16G13G23
 129550156.902 6 100948245.21944  24652581.453                    24652592.691
 117207232.293 7  91330351.61245  22303791.586                    22303799.805
 118625111.830 7  92435213.220 6  22573609.883                    22573618.199
 112982021.708 7  88038044.44646  21499770.375                    21499776.668
 109435562.605 8  85274522.46345  20824891.641                    20824900.422
 125230347.589 6  97582171.22143  23830552.727                    23830562.324
 128085988.686 6  99807276.22142  24373966.555                    24373977.375
 118599482.402 7  92415201.79945  22568734.984                    22568742.297
 105982573.496 8  82583858.00446  20167809.547                    20167816.934
 105784821.772 8  82429752.40446  20130183.875                    20130189.258
 11  8  2 17  2  0.0000000  0 10G08G06G07G19G03G10G20G16G13G23
 129484085.442 6 100896761.08443  24640008.125                    24640019.453
 117249413.152 7  91363219.78045  22311818.313                    22311826.953
 118567455.815 7  92390286.489 6  22562638.891                    22562646.941
 112925442.930 7  87993957.12746  21489003.906                    21489010.215
 109449386.647 8  85285294.43346  20827522.570                    20827530.652
 125227063.358 6  97579612.07744  23829927.766                    23829937.730
 128173170.650 6  99875210.08543  24390557.656                    24390567.434
 118687688.122 7  92483933.49445  22585520.125                    22585527.492
 105954704.955 8  82562142.25446  20162506.453                    20162513.039
 105817089.618 8  82454896.15046  20136324.539                    20136329.809
 11  8  2 17  2 30.0000000  0 10G08G06G07G19G03G10G20G16G13G23
 129417960.656 6 100845235.40443  24627424.727                    24627436.352
 117292111.910 7  91396491.52145  22319943.453                    22319952.449
 118509822.153 7  92345377.177 6  22551671.141                    22551679.410
 112869339.327 7  87950240.08546  21478327.281                    21478334.410
 109463842.865 8  85296559.02245  20830273.367                    20830281.617
 125224278.412 6  97577441.94943  23829398.313                    23829407.438
 128260255.174 6  99943067.96643  24407129.641                    24407139.125
 118775997.891 7  92552746.27445  22602324.602                    22602332.027
 105927357.329 8  82540832.41446  20157302.313                    20157309.418
 105849918.798 8  82480477.30646  20142571.555                    20142577.297
 11  8  2 17  3  0.0000000  0 10G08G06G07G19G03G10G20G16G13G23
 129351782.339 6 100793668.00943  24614831.109                    24614843.152
 117335326.736 7  91430165.38645  22328167.008                    22328175.551
 118452211.144 7  92300485.519 7  22540708.211                    22540716.223
 112813713.075 7  87906894.97946  21467741.945                    21467748.566
 109478930.066 8  85308315.27046  20833144.328                    20833152.391
 125221991.945 7  97575660.26743  23828963.039                    23828972.098
 128347239.792 6 100010848.12543  24423681.727                    24423692.379
 118864409.192 7  92621638.16245  22619148.820                    22619156.457
 105900531.709 8  82519929.33346  20152197.594                    20152204.785
 105883308.434 8  82506495.17246  20148925.313                    20148931.266
 11  8  2 17  3 30.0000000  0 10G08G06G07G19G03G10G20G16G13G23
 129285549.777 6 100742058.32943  24602227.727                    24602239.203
 117379056.426 7  91464240.45145  22336488.992                    22336497.035
 118394623.192 7  92255611.824 7  22529749.750                    22529758.098
 112758566.872 8  87863923.93646  21457248.266                    21457255.000
 109494647.892 8  85320562.92845  20836135.211                    20836143.961
 125220203.023 7  97574266.30443  23828622.680                    23828632.191
 128434121.857 6 100078548.34343  24440214.617                    24440226.469
 118952919.884 7  92690607.49045  22635992.367                    22635999.348
 105874229.805 8  82499434.34246  20147191.930                    20147199.484
 105917258.086 8  82532949.41746  20155385.953                    20155391.188
 11  8  2 17  4  0.0000000  0 10G08G06G07G19G03G10G20G16G13G23
 129219263.505 7 100690406.78743  24589614.133                    24589625.164
 117423300.037 7  91498715.97945  22344907.719                    22344916.266
 118337058.501 7  92210756.248 6  22518795.141                    22518803.344
 112703903.661 7  87821329.26346  21446846.039                    21446852.402
 109510996.266 8  85333301.92345  20839246.484                    20839254.797
 125218911.275 6  97573259.70843  23828376.094                    23828386.711
 128520898.851 5 100146166.68143  24456727.586                    24456738.840
 119041527.832 7  92759652.61144  22652853.516                    22652860.781
 105848453.858 8  82479349.18046  20142287.297                    20142294.691
 105951767.870 8  82559840.13546  20161953.055                    20161958.594
 11  8  2 17  4 30.0000000  0 10G08G06G07G19G03G10G20G16G13G23
 129152922.611 7 100638712.64043  24576989.078                    24577000.301
 117468056.175 7  91533590.88145  22353424.664                    22353433.281
 118279517.892 7  92165919.437 7  22507845.969                    22507853.387
 112649725.997 7  87779112.92946  21436536.250                    21436542.613
 109527974.729 8  85346531.88346  20842476.875                    20842485.324
 125218115.941 7  97572639.93144  23828225.883                    23828235.734
 128607568.801 5 100213701.47343  24473221.617                    24473232.160
 119130230.914 7  92828771.85845  22669733.906                    22669740.430
 105823205.518 8  82459675.14246  20137482.813                    20137489.984
 105986837.372 8  82587166.97946  20168626.406                    20168632.023
 11  8  2 17  5  0.0000000  0 10G08G06G07G19G03G10G20G16G13G23
 129086526.971 7 100586975.82742  24564355.477                    24564366.090
 117513323.160 7  91568863.85945  22362038.297                    22362047.270
 118222001.172 7  92121101.230 7  22496901.148                    22496908.598
 112596035.880 7  87737276.49746  21426319.313                    21426326.047
 109545582.664 8  85360252.34845  20845827.859                    20845836.195
 125217815.994 6  97572406.17744  23828167.891                    23828177.754
 128694128.472 6 100281150.41443  24489693.930                    24489703.184
 119219026.955 7  92897963.55044  22686630.672                    22686638.184
 105798486.428 8  82440413.50846  20132778.508                    20132786.270
 106022465.491 8  82614929.12146  20175406.492                    20175411.879
 11  8  2 17  5 30.0000000  0 10G08G06G07G19G03G10G20G16G13G23
 129020076.658 7 100535196.35443  24551710.648                    24551719.887
 117559100.139 7  91604534.24945  22370749.320                    22370758.777
 118164509.261 7  92076302.374 7  22485960.727                    22485968.348
 112542836.407 8  87695822.37446  21416195.828                    21416202.199
 109563820.012 8  85374463.25146  20849298.570                    20849306.844
 125218010.819 6  97572557.93943  23828205.758                    23828215.316
 128780576.067 6 100348512.04043  24506144.188                    24506154.539
 119307913.727 7  92967225.92245  22703545.445                    22703553.027
 105774298.652 8  82421565.88046  20128176.367                    20128183.582
 106058652.314 8  82643126.61446  20182292.195                    20182297.969
 11  8  2 17  6  0.0000000  0 10G08G06G07G19G03G10G20G16G13G23
 128953571.240 7 100483373.95643  24539055.188                    24539064.441
 117605385.367 7  91640600.66345  22379557.617                    22379565.926
 118107042.368 7  92031523.019 7  22475024.672                    22475032.797
 112490129.987 8  87654752.45646  21406166.039                    21406172.684
 109582686.224 8  85389164.19046  20852888.508                    20852896.832
 125218699.172 6  97573094.28543  23828336.492                    23828346.566
 128866908.942 6 100415784.29143  24522572.344                    24522582.723
 119396889.526 7  93036557.67544  22720476.617                    22720484.418
 105750643.592 8  82403133.36346  20123674.805                    20123682.230
 106095397.539 8  82671759.22446  20189285.008                    20189290.309
 11  8  2 17  6 30.0000000  0 10G08G06G07G19G03G10G20G16G13G23
 128887010.340 6 100431508.40743  24526388.602                    24526399.156
 117652177.333 7  91677061.92745  22388462.000                    22388470.863
 118049600.450 7  91986763.128 7  22464093.750                    22464102.023
 112437918.877 7  87614068.49046  21396230.719                    21396236.785
 109602180.370 8  85404354.42545  20856598.047                    20856606.199
 125219880.142 6  97574014.49944  23828560.883                    23828571.012
 128953124.505 6 100482965.15243  24538978.906                    24538989.625
 119485951.573 7  93105956.63044  22737424.883                    22737432.395
 105727522.908 8  82385117.24046  20119274.898                    20119282.297
 106132700.038 8  82700826.07046  20196383.336                    20196388.875
 11  8  2 17  7  0.0000000  0 10G08G06G07G19G03G10G20G16G13G23
 128820393.737 5 100379599.42443  24513711.117                    24513722.160
 117699474.748 7  91713917.07345  22397461.906                    22397470.824
 117992184.038 7  91942023.088 7  22453167.703                    22453175.438
 112386205.611 8  87573772.46146  21386389.750                    21386396.539
 109622302.148 8  85420033.71446  20860427.125                    20860435.371
 125221553.053 6  97575318.03543  23828879.734                    23828889.121
 129039220.382 6 100550052.69443  24555361.633                    24555372.723
 119575098.173 7  93175421.46144  22754389.188                    22754396.375
 105704938.310 8  82367518.84646  20114977.344                    20114984.500
 106170559.765 8  82730327.11846  20203587.828                    20203593.438
 11  8  2 17  7 30.0000000  0 10G08G06G07G19G03G10G20G16G13G23
 128753721.444 5 100327647.07742  24501022.477                    24501034.699
 117747276.183 7  91751164.93845  22406558.523                    22406567.035
 117934793.946 7  91897303.565 7  22442246.820                    22442254.742
 112334992.655 8  87533866.28546  21376644.500                    21376650.988
 109643051.429 8  85436201.97146  20864375.789                    20864383.766
 125223717.050 7  97577004.23443  23829290.773                    23829301.531
 129125194.235 6 100617045.18343  24571722.703                    24571733.102
 119664327.235 7  93244950.56744  22771369.117                    22771376.000
 105682891.587 8  82350339.57946  20110781.844                    20110789.125
 106208976.120 8  82760261.89646  20210898.125                    20210903.488
 11  8  2 17  8  0.0000000  0 10G08G06G07G19G03G10G20G16G13G23
 128686993.079 5 100275651.16343  24488324.125                    24488336.320
 117795579.901 7  91788804.19045  22415750.234                    22415758.855
 117877430.401 7  91852604.737 7  22431330.813                    22431338.770
 112284282.264 8  87494351.70546  21366994.586                    21367001.031
 109664426.955 8  85452858.21845  20868443.758                    20868451.621
 125226370.912 6  97579072.14543  23829796.555                    23829806.469
 129211043.489 6 100683940.56743  24588059.797                    24588069.605
 119753636.509 7  93314542.17744  22788363.648                    22788371.516
 105661383.957 8  82333580.38846  20106689.320                    20106696.520
 106247948.198 8  82790629.72146  20218314.180                    20218320.047
 11  8  2 17  8 30.0000000  0 10G08G06G07G19G03G10G20G16G13G23
 128620208.565 6 100223611.37743  24475616.938                    24475627.543
 117844384.301 7  91826833.59245  22425037.719                    22425046.164
 117820093.130 7  91807926.372 7  22420419.984                    22420427.871
 112234076.741 7  87455230.53046  21357441.133                    21357447.484
 109686428.137 8  85470001.98545  20872629.883                    20872637.781
 125229514.032 6  97581521.27543  23830394.727                    23830404.320
 129296765.588 6 100750736.86443  24604371.211                    24604382.625
 119843023.694 7  93384194.49644  22805373.773                    22805380.688
 105640417.011 8  82317242.51246  20102699.391                    20102706.547
 106287475.395 8  82821430.08746  20225836.352                    20225842.184
 11  8  2 17  9  0.0000000  0 10G08G06G07G19G03G10G20G16G13G23
 128553367.616 6 100171527.56643  24462897.508                    24462908.277
 117893688.108 7  91865252.13945  22434419.750                    22434428.574
 117762783.145 7  91763269.255 7  22409514.180                    22409522.238
 112184378.747 8  87416504.84746  21347983.422                    21347989.930
 109709054.163 8  85487632.64845  20876935.234                    20876943.879
 125233145.189 6  97584350.71943  23831084.398                    23831095.484
 129382358.193 6 100817432.25243  24620659.313                    24620670.863
 119932486.756 7  93453905.91944  22822397.898                    22822405.531
 105619992.637 8  82301327.41346  20098812.617                    20098820.145
 106327556.857 8  82852662.35746  20233463.359                    20233469.129
 11  8  2 17  9 30.0000000  0 10G08G06G07G19G03G10G20G16G13G23
 128486470.121 7 100119399.73243  24450167.305                    24450177.941
 117943489.932 7  91904058.74845  22443896.781                    22443904.945
 117705500.816 7  91718633.691 7  22398613.766                    22398621.895
 112135190.734 8  87378176.54646  21338623.164                    21338630.090
 109732304.497 8  85505749.76945  20881359.766                    20881368.258
 125237263.147 6  97587559.50243  23831868.953                    23831878.883
 129467819.096 6 100884025.00443  24636921.703                    24636933.547
 120022024.030 7  93523675.18345  22839436.172                    22839443.984
 105600112.128 8  82285836.11046  20095029.492                    20095037.020
 106368192.687 8  82884326.59846  20241196.195                    20241201.824
 11  8  2 17 10  0.0000000  0 10G08G06G07G19G03G10G20G16G13G23
 128419515.922 7 100067227.72343  24437426.742                    24437436.875
 117993788.053 7  91943252.06744  22453468.422                    22453476.520
 117648246.694 7  91674020.121 7  22387718.500                    22387726.738
 112086514.933 8  87340247.36246  21329360.820                    21329367.594
 109756178.496 8  85524352.86745  20885903.125                    20885911.543
 125241867.464 6  97591147.24343  23832745.070                    23832754.793
 129553146.102 6 100950513.41942  24653159.406                    24653170.820
 120111633.430 7  93593500.64144  22856489.406                    22856496.160
 105580777.307 8  82270770.01946  20091350.172                    20091357.449
 106409382.117 8  82916422.22546  20249033.930                    20249040.195
 11  8  2 17 10 30.0000000  0 10G08G06G07G19G03G10G20G16G13G23
 128352504.937 6 100015011.41142  24424674.500                    24424685.176
 118044581.126 7  91982831.08145  22463133.508                    22463142.281
 117591021.189 7  91629428.836 7  22376829.609                    22376837.145
 112038353.782 8  87302719.21946  21320195.953                    21320202.352
 109780675.385 8  85543441.33645  20890564.570                    20890572.984
 125246956.519 6  97595112.71343  23833713.180                    23833723.715
 129638336.568 6 101016895.43242  24669370.914                    24669382.102
 120201312.870 7  93663380.67744  22873554.164                    22873561.863
 105561989.754 8  82256130.36646  20087775.391                    20087782.500
 106451124.133 8  82948948.43146  20256977.508                    20256983.367
 11  8  2 17 11  0.0000000  0 10G08G06G07G19G03G10G20G16G13G23
 128285436.650 6  99962750.40842  24411911.734                    24411921.836
 118095867.216 7  92022794.24745  22472893.188                    22472902.047
 117533824.660 7  91584860.122 7  22365945.133                    22365952.418
 111990709.206 8  87265593.59646  21311129.219                    21311135.395
 109805794.670 8  85563014.79845  20895344.313                    20895352.707
 125252529.475 6  97599455.25143  23834774.188                    23834783.781
 129723388.196 6 101083169.31142  24685556.039                    24685566.438
 120291060.164 7  93733313.59144  22890631.914                    22890640.195
 105543750.560 8  82241918.00846  20084304.031                    20084311.301
 106493417.899 8  82981904.56346  20265025.813                    20265031.922
 11  8  2 17 11 30.0000000  0 10G08G06G07G19G03G10G20G16G13G23
 128218311.461 6  99910445.14542  24399137.813                    24399148.219
 118147644.892 7  92063140.47445  22482746.219                    22482755.223
 117476657.620 7  91540314.408 7  22355066.078                    22355074.465
 111943583.674 8  87228872.41746  21302162.016                    21302168.785
 109831535.428 8  85583072.52045  20900243.133                    20900251.828
 125258585.432 6  97604174.11743  23835926.664                    23835936.531
 129808298.552 6 101149333.02352  24701712.797                    24701724.445
 120380873.205 7  93803297.71544  22907722.945                    22907730.961
 105526061.531 8  82228134.35246  20080938.438                    20080945.273
 106536262.833 8  83015290.19346  20273178.813                    20273184.934
 11  8  2 17 12  0.0000000  0 10G08G06G07G19G03G10G20G16G13G23
 128151128.873 6  99858095.19843  24386354.055                    24386364.008
 118199912.577 7  92103868.51445  22492692.133                    22492701.414
 117419520.596 7  91495792.058 7  22344193.672                    22344201.863
 111896979.539 8  87192557.53246  21293293.086                    21293300.145
 109857896.877 8  85603613.90946  20905259.523                    20905267.633
 125265122.986 7  97609268.28243  23837170.242                    23837180.223
 129893065.075 5 101215384.74042  24717844.336                    24717855.223
 120470750.204 7  93873331.69544  22924826.023                    22924833.465
 105508923.888 8  82214780.34846  20077677.125                    20077684.445
 106579658.088 8  83049104.63246  20281436.836                    20281442.453
 11  8  2 17 12 30.0000000  0 10G08G06G07G19G03G10G20G16G13G23
 128083889.136 6  99805700.70943  24373558.109                    24373569.426
 118252668.867 7  92144977.29345  22502731.508                    22502740.324
 117362414.449 7  91451293.809 7  22333327.008                    22333334.473
 111850899.397 8  87156650.95846  21284524.211                    21284530.832
 109884878.231 7  85624638.33245  20910393.734                    20910402.273
 125272141.167 6  97614736.94444  23838506.531                    23838516.289
 129977685.917 5 101281322.80142  24733947.383                    24733959.223
 120560689.424 7  93943414.14944  22941940.969                    22941948.723
 105492339.747 8  82201857.63646  20074521.305                    20074528.316
 106623603.154 8  83083347.50146  20289799.391                    20289804.805
 11  8  2 17 13  0.0000000  0 10G08G06G07G19G03G10G20G16G13G23
 128016591.808 7  99753261.32644  24360752.570                    24360762.844
 118305911.733 7  92186465.20745  22512862.977                    22512872.215
 117305339.150 7  91406819.574 7  22322465.219                    22322473.477
 111805345.130 8  87121154.15146  21275855.328                    21275862.199
 109912478.263 7  85646144.85145  20915646.234                    20915654.520
 125279638.836 7  97620579.22743  23839934.313                    23839943.305
 130062158.479 6 101347145.44242  24750022.383                    24750033.902
 120650688.675 7  94013543.38844  22959067.508                    22959075.367
 105476310.023 8  82189366.94346  20071471.133                    20071478.145
 106668097.035 8  83118018.02446  20298266.359                    20298272.000
 11  8  2 17 13 30.0000000  0 10G08G06G07G19G03G10G20G16G13G23
 127949236.381 7  99700776.66944  24347935.109                    24347945.641
 118359639.300 7  92228330.82244  22523087.539                    22523095.996
 117248295.057 7  91362369.676 7  22311610.461                    22311618.441
 111760318.440 8  87086068.44346  21267287.477                    21267293.746
 109940695.903 7  85668132.62445  20921015.352                    20921023.719
 125287614.318 7  97626793.86244  23841451.820                    23841460.793
 130146480.580 6 101412850.77043  24766069.125                    24766079.488
 120740745.579 7  94083717.53844  22976204.391                    22976212.406
 105460835.606 8  82177308.95346  20068526.289                    20068533.496
 106713138.586 8  83153115.28646  20306837.555                    20306842.984
 11  8  2 17 14  0.0000000  0 10G08G06G07G19G03G10G20G16G13G23
 127881823.417 7  99648247.19844  24335107.031                    24335117.477
 118413850.507 7  92270573.27244  22533402.953                    22533412.262
 117191283.124 7  91317944.807 7  22300761.648                    22300769.074
 111715822.379 8  87051396.20346  21258820.531                    21258826.902
 109969530.846 8  85690601.41745  20926502.625                    20926510.770
 125296067.016 7  97633380.33743  23843059.984                    23843069.418
 130230649.778 6 101478436.96543  24782085.469                    24782096.770
 120830858.429 7  94153935.31144  22993353.414                    22993360.438
 105445918.828 8  82165685.49046  20065687.648                    20065694.750
 106758727.551 8  83188639.11246  20315512.852                    20315518.449
 11  8  2 17 14 30.0000000  0  9G08G06G07G19G03G10G16G13G23
 127814352.492 7  99595672.51444  24322267.453                    24322277.656
 118468543.448 7  92313191.12045  22543811.352                    22543819.891
 117134304.033 7  91273545.532 7  22289918.398                    22289926.426
 111671859.014 8  87017139.06046  21250454.367                    21250460.586
 109998981.937 8  85713550.32145  20932106.969                    20932115.113
 125304995.783 7  97640337.78443  23844758.773                    23844768.410
 120921025.656 7  94224195.44344  23010511.453                    23010519.207
 105431560.766 8  82154497.39246  20062955.352                    20062962.566
 106804862.840 8  83224588.64446  20324292.281                    20324297.371
 11  8  2 17 15  0.0000000  0  9G08G06G07G19G03G10G16G13G23
 127746823.623 7  99543052.67443  24309417.008                    24309426.797
 118523716.052 7  92356182.73445  22554310.266                    22554319.020
 117077357.840 7  91229171.895 7  22279081.859                    22279090.051
 111628429.828 8  86983298.16946  21242189.430                    21242196.391
 110029047.828 7  85736978.29445  20937828.766                    20937836.613
 125314399.144 7  97647665.01044  23846548.625                    23846558.289
 121011244.817 7  94294496.05144  23027679.211                    23027686.602
 105417762.547 8  82143745.53646  20060329.594                    20060337.016
 106851543.110 8  83260962.84946  20333175.086                    20333180.777
 11  8  2 17 15 30.0000000  0  9G08G06G07G19G03G10G16G13G23
 127679236.435 6  99490387.39543  24296555.141                    24296565.965
 118579366.880 7  92399547.01045  22564899.945                    22564908.500
 117020445.392 7  91184824.549 7  22268251.828                    22268259.977
 111585537.283 8  86949875.41046  21234027.586                    21234033.629
 110059728.047 7  85760884.96145  20943666.703                    20943675.223
 125324275.953 7  97655361.21944  23848428.258                    23848437.512
 121101514.136 7  94364835.73744  23044857.492                    23044864.570
 105404525.803 8  82133431.19046  20057810.781                    20057817.719
 106898767.716 8  83297761.19546  20342161.469                    20342167.473
 11  8  2 17 16  0.0000000  0  9G08G06G07G19G03G10G16G13G23
 127611590.694 6  99437676.49843  24283682.422                    24283693.176
 118635493.837 7  92443282.28445  22575580.367                    22575589.465
 116963566.543 7  91140503.363 7  22257428.281                    22257436.137
 111543183.285 8  86916872.29946  21225967.867                    21225974.543
 110091020.612 7  85785268.77345  20949621.195                    20949629.898
 125334624.450 7  97663424.93544  23850397.258                    23850406.910
 121191831.357 7  94435212.73344  23062043.813                    23062051.305
 105391851.152 8  82123554.84346  20055399.102                    20055406.309
 106946535.325 8  83334982.66846  20351251.391                    20351257.633
 11  8  2 17 16 30.0000000  0  9G08G06G07G19G03G10G16G13G23
 127543886.358 6  99384919.98543  24270798.328                    24270809.262
 118692095.236 7  92487387.25845  22586351.906                    22586360.719
 116906722.299 7  91096209.158 7  22246611.078                    22246618.973
 111501369.938 8  86884290.48046  21218011.008                    21218017.520
 110122924.755 7  85810129.13945  20955692.211                    20955700.730
 125345443.487 7  97671855.32943  23852455.734                    23852465.891
 121282194.793 7  94505625.76844  23079239.180                    23079247.063
 105379739.984 8  82114117.56546  20053094.453                    20053101.254
 106994845.290 8  83372626.75446  20360444.414                    20360450.441
 11  8  2 17 17  0.0000000  0  9G08G06G07G19G03G10G16G13G23
 127476123.305 6  99332117.66843  24257903.797                    24257913.836
 118749169.126 7  92531860.38845  22597212.844                    22597221.125
 116849913.264 7  91051942.412 7  22235800.516                    22235808.941
 111460099.253 8  86852131.50946  21210157.320                    21210164.012
 110155439.367 8  85835465.19045  20961879.750                    20961888.332
 125356731.701 7  97680651.28243  23854603.969                    23854614.074
 121372602.625 7  94576073.37744  23096443.250                    23096451.668
 105368193.466 8  82105120.27246  20050896.742                    20050904.141
 107043696.491 8  83410692.58246  20369740.875                    20369746.641
 11  8  2 17 17 30.0000000  0  9G08G06G07G19G03G10G16G13G23
 127408302.045 6  99279270.04443  24244998.031                    24245008.152
 118806713.904 7  92576700.44945  22608163.008                    22608171.746
 116793139.961 7  91007703.480 7  22224997.219                    22225005.461
 111419373.407 8  86820397.09446  21202407.766                    21202414.242
 110188563.564 8  85861276.23045  20968183.727                    20968191.336
 125368487.901 7  97689811.91743  23856840.773                    23856850.848
 121463052.808 7  94646553.99944  23113655.063                    23113663.246
 105357213.304 8  82096564.29846  20048807.805                    20048814.840
 107093088.046 8  83449179.46446  20379139.727                    20379145.719
 11  8  2 17 18  0.0000000  0  9G08G06G07G19G03G10G16G13G23
 127340422.227 6  99226376.76443  24232080.867                    24232090.953
 118864727.930 7  92621906.14945  22619202.953                    22619211.527
 116736403.535 7  90963493.309 7  22214200.250                    22214208.594
 111379194.553 8  86789088.89946  21194761.844                    21194768.652
 110222296.351 8  85887561.50645  20974602.453                    20974610.797
 125380710.937 7  97699336.32043  23859166.969                    23859176.527
 121553543.767 7  94717066.37344  23130875.320                    23130883.430
 105346800.919 8  82088450.73946  20046826.516                    20046833.047
 107143018.856 8  83488086.53646  20388641.188                    20388646.910
 11  8  2 17 18 30.0000000  0  9G08G06G07G19G03G10G16G13G23
 127272483.743 6  99173437.77843  24219152.563                    24219162.895
 118923209.104 7  92667475.85445  22630331.742                    22630340.641
 116679703.674 7  90919311.623 7  22203410.641                    22203418.648
 111339564.180 8  86758208.09346  21187220.328                    21187226.637
 110256635.920 8  85914319.59845  20981137.438                    20981145.402
 125393398.998 7  97709223.06343  23861581.680                    23861591.090
 121644073.123 7  94787608.67744  23148102.391                    23148109.797
 105336956.773 8  82080779.96246  20044952.820                    20044959.766
 107193487.537 8  83527412.73446  20398245.414                    20398250.723
 11  8  2 17 19  0.0000000  0  9G08G06G07G19G03G10G16G13G23
 127204486.674 6  99120453.17243  24206212.625                    24206224.156
 118982155.756 7  92713408.26645  22641548.961                    22641557.547
 116623041.343 7  90875159.168 7  22192628.227                    22192635.980
 111300484.639 8  86727756.51546  21179783.875                    21179790.535
 110291581.290 8  85941549.74445  20987787.297                    20987795.398
 125406550.842 7  97719471.20843  23864083.453                    23864094.301
 121734639.295 7  94858179.66944  23165336.680                    23165344.773
 105327682.401 8  82073553.16746  20043188.219                    20043194.867
 107244493.654 8  83567157.72146  20407951.320                    20407957.375
 11  8  2 17 19 30.0000000  0  9G08G06G07G19G03G10G16G13G23
 127136430.572 6  99067422.52043  24193261.500                    24193273.207
 119041566.103 7  92759702.01245  22652853.836                    22652863.160
 116566417.418 7  90831036.658 7  22181852.758                    22181861.320
 111261957.950 8  86697735.73146  21172452.438                    21172458.668
 110327131.740 8  85969251.37045  20994552.383                    20994560.359
 125420165.161 7  97730079.73444  23866674.984                    23866685.078
 121825240.561 7  94928778.01644  23182578.039                    23182585.539
 105318979.111 8  82066771.35646  20041531.953                    20041539.148
 107296035.761 8  83607320.35846  20417759.508                    20417765.547
 11  8  2 17 20  0.0000000  0  9G08G06G07G19G03G10G16G13G23
 127068315.405 6  99014345.89743  24180300.188                    24180311.242
 119101437.846 7  92806355.27945  22664247.203                    22664255.949
 116509832.169 7  90786944.262 7  22171085.125                    22171093.359
 111223985.790 8  86668147.04846  21165226.547                    21165233.223
 110363285.495 8  85997423.12445  21001431.516                    21001440.305
 125434240.480 7  97741047.47543  23869353.172                    23869363.922
 121915874.930 7  94999402.15844  23199824.945                    23199832.145
 105310847.578 8  82060435.08046  20039984.633                    20039991.688
 107348112.366 8  83647899.48046  20427669.094                    20427675.172
 11  8  2 17 20 30.0000000  0  9G08G06G07G19G03G10G16G13G23
 127000141.374 6  98961223.32843  24167327.609                    24167337.113
 119161769.262 7  92853366.73445  22675728.078                    22675737.094
 116453286.320 7  90742882.596 7  22160324.883                    22160333.023
 111186569.871 8  86638991.81446  21158106.359                    21158112.832
 110400041.427 8  86026064.09145  21008426.289                    21008434.445
 125448775.390 7  97752373.32343  23872118.820                    23872129.941
 122006540.701 7  95070050.77144  23217077.430                    23217085.316
 105303289.049 8  82054545.30146  20038546.297                    20038553.250
 107400722.349 8  83688894.22946  20437680.930                    20437686.871
 11  8  2 17 21  0.0000000  0  9G08G06G07G19G03G10G16G13G23
 126931908.342 6  98908054.76843  24154343.305                    24154352.027
 119222558.401 7  92900734.85645  22687295.773                    22687304.969
 116396780.422 7  90698852.051 7  22149572.180                    22149580.438
 111149712.169 8  86610271.53846  21151092.781                    21151099.211
 110437397.930 8  86055173.04245  21015534.805                    21015543.184
 125463768.370 7  97764056.11243  23874972.695                    23874982.605
 122097235.930 7  95140722.33444  23234337.359                    23234344.270
 105296304.432 8  82049102.72646  20037217.109                    20037224.441
 107453864.692 8  83730303.80846  20447793.391                    20447799.520
 11  8  2 17 21 30.0000000  0  9G08G06G07G19G03G10G16G13G23
 126863616.356 6  98854840.27443  24141347.953                    24141356.957
 119283803.380 7  92948458.18945  22698950.438                    22698959.223
 116340315.217 7  90654853.210 7  22138827.352                    22138835.523
 111113414.761 8  86581987.86046  21144185.828                    21144191.766
 110475353.825 8  86084749.06345  21022757.586                    21022766.168
 125479217.801 6  97776094.60443  23877911.898                    23877922.410
 122187958.519 7  95211415.22944  23251600.836                    23251608.316
 105289894.954 8  82044108.31146  20035997.734                    20036004.219
 107507538.165 8  83772127.23946  20458006.930                    20458013.215
 11  8  2 17 22  0.0000000  0  9G08G06G07G19G03G10G16G13G23
 126795266.031 6  98801580.29743  24128340.336                    24128350.734
 119345502.524 7  92996535.41945  22710691.203                    22710700.355
 116283891.520 7  90610886.716 7  22128090.313                    22128098.355
 111077679.352 8  86554142.11846  21137385.703                    21137392.246
 110513908.012 8  86114791.26545  21030094.531                    21030102.418
 125495122.224 7  97788487.58943  23880939.117                    23880949.082
 122278707.107 7  95282128.37144  23268869.742                    23268877.422
 105284061.887 8  82039563.04646  20034887.367                    20034894.039
 107561741.809 8  83814363.79546  20468321.633                    20468327.770
 11  8  2 17 22 30.0000000  0  9G08G06G07G19G03G10G16G13G23
 126726856.387 6  98748274.13843  24115322.641                    24115332.574
 119407653.410 7  93044964.65644  22722517.844                    22722527.293
 116227509.610 7  90566952.777 7  22117360.961                    22117368.828
 111042507.345 8  86526735.38046  21130692.406                    21130698.430
 110553058.599 8  86145298.21245  21037544.289                    21037552.586
 125511480.146 7  97801233.97843  23884051.563                    23884061.832
 122369479.333 7  95352859.93844  23286143.133                    23286150.684
 105278805.416 8  82035467.08146  20033887.734                    20033894.363
 107616473.919 8  83857012.15146  20478737.063                    20478743.238
 11  8  2 17 23  0.0000000  0  9G08G06G07G19G03G10G16G13G23
 126658387.890 6  98694922.12043  24102293.242                    24102303.609
 119470254.177 7  93093744.44345  22734430.773                    22734439.961
 116171170.554 7  90523052.219 7  22106640.492                    22106647.992
 111007900.934 8  86499769.36846  21124107.203                    21124113.488
 110592804.589 8  86176269.09945  21045107.633                    21045115.883
 125528289.865 7  97814332.39443  23887251.086                    23887260.906
 122460274.063 7  95423609.04744  23303421.023                    23303428.453
 105274126.896 8  82031821.46946  20032997.305                    20033004.203
 107671733.223 8  83900071.29746  20489252.469                    20489258.629
 11  8  2 17 23 30.0000000  0  9G08G06G07G19G03G10G16G13G23
 126589860.632 7  98641524.33643  24089252.742                    24089263.160
 119533303.081 7  93142873.43544  22746428.922                    22746438.258
 116114875.022 7  90479185.583 7  22095927.430                    22095935.035
 110973861.821 8  86473245.40246  21117629.367                    21117635.777
 110633144.506 8  86207702.79145  21052784.172                    21052792.359
 125545550.109 6  97827781.88543  23890535.813                    23890545.766
 122551089.710 7  95494374.42744  23320702.602                    23320710.641
 105270027.794 8  82028627.35046  20032216.688                    20032224.164
 107727518.675 8  83943540.43646  20499868.289                    20499874.422
 11  8  2 17 24  0.0000000  0  9G08G06G07G19G03G10G16G13G23
 126521274.243 7  98588080.43043  24076201.797                    24076211.414
 119596797.831 7  93192349.83145  22758511.086                    22758520.324
 116058623.317 7  90435353.086 7  22085223.188                    22085230.914
 110940391.623 8  86447164.74146  21111260.383                    21111266.551
 110674077.015 8  86239598.25645  21060573.477                    21060581.879
 125563258.752 6  97841580.76843  23893904.727                    23893915.492
 122641923.794 7  95565154.19444  23337987.914                    23337994.863
 105266508.322 8  82025884.88846  20031546.953                    20031554.145
 107783828.710 8  83987418.33846  20510583.648                    20510589.629
 11  8  2 17 24 30.0000000  0  9G08G06G07G19G03G10G16G13G23
 126452629.515 7  98534591.10643  24063139.352                    24063148.871
 119660736.924 7  93242172.49044  22770678.688                    22770687.676
 116002416.787 8  90391555.815 7  22074527.406                    22074534.867
 110907492.148 7  86421528.81846  21104999.188                    21105005.875
 110715600.563 8  86271954.27045  21068475.234                    21068483.074
 125581414.843 6  97855728.30843  23897359.922                    23897370.605
 122732775.264 6  95635947.49244  23355276.383                    23355284.055
 105263570.305 8  82023595.51346  20030988.406                    20030995.602
 107840662.794 8  84031704.59646  20521398.836                    20521404.785
 11  8  2 17 25  0.0000000  0  9G08G06G07G19G03G10G16G13G23
 126383925.686 6  98481055.73243  24050064.656                    24050075.148
 119725117.652 7  93292339.27544  22782929.656                    22782938.180
 115946255.477 7  90347793.752 7  22063840.445                    22063847.652
 110875164.826 8  86396338.69746  21098848.297                    21098854.645
 110757713.193 8  86304769.29445  21076489.203                    21076496.996
 125600016.117 6  97870222.74944  23900899.953                    23900909.977
 122823641.751 6  95706752.47444  23372567.336                    23372575.555
 105261213.566 8  82021759.08146  20030539.539                    20030546.770
 107898018.771 8  84076397.51846  20532313.375                    20532319.875
 11  8  2 17 25 30.0000000  0 10G08G28G06G07G19G03G10G16G13G23
 126315163.427 7  98427474.82343  24036980.055                    24036989.734
 129637481.51515 101016269.92552  24669197.656                    24669205.539
 119789938.444 7  93342848.95644  22795264.586                    22795273.445
 115890140.856 7  90304068.085 7  22053161.547                    22053169.781
 110843411.566 8  86371595.90146  21092805.352                    21092812.012
 110800413.629 8  86338042.35545  21084614.297                    21084622.625
 125619061.336 6  97885063.13943  23904524.070                    23904534.813
 122914522.000 6  95777568.22244  23389861.297                    23389869.340
 105259439.644 8  82020376.78846  20030202.305                    20030209.215
 107955895.306 8  84121496.06246  20543326.969                    20543332.906
 11  8  2 17 26  0.0000000  0 10G08G28G06G07G19G03G10G16G13G23
 126246342.495 7  98373848.16843  24023883.469                    24023892.918
 129562954.383 6 100958196.88842  24655014.258                    24655025.316
 119855197.067 7  93393699.80744  22807683.273                    22807691.926
 115834073.160 7  90260378.980 7  22042492.648                    22042500.348
 110812233.808 8  86347301.53546  21086873.125                    21086879.355
 110843700.400 8  86371772.30545  21092851.789                    21092860.238
 125638548.776 7  97900248.09944  23908232.828                    23908242.648
 123005414.214 6  95848393.27744  23407158.023                    23407165.863
 105258249.232 8  82019449.17546  20029975.625                    20029982.559
 108014290.730 8  84166998.95846  20554439.102                    20554445.523
 11  8  2 17 26 30.0000000  0 10G08G28G06G07G19G03G10G16G13G23
 126177463.154 7  98320176.02144  24010775.594                    24010786.078
 129488634.348 5 100900285.16442  24640871.828                    24640883.117
 119920891.546 7  93444890.30444  22820184.250                    22820193.219
 115778053.055 7  90216726.948 7  22031831.984                    22031839.996
 110781633.163 7  86323456.88246  21081049.586                    21081056.176
 110887571.815 8  86405957.81345  21101200.352                    21101208.297
 125658476.704 7  97915776.28944  23912024.445                    23912035.406
 123096316.409 6  95919226.08744  23424456.117                    23424463.711
 105257642.877 8  82018976.66846  20029860.797                    20029867.094
 108073204.026 8  84212905.37046  20565649.984                    20565656.523
 11  8  2 17 27  0.0000000  0 10G08G28G06G07G19G03G10G16G13G23
 126108525.608 7  98266458.49243  23997658.273                    23997668.125
 129414521.928 6 100842535.30942  24626769.344                    24626780.539
 119987019.860 7  93496418.86144  22832768.227                    22832777.059
 115722081.709 7  90173112.920 7  22021181.758                    22021189.520
 110751611.437 8  86300063.32946  21075336.680                    21075343.020
 110932026.559 8  86440597.87145  21109659.648                    21109668.012
 125678843.564 6  97931646.49744  23915899.875                    23915911.375
 123187227.414 6  95990065.77544  23441756.023                    23441763.770
 105257621.833 8  82018960.25146  20029856.422                    20029863.645
 108132634.058 8  84259214.44046  20576959.555                    20576965.570
 11  8  2 17 27 30.0000000  0 10G08G28G06G07G19G03G10G16G13G23
 126039529.541 7  98212695.35743  23984527.938                    23984538.238
 129340617.581 6 100784947.54443  24612706.422                    24612716.773
 120053579.719 7  93548283.67544  22845434.016                    22845442.980
 115666159.615 7  90129537.290 7  22010539.750                    22010547.652
 110722169.959 8  86277121.91346  21069733.977                    21069740.313
 110977062.608 8  86475690.88745  21118229.609                    21118237.902
 125699647.220 6  97947857.07443  23919859.469                    23919869.688
 123278145.066 7  96060910.61944  23459056.266                    23459064.961
 105258186.401 8  82019400.15546  20029963.695                    20029970.773
 108192578.965 8  84305924.71346  20588366.406                    20588372.668
 11  8  2 17 28  0.0000000  0 10G08G28G06G07G19G03G10G16G13G23
 125970474.888 6  98158886.59644  23971387.336                    23971397.500
 129266921.569 6 100727522.14043  24598682.203                    24598692.672
 120120568.902 7  93600483.03044  22858181.273                    22858190.605
 115610287.321 7  90086000.456 7  21999907.047                    21999915.340
 110693310.100 8  86254633.72246  21064242.211                    21064248.305
 111022678.400 8  86511235.65745  21126909.750                    21126918.484
 125720886.021 6  97964406.70943  23923901.367                    23923911.875
 123369067.661 7  96131759.35744  23476358.734                    23476366.605
 105259337.053 8  82020296.74546  20030182.477                    20030189.738
 108253037.240 8  84353035.00646  20599871.188                    20599877.313
 11  8  2 17 28 30.0000000  0 10G08G28G06G07G19G03G10G16G13G23
 125901362.188 7  98105032.59844  23958235.703                    23958245.414
 129193434.345 6 100670259.35643  24584698.109                    24584708.309
 120187985.290 7  93653015.27244  22871010.453                    22871019.227
 115554465.738 7  90042503.138 7  21989284.914                    21989292.781
 110665033.460 8  86232599.99146  21058861.242                    21058867.859
 111068872.340 8  86547230.92245  21135700.719                    21135708.977
 125742558.120 7  97981293.99944  23928025.805                    23928035.598
 123459993.890 7  96202610.89244  23493662.141                    23493669.738
 105261074.684 8  82021650.71646  20030513.430                    20030520.871
 108314007.150 8  84400543.97546  20611473.461                    20611479.508
 11  8  2 17 29  0.0000000  0 10G08G28G06G07G19G03G10G16G13G23
 125832191.641 7  98051133.52544  23945072.844                    23945082.934
 129120156.765 7 100613160.00143  24570753.773                    24570764.281
 120255827.227 7  93705879.09444  22883920.594                    22883929.051
 115498696.094 7  89999046.297 7  21978672.305                    21978680.066
 110637341.537 7  86211021.87846  21053591.750                    21053598.066
 111115642.824 8  86583675.43645  21144600.984                    21144609.066
 125764662.231 6  97998517.94943  23932231.586                    23932241.523
 123550922.105 6  96273463.96343  23510964.539                    23510972.289
 105263400.529 7  82023463.04146  20030956.445                    20030962.984
 108375487.684 8  84448450.83746  20623173.117                    20623178.898
 11  8  2 17 29 30.0000000  0 11G08G28G06G11G07G19G03G10G16G13G23
 125762963.249 7  97997189.40044  23931898.898                    23931909.203
 129047088.997 6 100556224.16343  24556848.797                    24556860.238
 120324092.319 7  93759072.65844  22896911.391                    22896919.625
 130059580.09916                  24749523.008
 115442978.980 7  89955630.389 7  21968069.867                    21968077.730
 110610235.884 8  86189900.60046  21048433.367                    21048440.172
 111162988.001 8  86620567.77045  21153610.695                    21153618.945
 125787196.384 7  98016076.93844  23936519.422                    23936529.832
 123641850.712 6  96344317.42444  23528268.367                    23528275.922
 105266314.969 7  82025734.01146  20031510.727                    20031517.645
 108437476.755 8  84496753.94446  20634969.203                    20634975.285
 11  8  2 17 30  0.0000000  0 11G08G28G06G11G07G19G03G10G16G13G23
 125693677.085 7  97943200.24043  23918714.547                    23918724.145
 128974231.628 7 100499452.22143  24542984.883                    24542995.707
 120392778.421 7  93812594.26044  22909981.453                    22909990.082
 129983941.661 6 101286258.87652  24735130.172                    24735140.656
 115387315.303 7  89912256.104 7  21957477.383                    21957484.871
 110583717.826 8  86169237.19746  21043387.688                    21043394.012
 111210906.667 8  86657906.96445  21162729.063                    21162737.426
 125810159.064 6  98033969.88943  23940889.391                    23940900.055
 123732778.090 6  96415169.86943  23545570.500                    23545579.012
 105269818.539 7  82028464.03446  20032177.164                    20032184.582
 108499973.303 8  84545452.50546  20646861.883                    20646868.098
 11  8  2 17 30 30.0000000  0 11G08G28G06G11G07G19G03G10G16G13G23
 125624333.244 6  97889166.14843  23905518.438                    23905528.172
 128901585.059 6 100442844.50843  24529160.438                    24529171.527
 120461883.387 7  93866442.25344  22923132.109                    22923140.105
 129908162.335 6 101227210.09342  24720710.039                    24720720.637
 115331705.691 7  89868923.961 7  21946894.539                    21946902.910
 110557788.717 7  86149032.72046  21038453.297                    21038459.453
 111259396.579 8  86695691.28845  21171956.164                    21171964.527
 125833548.265 7  98052195.17644  23945340.000                    23945350.879
 123823702.451 6  96486020.01243  23562873.352                    23562880.973
 105273911.873 8  82031653.63046  20032956.422                    20032963.500
 108562975.584 8  84594545.13446  20658851.086                    20658857.410
 11  8  2 17 31  0.0000000  0 11G08G28G06G11G07G19G03G10G16G13G23
 125554931.811 6  97835087.20643  23892312.055                    23892321.832
 128829149.669 6 100386401.43743  24515377.063                    24515387.152
 120531405.081 7  93920614.96844  22936361.320                    22936370.242
 129832244.560 6 101168053.42442  24706263.984                    24706274.859
 115276150.996 7  89825634.605 7  21936323.336                    21936331.332
 110532450.070 7  86129288.34446  21033631.227                    21033637.945
 111308455.972 8  86733919.35645  21181291.867                    21181300.336
 125857361.779 7  98070751.11444  23949871.938                    23949882.617
 123914622.330 6  96556866.64843  23580174.727                    23580182.379
 105278595.678 8  82035303.31946  20033847.578                    20033854.625
 108626481.781 8  84644030.42746  20670935.484                    20670942.090
 11  8  2 17 31 30.0000000  0 11G08G28G06G11G07G19G03G10G16G13G23
 125485473.226 7  97780963.70243  23879094.938                    23879103.824
 128756925.833 6 100330123.12843  24501633.898                    24501643.734
 120601341.365 7  93975110.74244  22949669.813                    22949678.910
 129756190.463 6 101108790.53443  24691790.430                    24691802.980
 115220652.175 7  89782388.782 7  21925762.258                    21925770.105
 110507703.149 8  86110005.05346  21028922.430                    21028928.797
 111358082.962 8  86772589.71945  21190735.977                    21190743.902
 125881597.997 7  98089636.40644  23954484.320                    23954494.520
 124005536.075 6  96627708.45843  23597473.992                    23597482.938
 105283870.411 8  82039413.48246  20034851.102                    20034858.500
 108690490.473 8  84693907.26246  20683116.547                    20683122.555
 11  8  2 17 32  0.0000000  0 11G08G28G06G11G07G19G03G10G16G13G23
 125415957.313 7  97726795.52444  23865866.008                    23865875.535
 128684913.872 6 100274009.95743  24487928.484                    24487939.648
 120671689.748 7  94029927.64944  22963056.688                    22963065.652
 129680002.299 6 101049423.26842  24677291.195                    24677304.949
 115165209.716 7  89739186.881 7  21915211.914                    21915219.695
 110483548.931 8  86091183.60646  21024326.055                    21024332.141
 111408275.703 8  86811700.93045  21200286.703                    21200295.313
 125906254.960 7  98108849.54743  23959175.906                    23959186.473
 124096442.124 6  96698544.30243  23614773.883                    23614781.648
 105289736.135 8  82043984.16146  20035967.094                    20035974.707
 108754999.839 8  84744174.24846  20695391.992                    20695398.336
 11  8  2 17 32 30.0000000  0 11G08G28G06G11G07G19G03G10G16G13G23
 125346384.398 7  97672582.92744  23852627.125                    23852636.086
 128613114.460 6 100218062.38843  24474266.445                    24474276.418
 120742448.336 7  94085064.20544  22976521.070                    22976530.918
 129603682.976 5 100989953.76442  24662767.938                    24662781.695
 115109825.145 7  89696030.086 7  21904672.688                    21904680.637
 110459989.214 7  86072825.41046  21019842.984                    21019848.828
 111459032.588 8  86851251.72045  21209945.656                    21209954.035
 125931331.008 7  98128389.27444  23963947.391                    23963958.375
 124187339.151 6  96769373.11443  23632070.766                    23632079.094
 105296194.064 8  82049016.29846  20037196.016                    20037203.922
 108820008.546 8  84794830.31746  20707762.844                    20707768.805
